[[{"header":{"parameterUnit":"m.s-1","parameterCategory":1,"la1":31.0,"la2":29.5877,"lo1":-88.7671,"lo2":-86.6584,"dy":0.0162,"dx":0.0185,"nx":115,"ny":88,"refTime":"2026-03-09T00:00:00:Z","depth":0,"parameterNumber":2,"parameterNumberName":"U-component_of_WINDS"},"data":[0.0,0.0,0.0,0.0,0.0,0.0,0.0,0.0,0.0,0.0,0.0,0.0,0.0,0.0,0.0,0.0,0.0,0.0,0.0,0.0,0.0,0.0,0.0,0.0,0.0,0.0,0.0,0.0,0.0,0.0,0.0,0.0,0.0,0.0,0.0,0.0,0.0,0.0,0.0,0.0,0.0,0.0,0.0,0.0,0.0,0.0,0.0,0.0,0.0,0.0,0.0,0.0,0.0,0.0,0.0,0.0,0.0,0.0,0.0,0.0,0.0,0.0,0.0,0.0,0.0,0.0,0.0,0.0,0.0,0.0,0.0,0.0,0.0,0.0,0.0,0.0,0.0,0.0,0.0,0.0,0.0,0.0,0.0,0.0,0.0,0.0,0.0,0.0,0.0,0.0,0.0,0.0,0.0,0.0,0.0,0.0,0.0,0.0,0.0,0.0,0.0,0.0,0.0,0.0,0.0,0.0,0.0,0.0,0.0,0.0,0.0,0.0,0.0,0.0,0.0,0.0,0.0,0.0,0.0,0.0,0.0,0.0,0.0,0.0,0.0,0.0,0.0,0.0,0.0,0.0,0.0,0.0,0.0,0.0,0.0,0.0,0.0,0.0,0.0,0.0,0.0,0.0,0.0,0.0,0.0,0.0,0.0,0.0,0.0,0.0,0.0,0.0,0.0,0.0,0.0,0.0,0.0,0.0,0.0,0.0,0.0,0.0,0.0,0.0,0.0,0.0,0.0,0.0,0.0,0.0,0.0,0.0,0.0,0.0,0.0,0.0,0.0,0.0,0.0,0.0,0.0,0.0,0.0,0.0,0.0,0.0,0.0,0.0,0.0,0.0,0.0,0.0,0.0,0.0,0.0,0.0,0.0,0.0,0.0,0.0,0.0,0.0,0.0,0.0,0.0,0.0,0.0,0.0,0.0,0.0,0.0,0.0,0.0,0.0,0.0,0.0,0.0,0.0,0.0,0.0,0.0,0.0,0.0,0.0,0.0,0.0,0.0,0.0,0.0,0.0,0.0,0.0,0.0,0.0,0.0,0.0,0.0,0.0,0.0,0.0,0.0,0.0,0.0,0.0,0.0,0.0,0.0,0.0,0.0,0.0,0.0,0.0,0.0,0.0,0.0,0.0,0.0,0.0,0.0,0.0,0.0,0.0,0.0,0.0,0.0,0.0,0.0,0.0,0.0,0.0,0.0,0.0,0.0,0.0,0.0,0.0,0.0,0.0,0.0,0.0,0.0,0.0,0.0,0.0,0.0,0.0,0.0,0.0,0.0,0.0,0.0,0.0,0.0,0.0,0.0,0.0,0.0,0.0,0.0,0.0,0.0,0.0,0.0,0.0,0.0,0.0,0.0,0.0,0.0,0.0,0.0,0.0,0.0,0.0,0.0,0.0,0.0,0.0,0.0,0.0,0.0,0.0,0.0,0.0,0.0,0.0,0.0,0.0,0.0,0.0,0.0,0.0,0.0,0.0,0.0,0.0,0.0,0.0,0.0,0.0,0.0,0.0,0.0,0.0,0.0,0.0,0.0,0.0,0.0,0.0,0.0,0.0,0.0,0.0,0.0,0.0,0.0,0.0,0.0,0.0,0.0,0.0,0.0,0.0,0.0,0.0,0.0,0.0,0.0,0.0,0.0,0.0,0.0,0.0,0.0,0.0,0.0,0.0,0.0,0.0,0.0,0.0,0.0,0.0,0.0,0.0,0.0,0.0,0.0,0.0,0.0,0.0,0.0,0.0,0.0,0.0,0.0,0.0,0.0,0.0,0.0,0.0,0.0,0.0,0.0,0.0,0.0,0.0,0.0,0.0,0.0,0.0,0.0,0.0,0.0,0.0,0.0,0.0,0.0,0.0,0.0,0.0,0.0,0.0,0.0,0.0,0.0,0.0,0.0,0.0,0.0,0.0,0.0,0.0,0.0,0.0,0.0,0.0,0.0,0.0,0.0,0.0,0.0,0.0,0.0,0.0,0.0,0.0,0.0,0.0,0.0,0.0,0.0,0.0,0.0,0.0,0.0,0.0,0.0,0.0,0.0,0.0,0.0,0.0,0.0,0.0,0.0,0.0,0.0,0.0,0.0,0.0,0.0,0.0,0.0,0.0,0.0,0.0,0.0,0.0,0.0,0.0,0.0,0.0,0.0,0.0,0.0,0.0,0.0,0.0,0.0,0.0,0.0,0.0,0.0,0.0,0.0,0.0,0.0,0.0,0.0,0.0,0.0,0.0,0.0,0.0,0.0,0.0,0.0,0.0,0.0,0.0,0.0,0.0,0.0,0.0,0.0,0.0,0.0,0.0,0.0,0.0,0.0,0.0,0.0,0.0,0.0,0.0,0.0,0.0,0.0,0.0,0.0,0.0,0.0,0.0,0.0,0.0,0.0,0.0,0.0,0.0,0.0,0.0,0.0,0.0,0.0,0.0,0.0,0.0,0.0,0.0,0.0,0.0,0.0,0.0,0.0,0.0,0.0,0.0,0.0,0.0,0.0,0.0,0.0,0.0,0.0,0.0,0.0,0.0,0.0,0.0,0.0,0.0,0.0,0.0,0.0,0.0,0.0,0.0,0.0,0.0,0.0,0.0,0.0,0.0,0.0,0.0,0.0,0.0,0.0,0.0,0.0,0.0,0.0,0.0,0.0,0.0,0.0,0.0,0.0,0.0,0.0,0.0,0.0,0.0,0.0,0.0,0.0,0.0,0.0,0.0,0.0,0.0,0.0,0.0,0.0,0.0,0.0,0.0,0.0,0.0,0.0,0.0,0.0,0.0,0.0,0.0,0.0,0.0,0.0,0.0,0.0,0.0,0.0,0.0,0.0,0.0,0.0,0.0,0.0,0.0,0.0,0.0,0.0,0.0,0.0,0.0,0.0,0.0,0.0,0.0,0.0,0.0,0.0,0.0,0.0,0.0,0.0,0.0,0.0,0.0,0.0,0.0,0.0,0.0,0.0,0.0,0.0,0.0,0.0,0.0,0.0,0.0,0.0,0.0,0.0,0.0,0.0,0.0,0.0,0.0,0.0,0.0,0.0,0.0,0.0,0.0,0.0,0.0,0.0,0.0,0.0,0.0,0.0,0.0,0.0,0.0,0.0,0.0,0.0,0.0,0.0,0.0,0.0,0.0,0.0,0.0,0.0,0.0,0.0,0.0,0.0,0.0,0.0,0.0,0.0,0.0,0.0,0.0,0.0,0.0,0.0,0.0,0.0,0.0,0.0,0.0,0.0,0.0,0.0,0.0,0.0,0.0,0.0,0.0,0.0,0.0,0.0,0.0,0.0,0.0,0.0,0.0,0.0,0.0,0.0,0.0,0.0,0.0,0.0,0.0,0.0,0.0,0.0,0.0,0.0,0.0,0.0,0.0,0.0,0.0,0.0,0.0,0.0,0.0,0.0,0.0,0.0,0.0,0.0,0.0,0.0,0.0,0.0,0.0,0.0,0.0,0.0,0.0,0.0,0.0,0.0,0.0,0.0,0.0,0.0,0.0,0.0,0.0,0.0,0.0,0.0,0.0,0.0,0.0,0.0,0.0,0.0,0.0,0.0,0.0,0.0,0.0,0.0,0.0,0.0,0.0,0.0,0.0,0.0,0.0,0.0,0.0,0.0,0.0,0.0,0.0,0.0,0.0,0.0,0.0,0.0,0.0,0.0,0.0,0.0,0.0,0.0,0.0,0.0,0.0,0.0,0.0,0.0,0.0,0.0,0.0,0.0,0.0,0.0,0.0,0.0,0.0,0.0,0.0,0.0,0.0,0.0,0.0,0.0,0.0,0.0,0.0,0.0,0.0,0.0,0.0,0.0,0.0,0.0,0.0,0.0,0.0,0.0,0.0,0.0,0.0,0.0,0.0,0.0,0.0,0.0,0.0,0.0,0.0,0.0,0.0,0.0,0.0,0.0,0.0,0.0,0.0,0.0,0.0,0.0,0.0,0.0,0.0,0.0,0.0,0.0,0.0,0.0,0.0,0.0,0.0,0.0,0.0,0.0,0.0,0.0,0.0,0.0,0.0,0.0,0.0,0.0,0.0,0.0,0.0,0.0,0.0,0.0,0.0,0.0,0.0,0.0,0.0,0.0,0.0,0.0,0.0,0.0,0.0,0.0,0.0,0.0,0.0,0.0,0.0,0.0,0.0,0.0,0.0,0.0,0.0,0.0,0.0,0.0,0.0,0.0,0.0,0.0,0.0,0.0,0.0,0.0,0.0,0.0,0.0,0.0,0.0,0.0,0.0,0.0,0.0,0.0,0.0,0.0,0.0,0.0,0.0,0.0,0.0,-1.3928,0.0,0.0,0.0,0.0,0.0,0.0,0.0,0.0,0.0,0.0,0.0,0.0,0.0,0.0,0.0,0.0,0.0,0.0,0.0,0.0,0.0,0.0,0.0,0.0,0.0,0.0,0.0,0.0,0.0,0.0,0.0,0.0,0.0,0.0,0.0,0.0,0.0,0.0,0.0,0.0,0.0,0.0,0.0,0.0,0.0,0.0,0.0,0.0,0.0,0.0,0.0,0.0,0.0,0.0,0.0,0.0,0.0,0.0,0.0,0.0,0.0,0.0,0.0,0.0,0.0,0.0,0.0,0.0,0.0,0.0,0.0,0.0,0.0,0.0,0.0,0.0,0.0,0.0,0.0,0.0,0.0,0.0,0.0,0.0,0.0,0.0,0.0,0.0,0.0,0.0,0.0,0.0,0.0,0.0,0.0,0.0,0.0,0.0,0.0,0.0,0.0,0.0,0.0,0.0,0.0,0.0,0.0,0.0,0.0,0.0,-1.447,-1.4002,-1.4061,-1.3664,-1.2734,0.0,0.0,0.0,0.0,0.0,0.0,0.0,0.0,0.0,0.0,0.0,0.0,0.0,0.0,0.0,0.0,0.0,0.0,0.0,0.0,0.0,0.0,0.0,0.0,0.0,0.0,0.0,0.0,0.0,0.0,0.0,0.0,0.0,0.0,0.0,0.0,0.0,0.0,0.0,0.0,0.0,0.0,0.0,0.0,0.0,0.0,0.0,0.0,0.0,0.0,0.0,0.0,0.0,0.0,0.0,0.0,0.0,0.0,0.0,0.0,0.0,0.0,0.0,0.0,0.0,0.0,0.0,0.0,0.0,0.0,0.0,0.0,0.0,0.0,0.0,0.0,0.0,0.0,0.0,0.0,0.0,0.0,0.0,0.0,0.0,0.0,0.0,0.0,0.0,0.0,0.0,0.0,0.0,0.0,0.0,0.0,0.0,0.0,0.0,0.0,0.0,0.0,0.0,0.0,0.0,0.0,0.0,0.0,0.0,0.0,0.0,0.0,-1.4054,-1.3746,-1.2457,0.0,0.0,0.0,0.0,0.0,0.0,0.0,0.0,0.0,0.0,0.0,0.0,0.0,0.0,0.0,0.0,0.0,0.0,0.0,0.0,0.0,0.0,0.0,0.0,0.0,0.0,0.0,0.0,0.0,0.0,0.0,0.0,0.0,0.0,0.0,0.0,0.0,0.0,0.0,0.0,0.0,0.0,0.0,0.0,0.0,0.0,0.0,0.0,0.0,0.0,0.0,0.0,0.0,0.0,0.0,0.0,0.0,0.0,0.0,0.0,0.0,0.0,0.0,0.0,0.0,0.0,0.0,0.0,0.0,0.0,0.0,0.0,0.0,0.0,0.0,0.0,0.0,0.0,0.0,0.0,0.0,0.0,0.0,0.0,0.0,0.0,0.0,0.0,0.0,0.0,0.0,0.0,0.0,0.0,0.0,0.0,0.0,0.0,0.0,0.0,0.0,0.0,0.0,0.0,0.0,0.0,0.0,0.0,0.0,0.0,-1.3691,-1.5112,-1.5218,0.0,-1.4979,0.0,0.0,0.0,0.0,0.0,0.0,0.0,0.0,0.0,0.0,0.0,0.0,0.0,0.0,0.0,0.0,0.0,0.0,0.0,0.0,0.0,0.0,0.0,0.0,0.0,0.0,0.0,0.0,0.0,0.0,0.0,0.0,0.0,0.0,0.0,0.0,0.0,0.0,0.0,0.0,0.0,0.0,0.0,0.0,0.0,0.0,0.0,0.0,0.0,0.0,0.0,0.0,0.0,0.0,0.0,0.0,0.0,0.0,0.0,0.0,0.0,0.0,0.0,0.0,0.0,0.0,0.0,0.0,0.0,0.0,0.0,0.0,0.0,0.0,0.0,0.0,0.0,0.0,0.0,0.0,0.0,0.0,0.0,0.0,0.0,0.0,0.0,0.0,0.0,0.0,0.0,0.0,0.0,0.0,0.0,0.0,0.0,0.0,0.0,0.0,0.0,0.0,0.0,0.0,0.0,0.0,0.0,0.0,0.0,0.0,0.0,-1.3797,-1.3796,-1.4014,0.0,0.0,0.0,0.0,0.0,0.0,0.0,0.0,0.0,0.0,0.0,0.0,0.0,0.0,0.0,0.0,0.0,0.0,0.0,0.0,0.0,0.0,0.0,0.0,0.0,0.0,0.0,0.0,0.0,0.0,0.0,0.0,0.0,0.0,0.0,0.0,0.0,0.0,0.0,0.0,0.0,0.0,0.0,0.0,0.0,0.0,0.0,0.0,0.0,0.0,0.0,0.0,0.0,0.0,0.0,0.0,0.0,0.0,0.0,0.0,0.0,0.0,0.0,0.0,0.0,0.0,0.0,0.0,0.0,0.0,0.0,0.0,0.0,0.0,0.0,0.0,0.0,0.0,0.0,0.0,0.0,0.0,0.0,0.0,0.0,0.0,0.0,0.0,0.0,0.0,0.0,0.0,0.0,0.0,0.0,0.0,0.0,0.0,0.0,0.0,0.0,0.0,0.0,0.0,0.0,0.0,0.0,0.0,0.0,0.0,-1.3365,0.0,-1.3388,-1.3397,-1.3472,-1.3635,0.0,0.0,0.0,0.0,0.0,0.0,0.0,0.0,0.0,0.0,0.0,0.0,0.0,0.0,0.0,0.0,0.0,0.0,0.0,0.0,0.0,0.0,0.0,0.0,0.0,0.0,0.0,0.0,0.0,0.0,0.0,0.0,0.0,0.0,0.0,0.0,0.0,0.0,0.0,0.0,0.0,0.0,0.0,0.0,0.0,0.0,0.0,0.0,0.0,0.0,0.0,0.0,0.0,0.0,0.0,0.0,0.0,0.0,0.0,0.0,0.0,0.0,0.0,0.0,0.0,0.0,0.0,0.0,0.0,0.0,0.0,0.0,0.0,0.0,0.0,0.0,0.0,0.0,0.0,0.0,0.0,0.0,0.0,0.0,0.0,0.0,0.0,0.0,0.0,0.0,0.0,0.0,0.0,0.0,0.0,0.0,0.0,0.0,0.0,0.0,0.0,0.0,0.0,0.0,0.0,0.0,0.0,0.0,0.0,-1.3639,-1.3589,-1.5026,-1.5089,-1.4352,0.0,0.0,0.0,0.0,0.0,0.0,0.0,0.0,0.0,0.0,0.0,0.0,0.0,0.0,0.0,0.0,0.0,0.0,0.0,0.0,0.0,0.0,0.0,0.0,0.0,0.0,0.0,0.0,0.0,0.0,0.0,0.0,0.0,0.0,0.0,0.0,0.0,0.0,0.0,0.0,0.0,0.0,0.0,0.0,0.0,0.0,0.0,0.0,0.0,0.0,0.0,0.0,0.0,0.0,0.0,0.0,0.0,0.0,0.0,0.0,0.0,0.0,0.0,0.0,0.0,0.0,0.0,0.0,0.0,0.0,0.0,0.0,0.0,0.0,0.0,0.0,0.0,0.0,0.0,0.0,0.0,0.0,0.0,0.0,0.0,0.0,0.0,0.0,0.0,0.0,0.0,0.0,0.0,0.0,0.0,0.0,0.0,0.0,0.0,0.0,0.0,0.0,0.0,0.0,0.0,0.0,0.0,0.0,0.0,-1.2008,-1.2495,-1.4064,-1.6651,-1.4761,-1.381,0.0,0.0,0.0,0.0,0.0,0.0,0.0,0.0,0.0,0.0,0.0,0.0,0.0,0.0,0.0,0.0,0.0,0.0,0.0,0.0,0.0,0.0,0.0,0.0,0.0,0.0,0.0,0.0,0.0,0.0,0.0,0.0,0.0,0.0,0.0,0.0,0.0,0.0,0.0,0.0,0.0,0.0,0.0,0.0,0.0,0.0,0.0,0.0,0.0,0.0,0.0,0.0,0.0,0.0,0.0,0.0,0.0,0.0,0.0,0.0,0.0,0.0,0.0,0.0,0.0,0.0,0.0,0.0,0.0,0.0,0.0,0.0,0.0,0.0,0.0,0.0,0.0,0.0,0.0,0.0,0.0,0.0,0.0,0.0,0.0,0.0,0.0,0.0,0.0,0.0,0.0,0.0,0.0,0.0,0.0,0.0,0.0,0.0,0.0,0.0,0.0,0.0,0.0,0.0,0.0,0.0,0.0,0.0,0.0,-1.1835,0.0,-1.4965,0.0,-1.4485,-1.3258,0.0,0.0,0.0,0.0,0.0,0.0,0.0,0.0,0.0,0.0,0.0,0.0,0.0,0.0,0.0,0.0,0.0,0.0,0.0,0.0,0.0,0.0,0.0,0.0,0.0,0.0,0.0,0.0,0.0,0.0,0.0,0.0,0.0,0.0,0.0,0.0,0.0,0.0,0.0,0.0,0.0,0.0,0.0,0.0,0.0,0.0,0.0,0.0,0.0,0.0,0.0,0.0,0.0,0.0,0.0,0.0,0.0,0.0,0.0,0.0,0.0,0.0,0.0,0.0,0.0,0.0,0.0,0.0,0.0,0.0,0.0,0.0,0.0,0.0,0.0,0.0,0.0,0.0,0.0,0.0,0.0,0.0,0.0,0.0,0.0,0.0,0.0,0.0,0.0,0.0,0.0,0.0,0.0,0.0,0.0,0.0,0.0,0.0,0.0,0.0,0.0,0.0,0.0,0.0,0.0,0.0,0.0,0.0,-1.1871,-1.5046,-1.6039,-1.6088,-1.535,-1.4402,-1.2765,0.0,0.0,0.0,0.0,0.0,0.0,0.0,0.0,0.0,0.0,0.0,0.0,0.0,0.0,0.0,0.0,0.0,0.0,0.0,0.0,0.0,0.0,0.0,0.0,0.0,0.0,0.0,0.0,0.0,0.0,0.0,0.0,0.0,0.0,0.0,0.0,0.0,0.0,0.0,0.0,0.0,0.0,0.0,0.0,0.0,0.0,0.0,0.0,0.0,0.0,0.0,0.0,0.0,0.0,0.0,0.0,0.0,0.0,0.0,0.0,0.0,0.0,0.0,0.0,0.0,0.0,0.0,0.0,0.0,0.0,0.0,0.0,0.0,0.0,0.0,0.0,0.0,0.0,0.0,0.0,0.0,0.0,0.0,0.0,0.0,0.0,0.0,0.0,0.0,0.0,0.0,0.0,0.0,0.0,0.0,0.0,0.0,0.0,0.0,0.0,0.0,0.0,0.0,0.0,0.0,0.0,0.0,0.0,0.0,-1.2715,-1.4136,-1.5326,-1.6072,-1.3641,-1.2711,0.0,0.0,0.0,0.0,0.0,0.0,0.0,0.0,0.0,0.0,0.0,0.0,0.0,0.0,0.0,0.0,0.0,0.0,0.0,0.0,0.0,0.0,0.0,0.0,0.0,0.0,0.0,0.0,0.0,0.0,0.0,0.0,0.0,0.0,0.0,0.0,0.0,0.0,0.0,0.0,0.0,0.0,0.0,0.0,0.0,0.0,0.0,0.0,0.0,0.0,0.0,0.0,0.0,0.0,0.0,0.0,0.0,0.0,0.0,0.0,0.0,0.0,0.0,0.0,0.0,0.0,0.0,0.0,0.0,0.0,0.0,0.0,0.0,0.0,0.0,0.0,0.0,0.0,0.0,0.0,0.0,0.0,0.0,0.0,0.0,0.0,0.0,0.0,0.0,0.0,0.0,0.0,0.0,0.0,0.0,0.0,0.0,0.0,0.0,0.0,0.0,0.0,0.0,0.0,0.0,0.0,0.0,0.0,0.0,-1.3069,-1.4944,-1.6219,-1.6626,-1.424,-1.3235,-1.3801,0.0,0.0,0.0,0.0,0.0,0.0,0.0,0.0,0.0,0.0,0.0,0.0,0.0,0.0,0.0,0.0,0.0,0.0,0.0,0.0,0.0,0.0,0.0,0.0,0.0,0.0,0.0,0.0,0.0,0.0,0.0,0.0,0.0,0.0,0.0,0.0,0.0,0.0,0.0,0.0,0.0,0.0,0.0,0.0,0.0,0.0,0.0,0.0,0.0,0.0,0.0,0.0,0.0,0.0,0.0,0.0,0.0,0.0,0.0,0.0,0.0,0.0,0.0,0.0,0.0,0.0,0.0,0.0,0.0,0.0,0.0,0.0,0.0,0.0,0.0,0.0,0.0,0.0,0.0,0.0,0.0,0.0,0.0,0.0,0.0,0.0,0.0,0.0,0.0,0.0,0.0,0.0,0.0,0.0,0.0,0.0,0.0,0.0,0.0,0.0,0.0,0.0,0.0,0.0,0.0,0.0,0.0,0.0,-1.543,-1.8022,-1.8534,-1.693,-1.5894,-1.4267,0.0,0.0,0.0,0.0,0.0,0.0,0.0,0.0,0.0,0.0,0.0,0.0,0.0,0.0,0.0,0.0,0.0,0.0,0.0,0.0,0.0,0.0,0.0,0.0,0.0,0.0,0.0,0.0,0.0,0.0,0.0,0.0,0.0,0.0,0.0,0.0,0.0,0.0,0.0,0.0,0.0,0.0,0.0,0.0,0.0,0.0,0.0,0.0,0.0,0.0,0.0,0.0,0.0,0.0,0.0,0.0,0.0,0.0,0.0,0.0,0.0,0.0,0.0,0.0,0.0,0.0,0.0,0.0,0.0,0.0,0.0,0.0,0.0,0.0,0.0,0.0,0.0,0.0,0.0,0.0,0.0,0.0,0.0,0.0,0.0,0.0,0.0,0.0,0.0,0.0,0.0,0.0,0.0,0.0,0.0,0.0,0.0,0.0,0.0,0.0,0.0,0.0,0.0,0.0,0.0,0.0,0.0,0.0,0.0,-1.7221,-1.916,-1.9682,-1.8632,-1.6543,-1.539,0.0,0.0,0.0,0.0,0.0,0.0,0.0,0.0,0.0,0.0,0.0,0.0,0.0,0.0,0.0,0.0,0.0,0.0,0.0,0.0,0.0,0.0,0.0,0.0,0.0,0.0,0.0,0.0,0.0,0.0,0.0,0.0,0.0,0.0,0.0,0.0,0.0,0.0,0.0,0.0,0.0,0.0,0.0,0.0,0.0,0.0,0.0,0.0,0.0,0.0,0.0,0.0,0.0,0.0,0.0,0.0,0.0,0.0,0.0,0.0,0.0,0.0,0.0,0.0,0.0,0.0,0.0,0.0,0.0,0.0,0.0,0.0,0.0,0.0,0.0,0.0,0.0,0.0,0.0,0.0,0.0,0.0,0.0,0.0,0.0,0.0,0.0,0.0,0.0,0.0,0.0,0.0,0.0,0.0,0.0,0.0,0.0,0.0,0.0,0.0,0.0,0.0,0.0,0.0,0.0,0.0,0.0,0.0,-1.6668,-1.8421,-1.9775,-2.0283,-1.9863,-1.8379,-1.7109,0.0,0.0,0.0,0.0,0.0,0.0,0.0,0.0,0.0,0.0,0.0,0.0,0.0,0.0,0.0,0.0,0.0,0.0,0.0,0.0,0.0,0.0,0.0,0.0,0.0,0.0,0.0,0.0,0.0,0.0,0.0,0.0,0.0,0.0,0.0,0.0,0.0,0.0,0.0,0.0,0.0,0.0,0.0,0.0,0.0,0.0,0.0,0.0,0.0,0.0,0.0,0.0,0.0,0.0,0.0,0.0,0.0,0.0,0.0,0.0,0.0,0.0,0.0,0.0,0.0,0.0,0.0,0.0,0.0,0.0,0.0,0.0,0.0,0.0,0.0,0.0,0.0,0.0,0.0,0.0,0.0,0.0,0.0,0.0,0.0,0.0,0.0,0.0,0.0,0.0,0.0,0.0,0.0,0.0,0.0,0.0,0.0,0.0,0.0,0.0,0.0,0.0,0.0,0.0,0.0,0.0,0.0,0.0,-1.7372,-1.9151,-2.0042,-2.0535,-2.0605,-2.0508,-1.8965,0.0,0.0,0.0,0.0,0.0,0.0,0.0,0.0,0.0,0.0,0.0,0.0,0.0,0.0,0.0,0.0,0.0,0.0,0.0,0.0,0.0,0.0,0.0,0.0,0.0,0.0,0.0,0.0,0.0,0.0,0.0,0.0,0.0,0.0,0.0,0.0,0.0,0.0,0.0,0.0,0.0,0.0,0.0,0.0,0.0,0.0,0.0,0.0,0.0,0.0,0.0,0.0,0.0,0.0,0.0,0.0,0.0,0.0,0.0,0.0,0.0,0.0,0.0,0.0,0.0,0.0,0.0,0.0,0.0,0.0,0.0,0.0,0.0,0.0,0.0,0.0,0.0,0.0,0.0,0.0,0.0,0.0,0.0,0.0,0.0,0.0,0.0,0.0,0.0,0.0,0.0,0.0,0.0,0.0,0.0,0.0,0.0,0.0,0.0,0.0,0.0,0.0,0.0,0.0,0.0,0.0,0.0,0.0,-1.7381,-1.9151,-1.9995,-2.0478,-2.0605,-1.9922,-1.8906,0.0,0.0,0.0,0.0,0.0,0.0,0.0,0.0,0.0,0.0,0.0,0.0,0.0,0.0,0.0,0.0,0.0,0.0,0.0,0.0,0.0,0.0,0.0,0.0,0.0,0.0,0.0,0.0,0.0,0.0,0.0,0.0,0.0,0.0,0.0,0.0,0.0,0.0,0.0,0.0,0.0,0.0,0.0,0.0,0.0,0.0,0.0,0.0,-1.1041,0.0,0.0,0.0,0.0,0.0,0.0,0.0,0.0,0.0,0.0,0.0,0.0,0.0,0.0,0.0,0.0,0.0,0.0,0.0,0.0,0.0,0.0,0.0,0.0,0.0,0.0,0.0,0.0,0.0,0.0,0.0,0.0,0.0,0.0,0.0,0.0,0.0,0.0,0.0,0.0,0.0,0.0,0.0,0.0,0.0,0.0,0.0,0.0,0.0,0.0,0.0,0.0,0.0,0.0,0.0,0.0,0.0,0.0,0.0,-1.8346,-1.9729,-2.0177,-2.0451,-2.0586,-2.0156,-1.9316,0.0,0.0,0.0,0.0,0.0,0.0,0.0,0.0,0.0,0.0,0.0,0.0,0.0,0.0,0.0,0.0,0.0,0.0,0.0,0.0,0.0,0.0,0.0,0.0,0.0,0.0,0.0,0.0,0.0,0.0,0.0,0.0,0.0,0.0,0.0,0.0,0.0,0.0,0.0,0.0,0.0,0.0,0.0,0.0,0.0,0.0,0.0,0.0,0.0,0.0,0.0,0.0,0.0,0.0,0.0,0.0,0.0,0.0,0.0,0.0,0.0,0.0,0.0,0.0,0.0,0.0,0.0,0.0,0.0,0.0,0.0,0.0,0.0,0.0,0.0,0.0,0.0,0.0,0.0,0.0,0.0,0.0,0.0,0.0,0.0,0.0,0.0,0.0,0.0,0.0,0.0,0.0,0.0,0.0,0.0,0.0,0.0,0.0,0.0,0.0,0.0,0.0,0.0,0.0,0.0,0.0,0.0,-1.7699,-1.9332,-2.0346,-2.0389,-2.0471,-2.0586,-2.0605,-1.9785,-1.8086,0.0,0.0,0.0,0.0,0.0,0.0,0.0,0.0,0.0,0.0,0.0,0.0,0.0,0.0,0.0,0.0,0.0,0.0,0.0,0.0,0.0,0.0,0.0,0.0,0.0,0.0,0.0,0.0,0.0,0.0,0.0,0.0,0.0,0.0,0.0,0.0,0.0,0.0,-0.9204,-1.0619,0.0,0.0,0.0,0.0,0.0,0.0,0.0,0.0,-1.1383,0.0,0.0,0.0,0.0,0.0,0.0,0.0,0.0,0.0,0.0,0.0,0.0,0.0,0.0,0.0,0.0,0.0,0.0,0.0,0.0,0.0,0.0,0.0,0.0,0.0,0.0,0.0,0.0,0.0,0.0,0.0,0.0,0.0,0.0,0.0,0.0,0.0,0.0,0.0,0.0,0.0,0.0,0.0,0.0,0.0,0.0,0.0,0.0,0.0,0.0,0.0,0.0,0.0,0.0,0.0,0.0,-1.7237,-1.7699,-1.873,-2.0329,-2.0389,-2.0471,-2.0586,-2.0605,-1.9785,-1.8047,0.0,0.0,0.0,0.0,0.0,0.0,0.0,0.0,0.0,0.0,0.0,0.0,0.0,0.0,0.0,0.0,0.0,0.0,0.0,0.0,0.0,0.0,0.0,0.0,0.0,0.0,0.0,0.0,0.0,0.0,0.0,0.0,0.0,0.0,0.0,0.0,0.0,0.0,0.0,-1.1941,-1.2577,0.0,0.0,0.0,0.0,0.0,0.0,0.0,0.0,-1.083,0.0,0.0,0.0,0.0,0.0,0.0,0.0,0.0,0.0,0.0,0.0,0.0,0.0,0.0,0.0,0.0,0.0,0.0,0.0,0.0,0.0,0.0,0.0,0.0,0.0,0.0,0.0,0.0,0.0,0.0,0.0,0.0,0.0,0.0,0.0,0.0,0.0,0.0,0.0,0.0,0.0,0.0,0.0,0.0,0.0,0.0,0.0,0.0,0.0,0.0,0.0,0.0,0.0,0.0,0.0,-1.7003,-1.8369,-1.95,-2.0365,-2.0389,-2.0471,-2.0586,-2.0156,-1.9316,0.0,0.0,0.0,0.0,0.0,0.0,0.0,0.0,0.0,0.0,0.0,0.0,0.0,0.0,0.0,0.0,0.0,0.0,0.0,0.0,0.0,0.0,0.0,0.0,0.0,0.0,0.0,0.0,0.0,0.0,0.0,0.0,0.0,0.0,0.0,0.0,0.0,0.0,0.0,0.0,-1.2535,-1.2962,-1.3363,0.0,0.0,0.0,0.0,0.0,0.0,-1.1674,-1.1262,0.0,0.0,0.0,0.0,0.0,0.0,0.0,0.0,0.0,0.0,0.0,0.0,0.0,0.0,0.0,0.0,0.0,0.0,0.0,0.0,0.0,0.0,0.0,0.0,0.0,0.0,0.0,0.0,0.0,0.0,0.0,0.0,0.0,0.0,0.0,0.0,0.0,0.0,0.0,0.0,0.0,0.0,0.0,0.0,0.0,0.0,0.0,0.0,0.0,0.0,0.0,0.0,0.0,0.0,0.0,-1.6542,-1.8846,-2.0151,-2.0363,-2.0389,-2.0451,-2.0586,-1.9922,-1.9082,0.0,0.0,0.0,0.0,0.0,0.0,0.0,0.0,0.0,0.0,0.0,0.0,0.0,0.0,0.0,0.0,0.0,0.0,0.0,0.0,0.0,0.0,0.0,0.0,0.0,0.0,0.0,0.0,0.0,0.0,0.0,0.0,0.0,0.0,0.0,0.0,0.0,0.0,0.0,0.0,0.0,-1.3695,-1.397,-1.3618,0.0,0.0,0.0,0.0,-1.2938,-1.2605,0.0,0.0,0.0,0.0,0.0,0.0,0.0,0.0,0.0,0.0,0.0,0.0,0.0,0.0,0.0,0.0,0.0,0.0,0.0,0.0,0.0,0.0,0.0,0.0,0.0,0.0,0.0,0.0,0.0,0.0,0.0,0.0,0.0,0.0,0.0,0.0,0.0,0.0,0.0,0.0,0.0,0.0,0.0,0.0,0.0,0.0,0.0,0.0,0.0,0.0,0.0,0.0,0.0,0.0,0.0,0.0,-1.6484,-1.8246,-1.9555,-2.0344,-2.0389,-2.0451,-2.0605,-2.0508,-1.9687,0.0,0.0,0.0,0.0,0.0,0.0,0.0,0.0,0.0,0.0,0.0,0.0,0.0,0.0,0.0,0.0,0.0,0.0,0.0,0.0,0.0,0.0,0.0,0.0,0.0,0.0,0.0,0.0,0.0,0.0,0.0,0.0,0.0,0.0,0.0,0.0,0.0,0.0,0.0,0.0,0.0,-1.5728,-1.4288,-1.466,-1.478,0.0,0.0,0.0,-1.3944,-1.452,0.0,0.0,0.0,0.0,0.0,0.0,0.0,0.0,0.0,0.0,0.0,0.0,0.0,0.0,0.0,0.0,0.0,0.0,0.0,0.0,0.0,0.0,0.0,0.0,0.0,0.0,0.0,0.0,0.0,0.0,0.0,0.0,0.0,0.0,0.0,0.0,0.0,0.0,0.0,0.0,0.0,0.0,0.0,0.0,0.0,0.0,0.0,0.0,0.0,0.0,0.0,0.0,0.0,0.0,0.0,-1.5462,-1.7176,-1.8869,-1.9931,-2.0315,-2.0394,-2.0441,-2.054,-2.0097,-1.9043,0.0,0.0,0.0,0.0,0.0,0.0,0.0,0.0,0.0,0.0,0.0,0.0,0.0,0.0,0.0,0.0,0.0,0.0,0.0,0.0,0.0,0.0,0.0,0.0,0.0,0.0,0.0,0.0,0.0,0.0,0.0,0.0,0.0,0.0,0.0,0.0,0.0,0.0,0.0,0.0,0.0,0.0,-1.5536,-1.5465,0.0,0.0,0.0,-1.4991,-1.5436,0.0,0.0,0.0,0.0,0.0,0.0,0.0,0.0,0.0,0.0,0.0,0.0,0.0,0.0,0.0,0.0,0.0,0.0,0.0,0.0,0.0,0.0,0.0,0.0,0.0,0.0,0.0,0.0,0.0,0.0,0.0,0.0,0.0,0.0,0.0,0.0,0.0,0.0,0.0,0.0,0.0,0.0,0.0,0.0,0.0,0.0,0.0,0.0,0.0,0.0,0.0,0.0,0.0,0.0,0.0,0.0,0.0,-1.768,-1.9427,-2.0299,-2.0307,-2.0361,-2.0432,-2.0487,-1.9939,0.0,0.0,0.0,0.0,0.0,0.0,0.0,0.0,0.0,0.0,0.0,0.0,0.0,0.0,0.0,0.0,0.0,0.0,0.0,0.0,0.0,0.0,0.0,0.0,0.0,0.0,0.0,-0.5762,0.0,0.0,0.0,0.0,0.0,0.0,0.0,0.0,0.0,0.0,0.0,0.0,0.0,0.0,-1.5097,-1.6209,-1.6341,-1.6499,0.0,0.0,-1.6487,-1.6846,-1.6545,-1.5747,0.0,0.0,0.0,0.0,0.0,0.0,0.0,0.0,0.0,0.0,0.0,0.0,0.0,0.0,0.0,0.0,0.0,0.0,0.0,0.0,0.0,0.0,0.0,0.0,0.0,0.0,0.0,0.0,0.0,0.0,0.0,0.0,0.0,0.0,0.0,0.0,0.0,0.0,0.0,0.0,0.0,0.0,0.0,0.0,0.0,0.0,0.0,0.0,0.0,0.0,0.0,0.0,0.0,0.0,0.0,-1.768,-1.9404,-2.0295,-2.0288,-2.0359,-2.0432,-2.0507,-2.0505,-1.9316,0.0,0.0,0.0,0.0,0.0,0.0,0.0,0.0,0.0,0.0,0.0,0.0,0.0,0.0,0.0,0.0,0.0,0.0,0.0,0.0,0.0,0.0,0.0,0.0,0.0,0.0,0.0,0.0,0.0,0.0,0.0,0.0,0.0,0.0,0.0,0.0,0.0,0.0,0.0,0.0,0.0,-1.612,-1.5485,-1.7436,-1.8672,0.0,0.0,-1.8677,-1.7867,-1.839,-1.7815,-1.4531,0.0,0.0,0.0,0.0,0.0,0.0,0.0,0.0,0.0,0.0,0.0,0.0,0.0,0.0,0.0,0.0,0.0,0.0,0.0,0.0,0.0,0.0,0.0,0.0,0.0,0.0,0.0,0.0,0.0,0.0,0.0,0.0,0.0,0.0,0.0,0.0,0.0,0.0,0.0,0.0,0.0,0.0,0.0,0.0,0.0,0.0,0.0,0.0,0.0,0.0,0.0,0.0,0.0,-1.6042,-1.7683,-1.9423,-2.0289,-2.0294,-2.0378,-2.0418,-2.0456,-2.0541,-1.9375,0.0,0.0,0.0,0.0,0.0,0.0,0.0,0.0,0.0,0.0,0.0,0.0,0.0,0.0,0.0,0.0,0.0,0.0,0.0,0.0,0.0,0.0,0.0,0.0,0.0,0.0,0.0,0.0,-0.7402,-0.7539,-0.8418,0.0,0.0,0.0,0.0,0.0,0.0,0.0,0.0,0.0,0.0,-1.6775,-1.7528,-1.8544,0.0,0.0,-1.9301,-1.9246,-1.9377,-1.8845,-1.7584,-1.5201,-1.3959,0.0,0.0,0.0,0.0,0.0,0.0,0.0,0.0,0.0,0.0,0.0,0.0,0.0,0.0,0.0,0.0,0.0,0.0,0.0,0.0,0.0,0.0,0.0,0.0,0.0,0.0,0.0,0.0,0.0,0.0,0.0,0.0,0.0,0.0,0.0,0.0,0.0,0.0,0.0,0.0,0.0,0.0,0.0,0.0,0.0,0.0,0.0,0.0,0.0,0.0,0.0,0.0,-1.6019,-1.7699,-1.9427,-2.0288,-2.0288,-2.0366,-2.0389,-2.0393,-2.0518,-1.9375,0.0,0.0,0.0,0.0,0.0,0.0,0.0,0.0,0.0,0.0,0.0,0.0,0.0,0.0,0.0,0.0,0.0,0.0,0.0,0.0,0.0,0.0,0.0,0.0,0.0,0.0,0.0,0.0,-0.8262,-0.832,-0.8945,0.0,0.0,0.0,0.0,0.0,0.0,0.0,0.0,0.0,0.0,-1.7137,-1.8872,-1.9367,-1.9765,-2.0354,-1.9935,-1.9669,-1.9964,-1.9036,-1.7582,-1.5623,0.0,0.0,0.0,0.0,0.0,0.0,0.0,0.0,0.0,0.0,0.0,0.0,0.0,0.0,0.0,0.0,0.0,0.0,0.0,0.0,0.0,0.0,0.0,0.0,0.0,0.0,0.0,0.0,0.0,0.0,-1.1376,0.0,0.0,0.0,0.0,0.0,0.0,0.0,0.0,0.0,0.0,0.0,0.0,0.0,0.0,0.0,0.0,0.0,0.0,0.0,0.0,0.0,0.0,0.0,-1.7699,-1.9427,-2.0288,-2.0292,-2.0363,-2.0389,-2.0391,-2.0518,-1.9375,-1.6797,0.0,0.0,0.0,0.0,0.0,0.0,0.0,0.0,0.0,0.0,0.0,0.0,0.0,0.0,0.0,0.0,0.0,0.0,0.0,0.0,0.0,0.0,0.0,0.0,0.0,0.0,-1.0195,-0.9492,-0.8984,0.0,0.0,0.0,0.0,0.0,0.0,0.0,0.0,0.0,0.0,-1.5945,-1.7173,-1.8961,-1.9867,-2.0391,-2.0484,-2.0426,-2.0096,-1.9313,-1.9096,-1.8222,0.0,0.0,0.0,0.0,0.0,0.0,0.0,0.0,0.0,0.0,0.0,0.0,0.0,0.0,0.0,0.0,0.0,0.0,0.0,0.0,0.0,0.0,0.0,0.0,0.0,0.0,0.0,-1.5481,-1.3983,0.0,0.0,0.0,0.0,0.0,0.0,0.0,0.0,0.0,0.0,0.0,-1.9446,-1.9712,0.0,0.0,0.0,0.0,0.0,0.0,0.0,0.0,0.0,0.0,0.0,0.0,-1.6599,-1.7738,-1.9427,-2.0288,-2.0292,-2.0363,-2.0389,-2.041,-2.0537,-1.9648,-1.7617,0.0,0.0,0.0,0.0,0.0,0.0,0.0,0.0,0.0,0.0,0.0,0.0,0.0,0.0,0.0,0.0,0.0,0.0,0.0,0.0,0.0,0.0,0.0,0.0,0.0,-1.0312,0.0,0.0,0.0,0.0,0.0,0.0,0.0,0.0,0.0,0.0,0.0,-1.4462,-1.5865,-1.7326,-1.8653,-1.9781,-2.0223,-2.0444,0.0,0.0,0.0,0.0,0.0,0.0,0.0,0.0,0.0,0.0,0.0,0.0,0.0,0.0,-1.6641,-1.3767,-1.2752,-1.2383,-1.2419,0.0,0.0,0.0,0.0,0.0,0.0,0.0,0.0,0.0,0.0,0.0,0.0,0.0,0.0,-1.7834,0.0,-1.6519,0.0,0.0,0.0,0.0,0.0,0.0,0.0,0.0,-2.0223,-2.1089,-2.162,-2.162,-2.1331,0.0,-2.02,-1.8623,0.0,0.0,0.0,0.0,0.0,0.0,0.0,0.0,-1.7045,-1.8164,-1.9561,-2.0288,-2.0296,-2.0366,-2.0389,-2.0391,-2.0244,-1.9609,-1.8496,-1.6758,-1.5195,0.0,0.0,0.0,0.0,0.0,0.0,0.0,0.0,0.0,0.0,0.0,0.0,0.0,0.0,0.0,0.0,0.0,0.0,0.0,0.0,0.0,0.0,0.0,-1.0625,0.0,0.0,0.0,0.0,0.0,0.0,0.0,0.0,0.0,-1.2418,-1.4024,-1.5743,-1.7221,-1.8388,-1.941,-2.021,0.0,0.0,0.0,0.0,0.0,0.0,0.0,-1.8971,-1.8355,-1.7594,-1.6894,-1.6316,-1.7648,-1.8567,-1.7693,0.0,0.0,-1.5559,-1.4563,-1.4175,-1.4219,-1.4179,-1.4314,-1.4881,-1.5198,-1.5356,0.0,0.0,0.0,0.0,0.0,0.0,0.0,0.0,-2.0519,-2.0004,0.0,-1.9154,0.0,0.0,0.0,0.0,0.0,0.0,0.0,0.0,-2.324,-2.4105,-2.411,-2.4048,-2.4072,-2.4105,-2.4014,-2.272,-2.0288,-1.7927,0.0,0.0,0.0,0.0,0.0,0.0,-1.7411,-1.8953,-1.985,-2.0288,-2.0292,-2.0363,-2.0391,-2.0398,-1.9737,-1.9375,-1.9297,-1.7695,-1.6387,-1.5508,-1.3887,0.0,0.0,0.0,0.0,0.0,0.0,0.0,0.0,0.0,0.0,0.0,0.0,0.0,0.0,0.0,0.0,0.0,0.0,0.0,0.0,-1.1562,0.0,0.0,0.0,0.0,0.0,0.0,0.0,0.0,0.0,0.0,-1.4259,-1.4879,-1.6256,-1.8742,0.0,0.0,0.0,0.0,-2.0755,-2.1562,-2.1612,-2.1527,-2.152,-2.1485,-2.0917,-1.9377,0.0,0.0,-1.8252,-1.9409,-1.9765,-1.7333,-1.8248,-1.9257,-1.9257,-1.7773,-1.6679,-1.666,-1.6621,-1.6719,-1.6816,-1.7296,-1.7791,-2.5171,0.0,0.0,0.0,0.0,-2.3254,-2.4067,-2.564,-2.4404,-2.3389,-2.2609,-2.1989,0.0,0.0,0.0,0.0,0.0,0.0,-2.2177,-2.3355,-2.3879,-2.4413,-2.4928,-2.4375,-2.4105,-2.4105,-2.4105,-2.3394,-2.212,-2.1989,-1.9527,-1.4962,0.0,0.0,0.0,0.0,-1.9158,-1.9049,-1.985,-2.0288,-2.0288,-2.0366,-2.0441,-2.054,-2.0331,-2.0215,-2.0215,-1.916,-1.8144,-1.7266,-1.5605,0.0,0.0,0.0,0.0,0.0,0.0,0.0,0.0,0.0,0.0,0.0,0.0,0.0,0.0,0.0,0.0,0.0,0.0,0.0,-1.0583,-1.0602,-1.0758,0.0,0.0,0.0,0.0,0.0,0.0,0.0,0.0,0.0,-1.6744,-1.7508,-1.8319,0.0,0.0,-2.1031,-2.1308,-2.133,-2.1397,-2.1612,0.0,0.0,0.0,-2.0145,-1.9798,-1.9938,-2.0173,-2.017,-1.9756,-2.0148,-2.0286,-1.9569,-1.9832,-2.0157,-2.0096,-1.8778,-1.7656,-1.7616,-1.7575,-1.7781,-1.8365,-1.8645,-1.8741,-2.7693,-2.6175,-2.5207,-2.539,-2.6274,-2.5818,-2.6472,-2.7838,-2.6794,-2.6043,-2.5568,-2.5067,-2.4082,-2.2788,-2.2793,0.0,0.0,0.0,-2.4606,-2.5625,-2.5606,-2.5851,-2.6269,-2.5837,-2.5414,-2.5087,-2.5087,-2.4471,-2.3336,-2.4182,-2.2259,-1.7923,0.0,0.0,-1.7827,-1.975,-2.0677,-2.0546,-2.1008,-2.1139,-2.0811,-2.0558,-2.0484,-2.0586,-2.0605,-2.0605,-2.0605,-2.0098,-1.9394,-1.8535,-1.7187,-1.5664,0.0,0.0,0.0,0.0,0.0,0.0,0.0,0.0,0.0,0.0,0.0,-1.123,0.0,0.0,0.0,0.0,-1.107,-1.1393,-1.1669,-1.2019,0.0,0.0,0.0,0.0,0.0,0.0,0.0,-1.5137,-1.6678,-1.7924,-1.841,-1.9222,-1.9737,-1.9723,-2.056,-2.119,-2.1178,0.0,-2.127,-2.1513,-2.1137,-2.0917,-2.1232,-2.0546,-2.0077,-2.0245,-2.0326,-2.0357,-2.0409,-2.0486,-2.0542,-2.0566,-2.0541,-2.0516,-2.0605,-1.9674,-1.8954,-1.9023,-1.8978,-1.912,-1.9648,-1.9659,-1.9585,-2.9722,-2.9627,-2.8699,-2.8195,-2.7992,-2.7992,-2.803,-2.8088,-2.8025,-2.8011,-2.7992,-2.7928,-2.7448,-2.6697,-2.6697,0.0,0.0,-2.7544,-2.7852,-2.789,-2.789,-2.789,-2.789,-2.7871,-2.7486,-2.6692,-2.6717,-2.587,-2.4394,-2.5063,-2.4173,-2.1846,-2.1808,-2.1712,-2.1519,-2.162,-2.2062,-2.2797,-2.2778,-2.2404,-2.1613,-2.0958,-2.0615,-2.0605,-2.0664,-2.0664,-2.0605,-2.0684,-2.0293,-1.9434,-1.8574,-1.7305,-1.5586,0.0,0.0,0.0,0.0,0.0,0.0,0.0,0.0,0.0,0.0,0.0,0.0,0.0,0.0,0.0,-1.2487,0.0,-1.3932,-1.4773,0.0,0.0,0.0,-1.5218,-1.4472,-1.5898,-1.6894,-1.6894,0.0,0.0,0.0,0.0,-2.0585,-2.0513,-2.0506,-2.05,-2.0499,-2.056,-2.0747,-2.1436,-2.1484,-2.1739,-2.2122,-2.169,-2.0993,-2.0405,-2.0369,-2.0423,-2.0481,-2.0561,-2.0605,-2.0605,-2.0541,-2.0516,-2.0586,-2.0482,-2.0516,-2.0507,-2.0483,-2.0448,-2.0422,-2.032,-2.023,-3.2355,-3.2273,-3.1967,-3.0689,-2.8819,-2.8819,-2.9179,-2.975,-2.9102,-2.88,-2.878,-2.8165,-2.7799,-2.7588,-2.7582,-2.7588,-2.7607,-2.7818,-2.789,-2.789,-2.789,-2.789,-2.789,-2.789,-2.7799,-2.7582,-2.7582,-2.7044,-2.6043,-2.6197,-2.5635,-2.4462,-2.4385,-2.3423,-2.1639,-2.2816,-2.3259,-2.2797,-2.2797,-2.2439,-2.1702,-2.1558,-2.1202,-2.0625,-2.125,-2.1289,-2.0644,-2.123,-2.1191,-2.0332,-1.9453,-1.8203,-1.6465,-1.4766,0.0,0.0,0.0,0.0,0.0,0.0,0.0,0.0,0.0,-1.2859,-1.1335,0.0,-1.2775,0.0,-1.4197,-1.4508,-1.4035,-1.473,0.0,0.0,-1.6162,-1.6508,-1.6957,-1.7986,-1.8691,-1.8691,-1.9629,-2.0293,-2.0273,-2.0469,-2.0605,-2.0605,-2.104,-2.1404,-2.1396,-2.1354,-2.1368,-2.1472,-2.1078,-2.0752,-2.0908,-2.0742,-2.0558,-2.0337,-2.0352,-2.0425,-2.0504,-2.0562,-2.0605,-2.0586,-2.0541,-2.0537,-2.0605,-2.0561,-2.0518,-2.0586,-2.0541,-2.05,-2.0434,-2.0371,-2.0292,-3.3265,-3.3187,-3.3137,-3.2202,-3.0794,-3.0794,-3.1064,-3.1462,-3.1006,-3.0583,-3.0198,-2.9371,-2.9236,-2.9563,-2.9198,-2.9006,-2.9,-2.9,-2.9006,-2.9025,-2.9006,-2.9025,-2.9025,-2.9006,-2.8813,-2.8453,-2.8448,-2.8023,-2.7253,-2.7238,-2.6801,-2.5979,-2.596,-2.5051,-2.3358,-2.4171,-2.4389,-2.3908,-2.3548,-2.3178,-2.2792,-2.2164,-2.1787,-2.1719,-2.1836,-2.168,-2.1211,-2.166,-2.1484,-2.0625,-1.9766,-1.8867,-1.7891,-1.6211,-1.4863,0.0,0.0,0.0,0.0,0.0,0.0,0.0,0.0,0.0,0.0,0.0,-1.4256,0.0,-1.555,0.0,-1.6207,-1.6629,-1.7087,-1.7606,-1.8028,-1.8349,-1.8453,-1.9313,-1.9883,-1.9883,-2.0312,-2.0586,-2.0563,-2.0566,-2.0586,-2.0564,-2.0906,-2.1169,-2.1126,-2.1097,-2.1061,-2.0997,-2.068,-2.0378,-2.0315,-2.0318,-2.0329,-2.0354,-2.0389,-2.0472,-2.0518,-2.0585,-2.0605,-2.0605,-2.0565,-2.0562,-2.0605,-2.0565,-2.0563,-2.0566,-2.0541,-2.048,-2.04,-2.0362,-2.0302,-3.3602,-3.3521,-3.3444,-3.3353,-3.3237,-3.3237,-3.3103,-3.2891,-3.2891,-3.2506,-3.1788,-3.1038,-3.1135,-3.1795,-3.1064,-3.0673,-3.0577,-3.0558,-3.0519,-3.0404,-3.0404,-3.0404,-3.0404,-3.0404,-3.0006,-2.9275,-2.9261,-2.8893,-2.8163,-2.8163,-2.775,-2.6997,-2.696,-2.6501,-2.5628,-2.5528,-2.5428,-2.5313,-2.4617,-2.4258,-2.4197,-2.2842,-2.2429,-2.3047,-2.2539,-2.2109,-2.1914,-2.2109,-2.1777,-2.0801,-2.0039,-1.957,-1.9434,-1.7812,-1.6816,0.0,-1.5877,0.0,0.0,0.0,0.0,0.0,0.0,0.0,0.0,-1.5641,-1.5965,-1.645,-1.6817,-1.7545,-1.8895,-1.9088,-1.919,-1.9265,-1.9939,-2.0114,-1.9483,-2.0113,-2.0605,-2.0605,-2.0605,-2.0585,-2.0513,-2.0562,-2.0564,-2.0516,-2.0527,-2.054,-2.0422,-2.0445,-2.0443,-2.0302,-2.0364,-2.0359,-2.0334,-2.0352,-2.0377,-2.0416,-2.0447,-2.0516,-2.0585,-2.0605,-2.0605,-2.0586,-2.0585,-2.0585,-2.0565,-2.0565,-2.0565,-2.0564,-2.0514,-2.0472,-2.0418,-2.0342,-2.0286,-3.5384,-3.522,-3.5203,-3.5132,-3.5007,-3.5,-3.4192,-3.2891,-3.2891,-3.2795,-3.266,-3.2506,-3.2526,-3.266,-3.2506,-3.2077,-3.1462,-3.1462,-3.1077,-3.0404,-3.0404,-3.0404,-3.0404,-3.0404,-3.0327,-3.016,-3.0135,-2.9731,-2.8977,-2.8977,-2.8588,-2.788,-2.7863,-2.7425,-2.657,0.0,0.0,0.0,-2.5292,-2.4907,-2.4236,-2.3979,-2.3582,-2.3144,-2.3633,0.0,-2.2031,-2.3203,-2.3223,-2.1738,-2.1504,0.0,0.0,0.0,0.0,0.0,0.0,0.0,0.0,0.0,0.0,0.0,-1.6211,-1.5923,-1.628,-1.7516,-1.7796,-1.6692,-1.8353,-1.9427,-1.9049,-1.9642,-2.0065,-2.0084,-2.0263,-2.0315,-2.0191,-2.0438,-2.0605,-2.0605,-2.0605,-2.0586,-2.0511,-2.0512,-2.0513,-2.0509,-2.0447,-2.0421,-2.0443,-2.041,-2.0366,-2.0308,-2.0311,-2.0349,-2.0374,-2.0354,-2.0368,-2.0443,-2.0503,-2.0537,-2.0586,-2.0605,-2.0566,-2.0539,-2.0514,-2.0509,-2.0444,-2.0456,-2.0441,-2.0437,-2.0411,-2.0422,-2.0391,-2.0342,-2.0286,-3.5925,0.0,-3.5802,-3.5709,0.0,-3.5586,-3.5088,-3.4294,-3.424,-3.4232,-3.4162,-3.3294,-3.3141,-3.3513,-3.3103,-3.2699,-3.2295,-3.2295,-3.1833,-3.1058,-3.1044,-3.0808,-3.0404,-3.0404,-3.0404,-3.0404,-3.0404,-3.0211,-2.9915,-2.988,-2.9541,-2.8845,-2.8846,-2.8388,-2.7509,-2.7015,-2.634,-2.5406,-2.5431,-2.5257,-2.4866,-2.4485,-2.4109,-2.3769,0.0,0.0,0.0,0.0,0.0,0.0,0.0,0.0,0.0,0.0,0.0,-1.9902,-1.9473,-1.8848,-1.8066,-1.835,-1.8538,-1.8432,-1.8396,-1.8191,-1.777,-1.8537,-1.8831,-1.8465,-1.9577,-2.0115,-1.9719,-2.0042,-2.0289,-2.0301,-2.0354,-2.0418,-2.0464,-2.0539,-2.0605,-2.0605,-2.0605,-2.0564,-2.0451,-2.0512,-2.0513,-2.0493,-2.0871,-2.1111,-2.1042,-2.068,-2.037,-2.0305,-2.0327,-2.0342,-2.0347,-2.0383,-2.04,-2.0483,-2.0537,-2.0563,-2.0605,-2.0605,-2.0585,-2.0533,-2.0508,-2.048,-2.0402,-2.0389,-2.0389,-2.0387,-2.0385,-2.0347,-2.0345,-2.0316,-2.0305,-3.5951,-3.5884,-3.5882,-3.5831,-3.5703,-3.5703,-3.5713,-3.572,0.0,0.0,0.0,-3.4005,-3.3757,-3.4353,-3.366,-3.3276,-3.3141,-3.3141,-3.2679,-3.1929,-3.191,-3.1468,-3.0654,-3.0615,-3.0558,-3.0404,-3.0404,-3.0458,-3.06,-3.0606,-3.0338,-2.9883,-2.9824,-2.9354,-2.8462,-2.7528,-2.6658,-2.5913,-2.5576,-2.5444,-2.5471,-2.4879,-2.4559,-2.4629,-2.4629,-2.4236,-2.3363,-2.4099,-2.4063,-2.3063,-2.2334,-2.2218,-2.2804,-2.2049,-2.1925,-2.2656,-2.2695,-2.207,-2.0742,-2.1336,-2.1203,-1.9847,-2.0353,-2.0369,-1.9511,-1.9453,-1.9796,-2.0673,-2.0754,-2.075,-2.0754,-2.0754,-2.0757,-2.0752,-2.0832,-2.0927,-2.0975,-2.1032,-2.1152,-2.1055,-2.1133,-2.0934,-2.0755,-2.0942,-2.0931,-2.0841,-2.1509,-2.2089,-2.1918,-2.1252,-2.0582,-2.0362,-2.0336,-2.0354,-2.0345,-2.0402,-2.0507,-2.0534,-2.0564,-2.0605,-2.0605,-2.0605,-2.0586,-2.0503,-2.0481,-2.0441,-2.0394,-2.0369,-2.0378,-2.0378,-2.0355,-2.0289,-2.0289,-2.0289,-2.0302,-3.5971,-3.5882,-3.5882,-3.5834,-3.5703,-3.5703,-3.5764,-3.5862,-3.5689,-3.5611,-3.5581,-3.5271,-3.5192,-3.5315,-3.5192,-3.4737,-3.4032,-3.4013,-3.3551,0.0,-3.2737,-3.2314,-3.1525,-3.1525,-3.1115,-3.0442,-3.0404,-3.0453,-3.0607,-3.0606,-3.0632,-3.0703,-3.0723,-3.0273,-2.9394,-2.8463,-2.7938,-2.7776,-2.6269,-2.5481,-2.551,-2.5446,-2.5458,-2.5508,-2.5508,-2.5117,-2.4277,-2.4987,-2.4683,-2.3178,-2.2958,-2.2646,-2.1992,-2.1303,-2.0839,-2.0937,-2.0957,-2.084,-2.0664,-2.1296,-2.1883,-2.2258,-2.2387,-2.2081,-2.1235,-2.1158,-2.1504,-2.2331,-2.237,-2.2447,-2.2455,-2.2427,-2.242,-2.2487,-2.2608,-2.2713,-2.264,-2.2695,-2.2695,-2.2617,-2.2754,-2.2381,-2.1798,-2.221,-2.2332,-2.1913,-2.2369,-2.2927,-2.278,-2.207,-2.1171,-2.0506,-2.0292,-2.0344,-2.0394,-2.0441,-2.0513,-2.0585,-2.0586,-2.0605,-2.0605,-2.0605,-2.0566,-2.0437,-2.0406,-2.0385,-2.0324,-2.0315,-2.0329,-2.0317,-2.0315,-2.03,-2.0304,-2.03,-2.0292,-3.7401,-3.7376,-3.7376,-3.733,-3.7238,-3.677,-3.6622,-3.6591,-3.6016,-3.5705,-3.5638,-3.5546,-3.55,-3.55,-3.55,-3.5303,-3.4952,-3.4952,-3.4488,-3.3697,-3.3658,-3.3194,-3.2359,-3.1904,-3.1487,-3.1096,-3.0615,-3.0453,-3.0591,-3.0606,-3.071,-3.0898,-3.0918,-3.0644,-3.0168,-2.932,-2.8874,-2.8809,-2.7135,-2.6259,-2.6261,-2.5864,-2.5447,-2.5019,-2.543,-2.5273,-2.4387,-2.5122,-2.5167,-2.4394,-2.4346,-2.4185,-2.3832,-2.3476,-2.3336,-2.3359,-2.3337,-2.3118,-2.2628,-2.2444,-2.2475,-2.2772,-2.2797,-2.2836,-2.2932,-2.247,-2.237,-2.2759,-2.2797,-2.2804,-2.2844,-2.2878,-2.2918,-2.3009,-2.3072,-2.3112,-2.3101,-2.3124,-2.3144,-2.3105,-2.3125,-2.2988,-2.2563,-2.2843,-2.3001,-2.2623,-2.3252,-2.3789,-2.3797,-2.3419,-2.2594,-2.1363,-2.1038,-2.0863,-2.0555,-2.0478,-2.0537,-2.0586,-2.0605,-2.0605,-2.0605,-2.0605,-2.0547,-2.0432,-2.0389,-2.0362,-2.0307,-2.0288,-2.0288,-2.0288,-2.0288,-2.0288,-2.0288,-2.0288,-2.0288,-3.8613,-3.8613,-3.8613,-3.8613,-3.8535,-3.7871,-3.7598,-3.75,-3.6798,-3.6399,-3.6234,-3.5764,-3.5521,-3.55,-3.55,-3.554,-3.5595,-3.5611,-3.5223,-3.4623,-3.4584,-3.4105,-3.3211,-3.2545,-3.2184,-3.1944,-3.1135,-3.079,-3.089,-3.0708,-3.0702,-3.0879,-3.0918,-3.0838,-3.0726,-3.0142,-2.978,-2.965,-2.8254,-2.7309,-2.6912,-2.6286,-2.5566,-2.4824,-2.5352,-2.5349,-2.4683,-2.52,-2.5406,-2.5179,-2.5143,-2.5102,-2.4964,-2.502,-2.5064,-2.5095,-2.5041,-2.4822,-2.428,-2.3592,-2.3226,-2.3364,-2.337,-2.3639,-2.4202,-2.3786,-2.3375,-2.3379,-2.3456,-2.3466,-2.3557,-2.3553,-2.3562,-2.3648,-2.3678,-2.3783,-2.3711,-2.3672,-2.3672,-2.3691,-2.375,-2.371,-2.3491,-2.3553,-2.373,-2.3862,-2.4276,-2.4667,-2.47,-2.4697,-2.3986,-2.2777,-2.2,-2.1495,-2.0876,-2.0612,-2.058,-2.0586,-2.0605,-2.0605,-2.0605,-2.0586,-2.0539,-2.0409,-2.0396,-2.036,-2.0311,-2.0288,-2.0288,-2.0288,-2.0288,-2.0288,-2.0288,-2.0288,-2.0288,-3.8633,-3.8613,-3.8672,-3.8613,-3.8652,-3.8535,-3.8476,-3.8457,-3.8245,-3.8115,-3.7813,-3.6333,-3.5608,-3.5494,-3.5519,-3.5579,-3.5611,-3.5611,-3.5538,-3.5461,-3.5494,-3.4974,-3.4116,-3.3975,-3.3631,-3.2919,-3.2092,-3.1739,-3.1815,-3.1098,-3.0786,-3.0898,-3.0918,-3.0898,-3.0859,-3.0781,-3.0762,-3.0742,-2.9843,-2.8551,-2.7013,-2.6892,-2.6465,-2.5605,-2.5684,-2.5642,-2.5487,-2.554,-2.521,-2.4488,-2.4456,-2.4107,-2.351,-2.3393,-2.3374,-2.3435,-2.3357,-2.3453,-2.4051,-2.4043,-2.4281,-2.4976,-2.4981,-2.5019,-2.5144,-2.5127,-2.5147,-2.5069,-2.5101,-2.5066,-2.5262,-2.5216,-2.5182,-2.5155,-2.525,-2.5469,-2.5332,-2.5449,-2.5469,-2.5449,-2.5273,-2.5156,-2.4492,-2.4824,-2.5293,-2.5176,-2.5273,-2.543,-2.543,-2.543,-2.5176,-2.4102,-2.2902,-2.1915,-2.1587,-2.1031,-2.0742,-2.0644,-2.0605,-2.0605,-2.0586,-2.0542,-2.0461,-2.0425,-2.0345,-2.0317,-2.0318,-2.0288,-2.0288,-2.0292,-2.0292,-2.0292,-2.0288,-2.0296,-2.0296,-4.0073,-4.0137,-4.0137,-4.0096,-3.9968,-3.9477,-3.9243,-3.9207,-3.873,-3.844,-3.8236,-3.751,-3.6836,-3.6219,-3.6192,-3.6014,-3.5674,-3.5663,-3.5663,-3.5663,-3.5663,-3.5408,-3.4976,-3.4459,-3.4093,-3.3771,-3.3002,-3.2667,-3.2606,-3.1963,-3.1619,-3.1601,-3.1172,-3.0918,-3.0918,-3.0918,-3.0918,-3.0898,-3.0547,-2.9746,-2.8591,-2.8007,-2.7598,-2.7305,-2.7226,-2.6972,-2.648,-2.6356,-2.5923,-2.515,-2.5044,-2.4895,-2.4587,-2.4586,-2.4585,-2.4582,-2.4487,-2.4534,-2.4784,-2.4814,-2.4951,-2.5288,-2.5308,-2.5308,-2.5293,-2.5367,-2.5392,-2.544,-2.5465,-2.5495,-2.5552,-2.5575,-2.5608,-2.5659,-2.5684,-2.5703,-2.5703,-2.5703,-2.5703,-2.5703,-2.5703,-2.5586,-2.5293,-2.5469,-2.5684,-2.5703,-2.5703,-2.5703,-2.5703,-2.5703,-2.5566,-2.5137,-2.41,-2.2966,-2.2148,-2.164,-2.1191,-2.0762,-2.0605,-2.0605,-2.0586,-2.0547,-2.0478,-2.0418,-2.0337,-2.0299,-2.0292,-2.0292,-2.0288,-2.03,-2.029,-2.0304,-2.0304,-2.0295,-2.029,-4.0996,-4.1081,-4.1082,-4.1028,-4.0894,-4.0287,-4.0023,-4.0001,-3.9483,-3.9171,-3.9056,-3.9033,-3.8456,-3.7508,-3.7224,-3.6718,-3.6121,-3.608,-3.596,-3.5746,-3.5703,-3.565,-3.5444,-3.4961,-3.4667,-3.4577,-3.3936,-3.3501,-3.3286,-3.281,-3.2422,-3.2129,-3.1562,-3.1133,-3.0937,-3.0918,-3.0918,-3.0918,-3.0918,-3.0586,-2.9941,-2.9336,-2.8789,-2.8359,-2.8281,-2.7988,-2.7335,-2.7223,-2.6911,-2.6304,-2.6248,-2.6259,-2.6333,-2.631,-2.6296,-2.6244,-2.6152,-2.5944,-2.5678,-2.5885,-2.5904,-2.5712,-2.5846,-2.6019,-2.6034,-2.6111,-2.6156,-2.6226,-2.6249,-2.6236,-2.5647,-2.5633,-2.5658,-2.5703,-2.5703,-2.5703,-2.5703,-2.5703,-2.5703,-2.5703,-2.5703,-2.5703,-2.5684,-2.5684,-2.5703,-2.5703,-2.5703,-2.5703,-2.5703,-2.5703,-2.5684,-2.5684,-2.5117,-2.4219,-2.2871,-2.2383,-2.1914,-2.1269,-2.0996,-2.0937,-2.0684,-2.0527,-2.0475,-2.0406,-2.0341,-2.0292,-2.0296,-2.0292,-2.0292,-2.0299,-2.0305,-2.031,-2.0344,-2.0332,-2.0332,-4.0809,-4.0816,-4.0832,-4.0813,-4.0785,-4.0747,-4.0799,-4.0834,-4.0824,-4.0838,-4.0742,-4.0756,-4.0253,-3.9204,-3.8512,-3.772,-3.7026,-3.7079,-3.6665,-3.5924,-3.5817,-3.5664,-3.5508,-3.5521,-3.5557,-3.5475,-3.4878,-3.42,-3.3535,-3.3379,-3.2949,-3.2285,-3.2187,-3.1719,-3.1094,-3.0996,-3.0918,-3.0918,-3.0918,-3.0859,-3.082,-3.0742,-2.9922,-2.8613,-2.834,-2.8312,-2.8095,-2.8094,-2.8057,-2.7967,-2.7932,-2.8029,-2.8104,-2.8036,-2.7909,-2.7817,-2.7754,-2.7362,-2.6774,-2.7236,-2.7351,-2.6794,-2.7198,-2.7717,-2.754,-2.7625,-2.7689,-2.7838,-2.7826,-2.7381,-2.6133,-2.5898,-2.5762,-2.5703,-2.5703,-2.5703,-2.5703,-2.5703,-2.5703,-2.5703,-2.5703,-2.5703,-2.5703,-2.5703,-2.5703,-2.5703,-2.5703,-2.5684,-2.5703,-2.5703,-2.5703,-2.5703,-2.5566,-2.5293,-2.4394,-2.3555,-2.2793,-2.2148,-2.1777,-2.166,-2.0977,-2.049,-2.0537,-2.0467,-2.0508,-2.0472,-2.0362,-2.0292,-2.029,-2.0305,-2.0313,-2.0338,-2.0376,-2.0411,-2.039,-4.0771,-4.0789,-4.0757,-4.0742,-4.0742,-4.0722,-4.0775,-4.0893,-4.0962,-4.0994,-4.0987,-4.0996,-4.0733,-4.0261,-4.01,-3.9198,-3.7909,-3.7881,-3.7699,-3.7369,-3.7262,-3.6895,-3.6324,-3.6415,-3.6165,-3.572,-3.5539,-3.5369,-3.5019,-3.4531,-3.4082,-3.375,-3.3242,-3.2539,-3.1875,-3.1719,-3.1484,-3.0976,-3.0918,-3.0918,-3.0937,-3.0918,-3.0566,-3.0019,-2.9961,-2.9686,-2.9069,-2.8998,-2.8757,-2.8265,-2.8177,-2.8186,-2.828,-2.8193,-2.8096,-2.8001,-2.7933,-2.778,-2.7525,-2.7698,-2.7775,-2.7525,-2.7703,-2.7948,-2.7922,-2.7987,-2.8034,-2.8103,-2.8186,-2.7843,-2.7461,-2.6875,-2.6289,-2.582,-2.5703,-2.5742,-2.5703,-2.5703,-2.5703,-2.5703,-2.5703,-2.5703,-2.5684,-2.5703,-2.5703,-2.5703,-2.5703,-2.5684,-2.564,-2.5681,-2.5683,-2.5659,-2.5664,-2.5586,-2.5352,-2.4453,-2.3672,-2.3086,-2.2676,-2.2637,-2.2187,-2.1944,-2.1956,-2.1334,-2.1156,-2.0704,-2.0573,-2.0297,-2.0292,-2.0319,-2.034,-2.0381,-2.041,-2.0458,-2.0437,-4.0666,-4.0682,-4.0648,-4.0643,-4.0623,-4.0623,-4.0685,-4.0797,-4.0905,-4.0983,-4.1045,-4.1076,-4.0992,-4.0889,-4.1017,-4.0396,-3.9146,-3.8867,-3.8558,-3.8251,-3.8146,-3.777,-3.7198,-3.7046,-3.6704,-3.6174,-3.6021,-3.6016,-3.5957,-3.541,-3.498,-3.4648,-3.4082,-3.3398,-3.2734,-3.2598,-3.2246,-3.1758,-3.1445,-3.1328,-3.1289,-3.1035,-3.0918,-3.0918,-3.0918,-3.0625,-2.9977,-2.9865,-2.9602,-2.9131,-2.9003,-2.8987,-2.9119,-2.9011,-2.8899,-2.8856,-2.879,-2.8578,-2.8382,-2.8563,-2.8582,-2.8338,-2.8563,-2.8717,-2.8709,-2.8795,-2.8849,-2.889,-2.9,-2.9016,-2.8628,-2.8164,-2.748,-2.6699,-2.6309,-2.6133,-2.6094,-2.5879,-2.5723,-2.5684,-2.5684,-2.5684,-2.5663,-2.5684,-2.5703,-2.5703,-2.5683,-2.5657,-2.5609,-2.5606,-2.5635,-2.5605,-2.5635,-2.5664,-2.5547,-2.5019,-2.4408,-2.3846,-2.3553,-2.3533,-2.3359,-2.3232,-2.2927,-2.2304,-2.1704,-2.1141,-2.0711,-2.0415,-2.0324,-2.0366,-2.0414,-2.047,-2.0499,-2.053,-2.0504,-4.0504,-4.0527,-4.0496,-4.0519,-4.05,-4.0519,-4.0616,-4.0781,-4.0805,-4.0964,-4.1133,-4.1191,-4.1105,-4.1031,-4.1127,-4.0994,-4.0539,-3.9967,-3.9221,-3.8447,-3.8338,-3.8245,-3.7995,-3.7544,-3.7141,-3.6894,-3.6333,-3.6035,-3.5996,-3.5879,-3.5508,-3.4883,-3.4766,-3.4277,-3.3418,-3.3418,-3.3359,-3.3066,-3.25,-3.2187,-3.2109,-3.1504,-3.1113,-3.1016,-3.1016,-3.0897,-3.0662,-3.0636,-3.0578,-3.0564,-3.0539,-3.0729,-3.0624,-3.0553,-3.0554,-3.0395,-3.042,-2.9979,-2.9327,-2.98,-2.9775,-2.9352,-2.9827,-3.0121,-3.0086,-3.0249,-3.0312,-3.0277,-3.0443,-3.0427,-2.9675,-2.9489,-2.9062,-2.834,-2.7422,-2.7012,-2.6777,-2.6191,-2.5682,-2.5635,-2.5681,-2.5662,-2.5655,-2.5661,-2.5703,-2.5684,-2.5638,-2.5585,-2.5593,-2.5556,-2.5547,-2.5564,-2.5577,-2.5606,-2.5624,-2.5562,-2.5077,-2.4629,-2.4452,-2.4334,-2.4003,-2.3807,-2.361,-2.3076,-2.2277,-2.1701,-2.1032,-2.0725,-2.0554,-2.0567,-2.0559,-2.0547,-2.0547,-2.0566,-2.0547,-4.0496,-4.0496,-4.0496,-4.0496,-4.0496,-4.0496,-4.061,-4.0809,-4.0797,-4.0935,-4.1152,-4.1191,-4.1171,-4.1152,-4.1172,-4.1104,-4.0933,-4.0674,-4.0343,-3.9971,-3.9926,-3.9582,-3.914,-3.8932,-3.8257,-3.7347,-3.7009,-3.6582,-3.6133,-3.6035,-3.584,-3.5644,-3.5586,-3.5137,-3.4336,-3.4277,-3.4043,-3.3437,-3.3164,-3.3027,-3.3027,-3.2773,-3.2344,-3.1855,-3.1797,-3.1523,-3.0896,-3.0746,-3.0745,-3.0836,-3.0746,-3.0748,-3.0838,-3.077,-3.071,-3.0667,-3.0558,-3.0412,-3.0173,-3.0235,-3.0288,-3.0077,-3.025,-3.0384,-3.0443,-3.0511,-3.0565,-3.0606,-3.0714,-3.0613,-3.0505,-3.0488,-2.9863,-2.8476,-2.8047,-2.7617,-2.7012,-2.625,-2.5781,-2.5682,-2.5683,-2.5683,-2.5682,-2.5722,-2.5762,-2.5703,-2.5656,-2.5633,-2.5545,-2.5517,-2.549,-2.5465,-2.5493,-2.5527,-2.556,-2.5574,-2.5336,-2.5071,-2.4999,-2.4961,-2.4646,-2.4442,-2.4256,-2.3742,-2.2962,-2.2268,-2.1583,-2.1231,-2.1146,-2.0835,-2.0791,-2.0742,-2.0625,-2.0664,-2.0762,-4.0496,-4.0496,-4.0496,-4.0496,-4.0496,-4.0496,-4.0629,-4.0781,-4.0797,-4.0955,-4.1172,-4.1191,-4.1191,-4.1191,-4.1191,-4.1113,-4.1021,-4.1052,-4.0996,-4.0874,-4.0809,-4.0494,-4.0022,-3.9777,-3.9064,-3.7988,-3.7773,-3.75,-3.6973,-3.6641,-3.6484,-3.6465,-3.6172,-3.5762,-3.5234,-3.5156,-3.4863,-3.4394,-3.4082,-3.3867,-3.3809,-3.3574,-3.3164,-3.2715,-3.2656,-3.2363,-3.1831,-3.1718,-3.1405,-3.093,-3.0745,-3.0745,-3.0815,-3.0792,-3.0747,-3.0686,-3.0611,-3.0525,-3.0498,-3.0411,-3.0404,-3.0404,-3.0404,-3.04,-3.0467,-3.0509,-3.0587,-3.0652,-3.074,-3.0795,-3.0879,-3.0898,-3.0351,-2.9434,-2.8984,-2.8262,-2.7246,-2.6543,-2.623,-2.615,-2.5917,-2.5898,-2.6053,-2.6172,-2.5996,-2.582,-2.5903,-2.5809,-2.5647,-2.5462,-2.5434,-2.5432,-2.5444,-2.5485,-2.551,-2.552,-2.552,-2.5464,-2.5436,-2.5402,-2.5265,-2.518,-2.5042,-2.4327,-2.3584,-2.3123,-2.2477,-2.2303,-2.2166,-2.1711,-2.1345,-2.166,-2.1816,-2.1309,-2.1236,-4.0496,-4.0496,-4.0496,-4.0496,-4.0496,-4.0496,-4.061,-4.0777,-4.0797,-4.0955,-4.1152,-4.1191,-4.1191,-4.1191,-4.1191,-4.1129,-4.1033,-4.1127,-4.1127,-4.1017,-4.0914,-4.0786,-4.0665,-4.0207,-3.95,-3.8769,-3.8672,-3.8594,-3.8262,-3.7695,-3.7363,-3.7305,-3.6601,-3.6094,-3.6035,-3.6035,-3.5879,-3.5664,-3.5098,-3.4785,-3.4746,-3.4082,-3.3574,-3.3496,-3.3476,-3.3356,-3.308,-3.2978,-3.2352,-3.1042,-3.0887,-3.0852,-3.0761,-3.0817,-3.0837,-3.0721,-3.0648,-3.0571,-3.0511,-3.0436,-3.0404,-3.0404,-3.0404,-3.041,-3.0439,-3.0517,-3.0603,-3.0638,-3.0765,-3.0898,-3.0918,-3.0918,-3.082,-3.0762,-2.9922,-2.8828,-2.748,-2.7168,-2.7051,-2.6887,-2.6383,-2.6132,-2.6904,-2.7029,-2.6719,-2.6348,-2.6497,-2.6292,-2.6132,-2.5932,-2.5532,-2.5537,-2.5716,-2.5522,-2.5573,-2.5425,-2.5425,-2.5437,-2.549,-2.5563,-2.5601,-2.5556,-2.5547,-2.4859,-2.4347,-2.3879,-2.3516,-2.3281,-2.3008,-2.2616,-2.2655,-2.3023,-2.2785,-2.2176,-2.1862,-4.0496,-4.0496,-4.0496,-4.0496,-4.0496,-4.0496,-4.0649,-4.0785,-4.0836,-4.103,-4.1152,-4.1191,-4.123,-4.1191,-4.1191,-4.1171,-4.1152,-4.1172,-4.1191,-4.113,-4.1106,-4.1102,-4.1083,-4.0898,-4.0351,-3.9648,-3.9531,-3.9219,-3.8633,-3.8398,-3.8262,-3.8223,-3.7402,-3.6953,-3.6894,-3.6348,-3.6035,-3.5996,-3.582,-3.5625,-3.5605,-3.541,-3.5,-3.4394,-3.4375,-3.4004,-3.3397,-3.3164,-3.2667,-3.1718,-3.1646,-3.1333,-3.0887,-3.0893,-3.0936,-3.089,-3.0704,-3.0597,-3.0547,-3.0462,-3.0396,-3.0404,-3.039,-3.0436,-3.0467,-3.0536,-3.0625,-3.0695,-3.082,-3.0918,-3.0918,-3.0918,-3.0918,-3.0801,-3.0176,-2.9453,-2.8887,-2.8359,-2.7949,-2.7889,-2.7676,-2.7676,-2.7832,-2.793,-2.7832,-2.75,-2.7242,-2.7021,-2.694,-2.6595,-2.6284,-2.627,-2.6289,-2.5875,-2.5594,-2.5425,-2.5337,-2.5346,-2.5413,-2.5524,-2.5541,-2.5525,-2.5538,-2.5338,-2.511,-2.4705,-2.4355,-2.4082,-2.3769,-2.3555,-2.3437,-2.3535,-2.3242,-2.2789,-2.2711,-4.092,-4.1546,-4.12,-4.1258,-4.1574,-4.1604,-4.1492,-4.1407,-4.1738,-4.1538,-4.1317,-4.1562,-4.1504,-4.123,-4.1191,-4.1191,-4.1191,-4.1191,-4.1191,-4.1191,-4.1191,-4.1191,-4.1191,-4.1191,-4.0918,-4.0508,-4.0449,-4.0176,-3.9726,-3.9336,-3.916,-3.8984,-3.8219,-3.7809,-3.7773,-3.6949,-3.6482,-3.6465,-3.625,-3.6016,-3.6016,-3.6016,-3.5781,-3.5312,-3.5234,-3.4896,-3.4362,-3.4162,-3.3555,-3.2632,-3.2349,-3.2168,-3.1716,-3.1436,-3.1355,-3.1305,-3.0879,-3.0606,-3.0575,-3.0467,-3.0431,-3.0433,-3.0417,-3.0411,-3.0467,-3.0545,-3.063,-3.0659,-3.0811,-3.0898,-3.0918,-3.0918,-3.0918,-3.084,-3.043,-3.0,-2.9687,-2.9141,-2.8887,-2.8769,-2.8555,-2.8496,-2.8769,-2.8848,-2.8652,-2.8379,-2.8184,-2.8064,-2.7959,-2.7496,-2.7166,-2.7176,-2.7132,-2.6848,-2.6656,-2.6502,-2.6372,-2.6251,-2.5932,-2.5925,-2.5746,-2.5708,-2.5579,-2.5619,-2.5636,-2.5527,-2.5098,-2.4844,-2.4824,-2.457,-2.4258,-2.4102,-2.4004,-2.3611,-2.3545,-4.1689,-4.3008,-4.2258,-4.2393,-4.297,-4.3066,-4.2625,-4.2355,-4.2893,-4.2568,-4.1802,-4.2223,-4.2109,-4.1328,-4.1484,-4.1308,-4.1211,-4.1191,-4.1191,-4.1191,-4.1191,-4.1191,-4.1191,-4.1191,-4.1152,-4.1055,-4.1172,-4.1094,-4.0781,-4.0273,-4.0059,-3.9803,-3.9045,-3.8657,-3.8512,-3.7758,-3.7332,-3.707,-3.6601,-3.6172,-3.6055,-3.6016,-3.5937,-3.5859,-3.5762,-3.5697,-3.5512,-3.5361,-3.47,-3.3263,-3.3181,-3.305,-3.2923,-3.2355,-3.2133,-3.1988,-3.1507,-3.1112,-3.096,-3.1021,-3.0837,-3.0965,-3.0909,-3.0666,-3.0901,-3.1054,-3.1148,-3.122,-3.0976,-3.1035,-3.0918,-3.0918,-3.0879,-3.084,-3.082,-3.0488,-2.9941,-2.9726,-2.9746,-2.9707,-2.9023,-2.9082,-2.9414,-2.9668,-2.9492,-2.9316,-2.9111,-2.8937,-2.8796,-2.8487,-2.8206,-2.8096,-2.8039,-2.796,-2.7834,-2.7722,-2.7593,-2.7458,-2.6958,-2.67,-2.6301,-2.6121,-2.5802,-2.5664,-2.5664,-2.5664,-2.5586,-2.5508,-2.5508,-2.5449,-2.5019,-2.5195,-2.5336,-2.4684,-2.4375,-4.2758,-4.3085,-4.2912,-4.2931,-4.3085,-4.3085,-4.3042,-4.2982,-4.3292,-4.3318,-4.3103,-4.3316,-4.291,-4.2148,-4.2109,-4.1836,-4.1367,-4.1308,-4.1191,-4.1191,-4.1191,-4.1191,-4.1191,-4.1191,-4.1191,-4.1191,-4.1191,-4.1191,-4.1094,-4.0976,-4.0856,-4.0606,-3.9972,-3.9524,-3.9354,-3.8683,-3.7909,-3.7402,-3.7109,-3.668,-3.6152,-3.6094,-3.6055,-3.5996,-3.5848,-3.5752,-3.5686,-3.5566,-3.5295,-3.4905,-3.4336,-3.377,-3.3301,-3.3041,-3.2931,-3.2843,-3.2736,-3.2571,-3.2603,-3.2457,-3.2536,-3.2361,-3.2305,-3.2477,-3.2371,-3.2343,-3.247,-3.2484,-3.2134,-3.1611,-3.1191,-3.0976,-3.1016,-3.1025,-3.1011,-3.0916,-3.0577,-3.0527,-3.0527,-3.0508,-3.0391,-3.0391,-3.0547,-3.0527,-3.0391,-3.0234,-3.0,-2.9785,-2.9588,-2.9396,-2.9219,-2.9013,-2.897,-2.8872,-2.8632,-2.8575,-2.8564,-2.8408,-2.7969,-2.7619,-2.723,-2.6554,-2.6248,-2.5957,-2.5684,-2.5723,-2.5781,-2.5684,-2.5605,-2.5664,-2.5684,-2.5625,-2.5486,-2.519,-2.5074,-4.3566,-4.422,-4.3816,-4.3893,-4.4239,-4.4248,-4.4055,-4.3887,-4.4321,-4.4126,-4.3721,-4.3959,-4.3745,-4.3027,-4.2964,-4.2715,-4.2363,-4.1914,-4.1543,-4.1308,-4.1191,-4.1191,-4.1191,-4.1191,-4.1191,-4.1191,-4.1191,-4.1191,-4.1191,-4.1191,-4.109,-4.1,-4.059,-4.0391,-4.0198,-3.9515,-3.898,-3.8555,-3.8066,-3.748,-3.6758,-3.6621,-3.6328,-3.6035,-3.5808,-3.5703,-3.5689,-3.5566,-3.5515,-3.5405,-3.5078,-3.4658,-3.4179,-3.3868,-3.3697,-3.363,-3.3331,-3.3226,-3.3197,-3.3203,-3.3129,-3.3188,-3.3124,-3.3039,-3.2985,-3.302,-3.3107,-3.3108,-3.2844,-3.2453,-3.2081,-3.2051,-3.197,-3.1927,-3.1947,-3.1976,-3.1835,-3.1367,-3.0918,-3.0918,-3.084,-3.082,-3.0898,-3.0918,-3.0879,-3.0547,-3.0547,-3.0351,-3.0351,-3.0168,-3.0082,-2.9946,-2.9898,-2.9749,-2.9454,-2.9373,-2.9448,-2.9236,-2.8905,-2.8642,-2.8373,-2.755,-2.6739,-2.6504,-2.6309,-2.5937,-2.5957,-2.584,-2.5762,-2.5703,-2.5684,-2.5625,-2.5562,-2.541,-2.5361,-4.4316,-4.5537,-4.4797,-4.4913,-4.5537,-4.5537,-4.5133,-4.4705,-4.5411,-4.4993,-4.4128,-4.4665,-4.4559,-4.3976,-4.3773,-4.3761,-4.3398,-4.2969,-4.2285,-4.1836,-4.1582,-4.1523,-4.1465,-4.1328,-4.1172,-4.1172,-4.1191,-4.1191,-4.1191,-4.1191,-4.1094,-4.0996,-4.1026,-4.0863,-4.0736,-4.0361,-3.9815,-3.9551,-3.9062,-3.8379,-3.7637,-3.7461,-3.7051,-3.6348,-3.5836,-3.569,-3.565,-3.556,-3.55,-3.55,-3.55,-3.55,-3.5322,-3.4923,-3.4455,-3.4385,-3.4016,-3.3903,-3.3929,-3.3813,-3.3809,-3.3595,-3.36,-3.3529,-3.3531,-3.366,-3.3794,-3.374,-3.3659,-3.3424,-3.3317,-3.3056,-3.3071,-3.3104,-3.3193,-3.3298,-3.3057,-3.2051,-3.1562,-3.1172,-3.1055,-3.0918,-3.0918,-3.0918,-3.0918,-3.0918,-3.0918,-3.0898,-3.0859,-3.0796,-3.0586,-3.0466,-3.0353,-3.0263,-3.001,-2.9861,-2.9982,-2.9887,-2.9626,-2.9506,-2.9345,-2.8919,-2.8161,-2.7381,-2.7031,-2.6699,-2.6348,-2.623,-2.6094,-2.5859,-2.5683,-2.564,-2.5633,-2.5603,-2.5616,-4.5364,-4.5575,-4.546,-4.5479,-4.5575,-4.5594,-4.5498,-4.5456,-4.5655,-4.5695,-4.5501,-4.5609,-4.5238,-4.4746,-4.4562,-4.4164,-4.3666,-4.3378,-4.3188,-4.276,-4.236,-4.2045,-4.1917,-4.1397,-4.1146,-4.1082,-4.1106,-4.1152,-4.1172,-4.1191,-4.1035,-4.0922,-4.1026,-4.1051,-4.0916,-4.081,-4.0463,-4.0096,-3.9746,-3.9219,-3.8574,-3.8134,-3.7673,-3.6793,-3.6122,-3.5751,-3.5626,-3.5552,-3.55,-3.55,-3.55,-3.55,-3.5468,-3.5303,-3.5226,-3.5162,-3.5103,-3.4947,-3.5,-3.5297,-3.5389,-3.5338,-3.5129,-3.5111,-3.5068,-3.5019,-3.495,-3.4984,-3.464,-3.4115,-3.3287,-3.3453,-3.3316,-3.3281,-3.3426,-3.347,-3.3389,-3.3086,-3.2637,-3.2226,-3.1621,-3.0996,-3.1113,-3.1055,-3.0918,-3.0918,-3.0918,-3.0918,-3.0898,-3.0859,-3.0776,-3.0706,-3.065,-3.0594,-3.0492,-3.0385,-3.0361,-3.0296,-3.0158,-3.0128,-3.0076,-3.0195,-2.9702,-2.8679,-2.7956,-2.7559,-2.7207,-2.6827,-2.6559,-2.6404,-2.6072,-2.576,-2.5854,-2.5964,-2.5707,-4.5594,-4.5594,-4.5594,-4.5594,-4.5594,-4.5594,-4.5594,-4.5622,-4.5653,-4.5743,-4.5819,-4.5825,-4.5697,-4.5418,-4.5289,-4.478,-4.4185,-4.4106,-4.3884,-4.3374,-4.2652,-4.2266,-4.2225,-4.1464,-4.1095,-4.099,-4.0998,-4.1016,-4.0976,-4.0976,-4.092,-4.0867,-4.095,-4.0917,-4.0834,-4.0875,-4.0794,-4.0452,-4.04,-4.0073,-3.9257,-3.877,-3.7937,-3.7132,-3.6566,-3.6081,-3.5643,-3.554,-3.5488,-3.55,-3.55,-3.55,-3.55,-3.55,-3.55,-3.5509,-3.5595,-3.5666,-3.5679,-3.5836,-3.58,-3.5696,-3.5758,-3.5746,-3.5675,-3.5566,-3.5685,-3.5658,-3.5582,-3.4986,-3.4555,-3.4387,-3.4419,-3.4425,-3.4427,-3.4448,-3.4445,-3.4213,-3.384,-3.332,-3.248,-3.1875,-3.1543,-3.1387,-3.1035,-3.0918,-3.0937,-3.0976,-3.1016,-3.0898,-3.0879,-3.084,-3.0781,-3.0762,-3.0703,-3.0625,-3.0561,-3.0525,-3.0507,-3.0482,-3.0462,-3.0428,-3.025,-2.966,-2.9055,-2.8476,-2.7986,-2.758,-2.7272,-2.7064,-2.7068,-2.6952,-2.6541,-2.6284,-2.6074,-4.5594,-4.5594,-4.5594,-4.5594,-4.5594,-4.5594,-4.5594,-4.5594,-4.5594,-4.5669,-4.5783,-4.5776,-4.5783,-4.582,-4.5705,-4.5336,-4.4736,-4.4858,-4.454,-4.3956,-4.3212,-4.2766,-4.2489,-4.1873,-4.1431,-4.1324,-4.1221,-4.0952,-4.0843,-4.0843,-4.0817,-4.0796,-4.0796,-4.0781,-4.0796,-4.0824,-4.0893,-4.0957,-4.0976,-4.0644,-4.0003,-3.9146,-3.8296,-3.7484,-3.7243,-3.6795,-3.6341,-3.5958,-3.5853,-3.5769,-3.5635,-3.55,-3.55,-3.55,-3.55,-3.5508,-3.5587,-3.5614,-3.5654,-3.5794,-3.5841,-3.5694,-3.5827,-3.5802,-3.5755,-3.57,-3.5733,-3.5709,-3.5632,-3.5568,-3.5338,-3.5505,-3.548,-3.5452,-3.5451,-3.5566,-3.5438,-3.5241,-3.4968,-3.4297,-3.334,-3.2656,-3.2207,-3.2226,-3.1953,-3.1484,-3.1504,-3.1484,-3.1445,-3.0996,-3.0898,-3.0898,-3.0879,-3.0879,-3.082,-3.0703,-3.0661,-3.0628,-3.0565,-3.0521,-3.0485,-3.0448,-3.026,-3.0138,-2.9959,-2.9399,-2.8868,-2.8366,-2.8104,-2.8018,-2.8221,-2.8027,-2.7461,-2.6914,-2.6562,-4.5594,-4.5594,-4.5594,-4.5594,-4.5594,-4.5594,-4.5594,-4.5594,-4.5594,-4.568,-4.5782,-4.5696,-4.5708,-4.5756,-4.5685,-4.5569,-4.5491,-4.5457,-4.5376,-4.4945,-4.4397,-4.4024,-4.4045,-4.3481,-4.2446,-4.2009,-4.1879,-4.1422,-4.1009,-4.0861,-4.0757,-4.0742,-4.0743,-4.0775,-4.0731,-4.0738,-4.0867,-4.0962,-4.0972,-4.0874,-4.0555,-3.9854,-3.9306,-3.8813,-3.8283,-3.7756,-3.7397,-3.6887,-3.6584,-3.6481,-3.5904,-3.5577,-3.55,-3.55,-3.55,-3.5515,-3.557,-3.5611,-3.5626,-3.5746,-3.5794,-3.569,-3.5783,-3.5802,-3.5772,-3.5769,-3.5771,-3.5626,-3.5611,-3.5585,-3.5527,-3.5515,-3.5548,-3.5595,-3.5605,-3.5732,-3.5781,-3.5661,-3.5458,-3.5391,-3.4492,-3.3437,-3.2695,-3.2871,-3.293,-3.2422,-3.2051,-3.2051,-3.1894,-3.1484,-3.1191,-3.125,-3.0976,-3.0918,-3.0898,-3.0801,-3.0722,-3.0682,-3.0624,-3.0578,-3.0529,-3.0517,-3.0559,-3.0435,-3.0311,-3.0116,-2.954,-2.9123,-2.8913,-2.8895,-2.9003,-2.8711,-2.8242,-2.7715,-2.7285,-4.5152,-4.5594,-4.5594,-4.5594,-4.5594,-4.5594,-4.5594,-4.5594,-4.5594,-4.5627,-4.5673,-4.5627,-4.5635,-4.5673,-4.562,-4.5594,-4.562,-4.5665,-4.5657,-4.5458,-4.4911,-4.4511,-4.4247,-4.3673,-4.2911,-4.2828,-4.2562,-4.214,-4.1506,-4.0899,-4.0636,-4.0684,-4.0666,-4.0653,-4.0681,-4.0654,-4.0701,-4.0775,-4.0839,-4.0848,-4.0674,-4.0378,-3.9929,-3.9338,-3.8919,-3.8546,-3.8065,-3.7719,-3.745,-3.7373,-3.7026,-3.6654,-3.6308,-3.6135,-3.6038,-3.5488,-3.5528,-3.5556,-3.5591,-3.5682,-3.5686,-3.5712,-3.5789,-3.5869,-3.5812,-3.5791,-3.5756,-3.5631,-3.5568,-3.5541,-3.5508,-3.5507,-3.5541,-3.5575,-3.5596,-3.5694,-3.5802,-3.5785,-3.5703,-3.5723,-3.5625,-3.4551,-3.3633,-3.3516,-3.3535,-3.3125,-3.2832,-3.2812,-3.2578,-3.2168,-3.1914,-3.1738,-3.1328,-3.0918,-3.0898,-3.0838,-3.0791,-3.0739,-3.069,-3.0631,-3.0609,-3.0597,-3.0647,-3.062,-3.0511,-3.0281,-3.0011,-2.9953,-2.9819,-2.9777,-2.9765,-2.9453,-2.9141,-2.8926,-2.8457,-4.4489,-4.5287,-4.5498,-4.5594,-4.5594,-4.5594,-4.5594,-4.5594,-4.5594,-4.5594,-4.5594,-4.5594,-4.5594,-4.5594,-4.5594,-4.5594,-4.5594,-4.5594,-4.5594,-4.5344,-4.5054,-4.4808,-4.4666,-4.4079,-4.3721,-4.3471,-4.3432,-4.2941,-4.2186,-4.1586,-4.1198,-4.0688,-4.0581,-4.0554,-4.0589,-4.0595,-4.0596,-4.0718,-4.0799,-4.0781,-4.0699,-4.0709,-4.0269,-3.9844,-3.9515,-3.9296,-3.8719,-3.8373,-3.8315,-3.8296,-3.7969,-3.7507,-3.7123,-3.7,-3.6635,-3.6135,-3.5931,-3.5778,-3.5698,-3.5626,-3.565,-3.5694,-3.5809,-3.5905,-3.5913,-3.5807,-3.5689,-3.5639,-3.5546,-3.5509,-3.55,-3.55,-3.5528,-3.5522,-3.5534,-3.5626,-3.5717,-3.5739,-3.582,-3.5859,-3.5801,-3.5664,-3.4863,-3.4394,-3.4082,-3.3769,-3.3633,-3.3584,-3.3262,-3.2871,-3.2676,-3.2461,-3.1894,-3.1445,-3.1348,-3.123,-3.1055,-3.0859,-3.082,-3.0723,-3.0723,-3.0723,-3.0741,-3.0708,-3.0664,-3.0613,-3.0462,-3.0603,-3.0723,-3.0488,-3.0312,-3.0312,-3.0117,-2.9883,-2.9336,-4.3662,-4.447,-4.5248,-4.5575,-4.5594,-4.5594,-4.5594,-4.5594,-4.5594,-4.5594,-4.5594,-4.5594,-4.5594,-4.5594,-4.5594,-4.5594,-4.5594,-4.5594,-4.5594,-4.5575,-4.5518,-4.5381,-4.5263,-4.5101,-4.4872,-4.4339,-4.4209,-4.3767,-4.3162,-4.2854,-4.187,-4.0773,-4.0993,-4.0685,-4.0662,-4.0854,-4.0668,-4.0719,-4.0713,-4.0742,-4.069,-4.0681,-4.0546,-4.0426,-4.0381,-4.0362,-4.0265,-3.9573,-3.9188,-3.9188,-3.87,-3.8219,-3.7988,-3.7911,-3.7488,-3.6853,-3.6442,-3.6273,-3.6082,-3.5748,-3.5591,-3.5668,-3.5788,-3.5936,-3.5972,-3.5817,-3.571,-3.5659,-3.556,-3.5508,-3.55,-3.5494,-3.5522,-3.5522,-3.554,-3.5635,-3.5698,-3.5736,-3.582,-3.5957,-3.5918,-3.5781,-3.5678,-3.5105,-3.4811,-3.4503,-3.4441,-3.4414,-3.4004,-3.3633,-3.3457,-3.3164,-3.2578,-3.2207,-3.207,-3.1894,-3.1641,-3.1367,-3.123,-3.1035,-3.0859,-3.0859,-3.082,-3.084,-3.0801,-3.0859,-3.0878,-3.0835,-3.082,-3.0879,-3.082,-3.0684,-3.0508,-3.0234,-2.959,-4.2797,-4.3624,-4.4451,-4.5114,-4.5594,-4.5594,-4.5594,-4.5594,-4.5594,-4.5594,-4.5594,-4.5594,-4.5594,-4.5594,-4.5594,-4.5594,-4.5594,-4.5594,-4.5594,-4.5594,-4.5594,-4.5594,-4.5594,-4.5556,-4.5383,-4.5114,-4.5037,-4.4652,-4.3912,-4.3855,-4.322,-4.2412,-4.2104,-4.2124,-4.2027,-4.147,-4.1108,-4.0709,-4.0655,-4.0623,-4.0577,-4.0561,-4.0552,-4.0512,-4.0496,-4.0496,-4.0419,-4.0208,-4.0073,-3.9938,-3.9631,-3.9238,-3.8854,-3.8803,-3.8334,-3.7584,-3.7161,-3.6895,-3.6768,-3.6208,-3.5585,-3.5679,-3.5799,-3.6017,-3.6191,-3.5867,-3.5743,-3.5663,-3.5621,-3.561,-3.5519,-3.55,-3.5501,-3.5509,-3.5608,-3.5718,-3.5686,-3.5713,-3.5801,-3.5937,-3.5957,-3.5879,-3.5804,-3.5696,-3.5463,-3.5267,-3.5256,-3.5156,-3.4746,-3.4434,-3.4277,-3.4004,-3.3418,-3.3047,-3.291,-3.2578,-3.2207,-3.1953,-3.1699,-3.1465,-3.125,-3.0918,-3.0879,-3.0918,-3.0918,-3.0898,-3.0898,-3.0859,-3.0879,-3.0898,-3.0918,-3.0879,-3.0703,-3.0547,-3.0059,-4.2085,-4.3124,-4.3701,-4.4586,-4.5537,-4.5594,-4.5594,-4.5594,-4.5594,-4.5594,-4.5594,-4.5594,-4.5594,-4.5594,-4.5594,-4.5594,-4.5594,-4.5594,-4.5594,-4.5594,-4.5594,-4.5594,-4.5612,-4.5635,-4.5602,-4.5618,-4.5594,-4.5205,-4.4729,-4.471,-4.4363,-4.4008,-4.3797,-4.3643,-4.2874,-4.2527,-4.1854,-4.1412,-4.0989,-4.0912,-4.092,-4.0639,-4.0504,-4.0496,-4.0496,-4.0496,-4.0496,-4.04,-4.0419,-4.0419,-4.0323,-4.015,-3.9861,-3.9554,-3.9188,-3.8507,-3.795,-3.7719,-3.7534,-3.7128,-3.6342,-3.6666,-3.6723,-3.6816,-3.665,-3.6358,-3.6242,-3.616,-3.6005,-3.5865,-3.5904,-3.6192,-3.6173,-3.6265,-3.6092,-3.6091,-3.581,-3.5726,-3.5825,-3.5937,-3.5913,-3.5896,-3.5759,-3.5694,-3.5659,-3.5535,-3.5574,-3.5586,-3.5527,-3.5273,-3.5156,-3.4805,-3.4336,-3.4023,-3.3769,-3.3301,-3.2871,-3.2734,-3.2441,-3.2051,-3.1758,-3.1426,-3.1035,-3.0918,-3.0918,-3.0918,-3.0898,-3.0879,-3.0898,-3.0918,-3.0918,-3.0918,-3.0879,-3.0742,-3.0742,-4.1527,-4.3028,-4.3143,-4.4085,-4.546,-4.5594,-4.5594,-4.5594,-4.5594,-4.5594,-4.5594,-4.5594,-4.5594,-4.5594,-4.5594,-4.5594,-4.5594,-4.5594,-4.5594,-4.5594,-4.5627,-4.562,-4.5657,-4.5696,-4.572,-4.5657,-4.5665,-4.5623,-4.546,-4.5344,-4.5306,-4.5306,-4.4998,-4.4536,-4.3258,-4.3124,-4.3047,-4.2874,-4.2104,-4.1835,-4.147,-4.0989,-4.0739,-4.0496,-4.0496,-4.0496,-4.0496,-4.0496,-4.0496,-4.0496,-4.0496,-4.04,-4.0323,-4.0304,-3.9958,-3.9323,-3.915,-3.8746,-3.8111,-3.8028,-3.8014,-3.7848,-3.7684,-3.7902,-3.8076,-3.765,-3.6961,-3.6927,-3.6808,-3.6701,-3.6942,-3.7231,-3.7077,-3.6923,-3.6731,-3.6607,-3.6336,-3.6122,-3.6315,-3.6202,-3.5994,-3.5827,-3.569,-3.5597,-3.5674,-3.5693,-3.5809,-3.5898,-3.5937,-3.5879,-3.5664,-3.5469,-3.5059,-3.4902,-3.4551,-3.3945,-3.3555,-3.3437,-3.3242,-3.2891,-3.2539,-3.2246,-3.1777,-3.1211,-3.1094,-3.1269,-3.1094,-3.0918,-3.0918,-3.0918,-3.0918,-3.0918,-3.0918,-3.0918,-3.0879,-4.1162,-4.2297,-4.2854,-4.372,-4.4759,-4.5364,-4.5594,-4.5594,-4.5594,-4.5594,-4.5594,-4.5594,-4.5594,-4.5594,-4.5594,-4.5594,-4.5594,-4.5594,-4.5594,-4.5612,-4.5673,-4.5737,-4.5775,-4.577,-4.582,-4.5769,-4.5796,-4.5725,-4.5556,-4.5594,-4.5594,-4.5594,-4.5518,-4.4989,-4.4201,-4.3835,-4.3701,-4.3162,-4.272,-4.2404,-4.1865,-4.1508,-4.1104,-4.0612,-4.0573,-4.0554,-4.0516,-4.0496,-4.0496,-4.0496,-4.0496,-4.0496,-4.0496,-4.0496,-4.0362,-3.9938,-3.9746,-3.9207,-3.9073,-3.9164,-3.9116,-3.8705,-3.8452,-3.8568,-3.8324,-3.8143,-3.786,-3.7749,-3.7642,-3.7548,-3.768,-3.7777,-3.768,-3.7565,-3.7453,-3.7458,-3.7286,-3.7105,-3.7025,-3.6664,-3.6387,-3.5904,-3.5618,-3.5616,-3.5675,-3.5733,-3.5819,-3.59,-3.5957,-3.5996,-3.5879,-3.5879,-3.5684,-3.5625,-3.5351,-3.4805,-3.4434,-3.4297,-3.4121,-3.3848,-3.3496,-3.3086,-3.2559,-3.2012,-3.1797,-3.1621,-3.123,-3.0918,-3.0918,-3.0918,-3.0918,-3.0918,-3.0918,-3.0918,-3.0898,-4.1008,-4.1873,-4.272,-4.3566,-4.4374,-4.5229,-4.5594,-4.5594,-4.5594,-4.5594,-4.5594,-4.5594,-4.5594,-4.5594,-4.5594,-4.5594,-4.5594,-4.5594,-4.5594,-4.5612,-4.5669,-4.57,-4.5742,-4.5819,-4.582,-4.5816,-4.579,-4.5747,-4.568,-4.561,-4.5594,-4.5594,-4.5594,-4.5306,-4.4855,-4.4682,-4.4575,-4.4105,-4.3797,-4.3316,-4.2835,-4.2374,-4.1816,-4.1258,-4.0969,-4.0873,-4.0612,-4.0496,-4.0496,-4.0496,-4.0496,-4.0496,-4.0496,-4.0496,-4.0496,-4.0285,-4.0112,-3.9727,-3.9881,-4.0023,-3.9795,-3.9239,-3.9114,-3.9174,-3.9046,-3.8917,-3.8709,-3.8568,-3.8472,-3.8448,-3.843,-3.8469,-3.8623,-3.8527,-3.8343,-3.836,-3.8041,-3.7839,-3.7514,-3.7155,-3.669,-3.614,-3.559,-3.5645,-3.5693,-3.5766,-3.5828,-3.5918,-3.5976,-3.5996,-3.6016,-3.5996,-3.5996,-3.5879,-3.584,-3.5742,-3.541,-3.5195,-3.4941,-3.4707,-3.4297,-3.3848,-3.332,-3.2773,-3.2305,-3.1816,-3.1211,-3.0918,-3.0918,-3.0918,-3.0918,-3.0918,-3.0918,-3.0918,-3.0918,-4.0997,-4.1854,-4.2701,-4.3489,-4.4316,-4.519,-4.5594,-4.5594,-4.5594,-4.5594,-4.5594,-4.5594,-4.5594,-4.5594,-4.5594,-4.5594,-4.5594,-4.5594,-4.5594,-4.5612,-4.5668,-4.566,-4.5692,-4.5757,-4.5802,-4.5803,-4.579,-4.5789,-4.5775,-4.5648,-4.5594,-4.5594,-4.5594,-4.5479,-4.5421,-4.5364,-4.5306,-4.4979,-4.4624,-4.4182,-4.3758,-4.3393,-4.2681,-4.2066,-4.1681,-4.1277,-4.0912,-4.0612,-4.0535,-4.0496,-4.0496,-4.0496,-4.0496,-4.0496,-4.0496,-4.0477,-4.0439,-4.04,-4.0381,-4.0477,-4.0439,-4.0063,-4.0333,-4.0604,-4.0379,-3.9781,-3.9544,-3.9411,-3.9345,-3.9321,-3.9323,-3.9631,-3.99,-3.9651,-3.9367,-3.9104,-3.8712,-3.8381,-3.8049,-3.7631,-3.7113,-3.6523,-3.5718,-3.5591,-3.5807,-3.5772,-3.584,-3.5937,-3.5996,-3.5996,-3.6016,-3.6016,-3.6016,-3.6016,-3.6016,-3.6016,-3.5937,-3.5566,-3.5644,-3.5449,-3.5019,-3.4629,-3.4219,-3.3613,-3.2734,-3.207,-3.1562,-3.1172,-3.0918,-3.0918,-3.0918,-3.0918,-3.0918,-3.0918,-3.0918,-4.0631,-4.0969,-4.1816,-4.2662,-4.3605,-4.4998,-4.5594,-4.5594,-4.5594,-4.5594,-4.5594,-4.5594,-4.5594,-4.5594,-4.5594,-4.5594,-4.5594,-4.5594,-4.5594,-4.5629,-4.5665,-4.5723,-4.5769,-4.5802,-4.5832,-4.5828,-4.5802,-4.5754,-4.568,-4.5603,-4.5594,-4.5594,-4.5594,-4.5594,-4.5594,-4.5594,-4.5594,-4.5537,-4.522,-4.4874,-4.4528,-4.4105,-4.3431,-4.2893,-4.2239,-4.1816,-4.1489,-4.0843,-4.0669,-4.0554,-4.0516,-4.0496,-4.0496,-4.0496,-4.0496,-4.0496,-4.0496,-4.0496,-4.0496,-4.0496,-4.0496,-4.0496,-4.0545,-4.0552,-4.05,-4.0397,-4.0172,-4.0061,-4.0005,-3.9934,-3.9938,-4.0169,-4.0342,-4.0176,-3.9978,-3.9863,-3.9527,-3.9294,-3.8942,-3.8393,-3.7883,-3.6867,-3.6068,-3.5791,-3.5966,-3.585,-3.584,-3.5957,-3.6016,-3.6016,-3.6016,-3.6016,-3.6016,-3.6016,-3.6016,-3.6016,-3.6016,-3.5976,-3.5976,-3.5976,-3.5684,-3.5312,-3.5078,-3.4394,-3.3379,-3.2617,-3.2012,-3.1621,-3.1211,-3.0976,-3.0937,-3.0918,-3.0918,-3.0918,-3.0918,-4.0496,-4.0631,-4.1431,-4.247,-4.3643,-4.4671,-4.5248,-4.5537,-4.5594,-4.5594,-4.5594,-4.5594,-4.5594,-4.5594,-4.5594,-4.5594,-4.5594,-4.5594,-4.5594,-4.561,-4.5677,-4.5696,-4.5742,-4.5764,-4.577,-4.5776,-4.5754,-4.5708,-4.566,-4.5612,-4.5594,-4.5594,-4.5594,-4.5594,-4.5594,-4.5594,-4.5594,-4.5594,-4.5498,-4.5248,-4.4989,-4.4739,-4.4297,-4.3643,-4.2931,-4.2662,-4.222,-4.147,-4.1085,-4.09,-4.0816,-4.0496,-4.0496,-4.0496,-4.0496,-4.0496,-4.0496,-4.0496,-4.0496,-4.0496,-4.0496,-4.0496,-4.0496,-4.0504,-4.0515,-4.0477,-4.0436,-4.0411,-4.0454,-4.0458,-4.0477,-4.0496,-4.0496,-4.0477,-4.0531,-4.0602,-4.0461,-4.0295,-3.9831,-3.9296,-3.8438,-3.7392,-3.6729,-3.6405,-3.6219,-3.6273,-3.6152,-3.5976,-3.6016,-3.6016,-3.6016,-3.6016,-3.6016,-3.6016,-3.6016,-3.5996,-3.5996,-3.5996,-3.5996,-3.5996,-3.6016,-3.584,-3.543,-3.4766,-3.3965,-3.332,-3.2773,-3.2012,-3.1543,-3.1387,-3.1191,-3.1035,-3.0996,-3.0918,-3.0918,-4.0496,-4.0573,-4.1431,-4.2662,-4.4085,-4.4278,-4.4816,-4.5556,-4.5594,-4.5594,-4.5594,-4.5594,-4.5594,-4.5594,-4.5594,-4.5594,-4.5594,-4.5594,-4.5594,-4.5594,-4.561,-4.5627,-4.5618,-4.5601,-4.5673,-4.5696,-4.5692,-4.5657,-4.5696,-4.5665,-4.5594,-4.5594,-4.5594,-4.5594,-4.5594,-4.5594,-4.5594,-4.5594,-4.5594,-4.5479,-4.5518,-4.5421,-4.5248,-4.4536,-4.4143,-4.3874,-4.3143,-4.2489,-4.1904,-4.1643,-4.1219,-4.0739,-4.0516,-4.0496,-4.0496,-4.0496,-4.0496,-4.0496,-4.0496,-4.0496,-4.0496,-4.0496,-4.0496,-4.0496,-4.0512,-4.0527,-4.0512,-4.0512,-4.0496,-4.0496,-4.0496,-4.0496,-4.0496,-4.0512,-4.0554,-4.0642,-4.0615,-4.0437,-4.0126,-3.958,-3.8903,-3.7928,-3.7462,-3.7142,-3.6848,-3.6845,-3.666,-3.6328,-3.6055,-3.6055,-3.6035,-3.6035,-3.5996,-3.5976,-3.5976,-3.5976,-3.5976,-3.5996,-3.5996,-3.6016,-3.6016,-3.5879,-3.5723,-3.5117,-3.4531,-3.4141,-3.3594,-3.2851,-3.2305,-3.2207,-3.1914,-3.1328,-3.1133,-3.1152,-3.0976,-4.0496,-4.0593,-4.145,-4.2431,-4.3412,-4.4047,-4.4778,-4.5575,-4.5594,-4.5594,-4.5594,-4.5594,-4.5594,-4.5594,-4.5594,-4.5594,-4.5594,-4.5594,-4.5594,-4.5594,-4.5594,-4.5594,-4.5594,-4.5594,-4.5618,-4.5618,-4.5629,-4.562,-4.5651,-4.561,-4.5594,-4.5594,-4.5594,-4.5594,-4.5594,-4.5594,-4.5594,-4.5594,-4.5594,-4.5594,-4.5594,-4.5594,-4.5402,-4.5056,-4.4797,-4.4382,-4.3758,-4.3258,-4.2912,-4.2662,-4.1912,-4.1239,-4.0554,-4.0535,-4.0516,-4.0496,-4.0496,-4.0496,-4.0496,-4.0496,-4.0496,-4.0496,-4.0496,-4.0496,-4.0496,-4.0496,-4.0496,-4.0496,-4.0496,-4.0496,-4.0496,-4.0496,-4.0496,-4.0519,-4.053,-4.061,-4.0704,-4.0516,-4.0297,-3.9804,-3.9224,-3.8779,-3.8291,-3.7914,-3.7599,-3.7381,-3.7212,-3.6894,-3.6328,-3.6133,-3.6094,-3.6074,-3.5957,-3.5937,-3.5941,-3.5944,-3.5947,-3.597,-3.5976,-3.5996,-3.6016,-3.5937,-3.582,-3.5605,-3.5195,-3.4805,-3.4336,-3.3672,-3.3242,-3.3105,-3.2734,-3.2207,-3.1894,-3.1855,-3.1426,-4.0496,-4.0573,-4.1008,-4.195,-4.3066,-4.3605,-4.4451,-4.546,-4.5594,-4.5594,-4.5594,-4.5594,-4.5594,-4.5594,-4.5594,-4.5594,-4.5594,-4.5594,-4.5594,-4.5594,-4.5594,-4.5594,-4.5594,-4.5594,-4.5603,-4.5594,-4.5594,-4.5594,-4.5594,-4.5594,-4.5594,-4.5594,-4.5594,-4.5594,-4.5594,-4.5594,-4.5594,-4.5594,-4.5594,-4.5594,-4.5594,-4.5594,-4.5594,-4.5364,-4.519,-4.4844,-4.4594,-4.4124,-4.3758,-4.3431,-4.2797,-4.197,-4.1373,-4.1162,-4.0881,-4.0631,-4.0496,-4.0496,-4.0496,-4.0496,-4.0496,-4.0496,-4.0496,-4.0496,-4.0496,-4.0496,-4.0496,-4.0496,-4.0496,-4.0496,-4.0496,-4.0496,-4.0496,-4.0512,-4.0519,-4.0554,-4.063,-4.0571,-4.0436,-4.0221,-3.9853,-3.9776,-3.9311,-3.891,-3.8617,-3.8481,-3.8227,-3.7518,-3.6934,-3.6387,-3.6289,-3.6133,-3.6055,-3.5937,-3.5911,-3.5911,-3.5911,-3.5917,-3.5945,-3.5976,-3.5996,-3.6016,-3.5937,-3.5762,-3.5625,-3.5508,-3.5,-3.4414,-3.4141,-3.3984,-3.3594,-3.3125,-3.2851,-3.2539,-3.209,-4.0496,-4.0496,-4.0516,-4.142,-4.2835,-4.3085,-4.397,-4.5267,-4.5556,-4.5594,-4.5594,-4.5594,-4.5594,-4.5594,-4.5594,-4.5594,-4.5594,-4.5594,-4.5594,-4.5594,-4.5594,-4.5594,-4.5594,-4.5594,-4.5594,-4.5594,-4.5594,-4.5594,-4.5594,-4.5594,-4.5594,-4.5594,-4.5594,-4.5594,-4.5594,-4.5594,-4.5594,-4.5594,-4.5594,-4.5594,-4.5594,-4.5594,-4.5594,-4.5594,-4.5594,-4.5594,-4.5344,-4.5017,-4.4517,-4.4162,-4.3682,-4.2854,-4.2124,-4.1739,-4.1316,-4.0989,-4.0573,-4.0535,-4.0496,-4.0496,-4.0496,-4.0496,-4.0496,-4.0496,-4.0496,-4.0496,-4.0496,-4.0496,-4.0496,-4.0496,-4.0496,-4.0496,-4.0496,-4.0496,-4.0496,-4.0496,-4.0559,-4.0603,-4.0521,-4.0454,-4.0427,-4.04,-4.0152,-3.9747,-3.9594,-3.947,-3.9054,-3.8315,-3.7637,-3.7109,-3.6777,-3.6465,-3.6191,-3.6074,-3.5918,-3.5882,-3.5882,-3.5913,-3.5942,-3.597,-3.5976,-3.5996,-3.6016,-3.5996,-3.5879,-3.5781,-3.5664,-3.5234,-3.5019,-3.4785,-3.4648,-3.4258,-3.3691,-3.332,-3.2793,-4.0496,-4.0496,-4.0496,-4.1131,-4.2085,-4.2777,-4.3662,-4.4575,-4.5306,-4.5594,-4.5594,-4.5594,-4.5594,-4.5594,-4.5594,-4.5594,-4.5594,-4.5594,-4.5594,-4.5594,-4.5594,-4.5594,-4.5594,-4.5594,-4.5594,-4.5594,-4.5594,-4.5594,-4.5594,-4.5594,-4.5594,-4.5594,-4.5594,-4.5594,-4.5594,-4.5594,-4.5594,-4.5594,-4.5594,-4.5594,-4.5594,-4.5594,-4.5594,-4.5594,-4.5594,-4.5594,-4.5518,-4.546,-4.5383,-4.5105,-4.4547,-4.3701,-4.3008,-4.2374,-4.1893,-4.1373,-4.095,-4.0631,-4.0593,-4.0516,-4.0496,-4.0496,-4.0496,-4.0496,-4.0496,-4.0496,-4.0496,-4.0496,-4.0496,-4.0496,-4.0496,-4.0496,-4.0496,-4.0496,-4.0496,-4.0496,-4.0534,-4.053,-4.05,-4.0477,-4.0477,-4.0458,-4.0416,-4.0159,-4.0068,-3.9924,-3.9747,-3.9043,-3.8457,-3.791,-3.7363,-3.6875,-3.6465,-3.6113,-3.591,-3.5884,-3.5885,-3.5913,-3.5937,-3.5976,-3.5996,-3.6016,-3.6016,-3.6016,-3.6016,-3.5937,-3.582,-3.5703,-3.5703,-3.5508,-3.5684,-3.5449,-3.4766,-3.4121,-3.3594]},{"header":{"parameterUnit":"m.s-1","parameterCategory":1,"la1":31.0,"la2":29.5877,"lo1":-88.7671,"lo2":-86.6584,"dy":0.0162,"dx":0.0185,"nx":115,"ny":88,"refTime":"2026-03-09T00:00:00:Z","depth":0,"parameterNumber":3,"parameterNumberName":"V-component_of_WINDS"},"data":[0.0,0.0,0.0,0.0,0.0,0.0,0.0,0.0,0.0,0.0,0.0,0.0,0.0,0.0,0.0,0.0,0.0,0.0,0.0,0.0,0.0,0.0,0.0,0.0,0.0,0.0,0.0,0.0,0.0,0.0,0.0,0.0,0.0,0.0,0.0,0.0,0.0,0.0,0.0,0.0,0.0,0.0,0.0,0.0,0.0,0.0,0.0,0.0,0.0,0.0,0.0,0.0,0.0,0.0,0.0,0.0,0.0,0.0,0.0,0.0,0.0,0.0,0.0,0.0,0.0,0.0,0.0,0.0,0.0,0.0,0.0,0.0,0.0,0.0,0.0,0.0,0.0,0.0,0.0,0.0,0.0,0.0,0.0,0.0,0.0,0.0,0.0,0.0,0.0,0.0,0.0,0.0,0.0,0.0,0.0,0.0,0.0,0.0,0.0,0.0,0.0,0.0,0.0,0.0,0.0,0.0,0.0,0.0,0.0,0.0,0.0,0.0,0.0,0.0,0.0,0.0,0.0,0.0,0.0,0.0,0.0,0.0,0.0,0.0,0.0,0.0,0.0,0.0,0.0,0.0,0.0,0.0,0.0,0.0,0.0,0.0,0.0,0.0,0.0,0.0,0.0,0.0,0.0,0.0,0.0,0.0,0.0,0.0,0.0,0.0,0.0,0.0,0.0,0.0,0.0,0.0,0.0,0.0,0.0,0.0,0.0,0.0,0.0,0.0,0.0,0.0,0.0,0.0,0.0,0.0,0.0,0.0,0.0,0.0,0.0,0.0,0.0,0.0,0.0,0.0,0.0,0.0,0.0,0.0,0.0,0.0,0.0,0.0,0.0,0.0,0.0,0.0,0.0,0.0,0.0,0.0,0.0,0.0,0.0,0.0,0.0,0.0,0.0,0.0,0.0,0.0,0.0,0.0,0.0,0.0,0.0,0.0,0.0,0.0,0.0,0.0,0.0,0.0,0.0,0.0,0.0,0.0,0.0,0.0,0.0,0.0,0.0,0.0,0.0,0.0,0.0,0.0,0.0,0.0,0.0,0.0,0.0,0.0,0.0,0.0,0.0,0.0,0.0,0.0,0.0,0.0,0.0,0.0,0.0,0.0,0.0,0.0,0.0,0.0,0.0,0.0,0.0,0.0,0.0,0.0,0.0,0.0,0.0,0.0,0.0,0.0,0.0,0.0,0.0,0.0,0.0,0.0,0.0,0.0,0.0,0.0,0.0,0.0,0.0,0.0,0.0,0.0,0.0,0.0,0.0,0.0,0.0,0.0,0.0,0.0,0.0,0.0,0.0,0.0,0.0,0.0,0.0,0.0,0.0,0.0,0.0,0.0,0.0,0.0,0.0,0.0,0.0,0.0,0.0,0.0,0.0,0.0,0.0,0.0,0.0,0.0,0.0,0.0,0.0,0.0,0.0,0.0,0.0,0.0,0.0,0.0,0.0,0.0,0.0,0.0,0.0,0.0,0.0,0.0,0.0,0.0,0.0,0.0,0.0,0.0,0.0,0.0,0.0,0.0,0.0,0.0,0.0,0.0,0.0,0.0,0.0,0.0,0.0,0.0,0.0,0.0,0.0,0.0,0.0,0.0,0.0,0.0,0.0,0.0,0.0,0.0,0.0,0.0,0.0,0.0,0.0,0.0,0.0,0.0,0.0,0.0,0.0,0.0,0.0,0.0,0.0,0.0,0.0,0.0,0.0,0.0,0.0,0.0,0.0,0.0,0.0,0.0,0.0,0.0,0.0,0.0,0.0,0.0,0.0,0.0,0.0,0.0,0.0,0.0,0.0,0.0,0.0,0.0,0.0,0.0,0.0,0.0,0.0,0.0,0.0,0.0,0.0,0.0,0.0,0.0,0.0,0.0,0.0,0.0,0.0,0.0,0.0,0.0,0.0,0.0,0.0,0.0,0.0,0.0,0.0,0.0,0.0,0.0,0.0,0.0,0.0,0.0,0.0,0.0,0.0,0.0,0.0,0.0,0.0,0.0,0.0,0.0,0.0,0.0,0.0,0.0,0.0,0.0,0.0,0.0,0.0,0.0,0.0,0.0,0.0,0.0,0.0,0.0,0.0,0.0,0.0,0.0,0.0,0.0,0.0,0.0,0.0,0.0,0.0,0.0,0.0,0.0,0.0,0.0,0.0,0.0,0.0,0.0,0.0,0.0,0.0,0.0,0.0,0.0,0.0,0.0,0.0,0.0,0.0,0.0,0.0,0.0,0.0,0.0,0.0,0.0,0.0,0.0,0.0,0.0,0.0,0.0,0.0,0.0,0.0,0.0,0.0,0.0,0.0,0.0,0.0,0.0,0.0,0.0,0.0,0.0,0.0,0.0,0.0,0.0,0.0,0.0,0.0,0.0,0.0,0.0,0.0,0.0,0.0,0.0,0.0,0.0,0.0,0.0,0.0,0.0,0.0,0.0,0.0,0.0,0.0,0.0,0.0,0.0,0.0,0.0,0.0,0.0,0.0,0.0,0.0,0.0,0.0,0.0,0.0,0.0,0.0,0.0,0.0,0.0,0.0,0.0,0.0,0.0,0.0,0.0,0.0,0.0,0.0,0.0,0.0,0.0,0.0,0.0,0.0,0.0,0.0,0.0,0.0,0.0,0.0,0.0,0.0,0.0,0.0,0.0,0.0,0.0,0.0,0.0,0.0,0.0,0.0,0.0,0.0,0.0,0.0,0.0,0.0,0.0,0.0,0.0,0.0,0.0,0.0,0.0,0.0,0.0,0.0,0.0,0.0,0.0,0.0,0.0,0.0,0.0,0.0,0.0,0.0,0.0,0.0,0.0,0.0,0.0,0.0,0.0,0.0,0.0,0.0,0.0,0.0,0.0,0.0,0.0,0.0,0.0,0.0,0.0,0.0,0.0,0.0,0.0,0.0,0.0,0.0,0.0,0.0,0.0,0.0,0.0,0.0,0.0,0.0,0.0,0.0,0.0,0.0,0.0,0.0,0.0,0.0,0.0,0.0,0.0,0.0,0.0,0.0,0.0,0.0,0.0,0.0,0.0,0.0,0.0,0.0,0.0,0.0,0.0,0.0,0.0,0.0,0.0,0.0,0.0,0.0,0.0,0.0,0.0,0.0,0.0,0.0,0.0,0.0,0.0,0.0,0.0,0.0,0.0,0.0,0.0,0.0,0.0,0.0,0.0,0.0,0.0,0.0,0.0,0.0,0.0,0.0,0.0,0.0,0.0,0.0,0.0,0.0,0.0,0.0,0.0,0.0,0.0,0.0,0.0,0.0,0.0,0.0,0.0,0.0,0.0,0.0,0.0,0.0,0.0,0.0,0.0,0.0,0.0,0.0,0.0,0.0,0.0,0.0,0.0,0.0,0.0,0.0,0.0,0.0,0.0,0.0,0.0,0.0,0.0,0.0,0.0,0.0,0.0,0.0,0.0,0.0,0.0,0.0,0.0,0.0,0.0,0.0,0.0,0.0,0.0,0.0,0.0,0.0,0.0,0.0,0.0,0.0,0.0,0.0,0.0,0.0,0.0,0.0,0.0,0.0,0.0,0.0,0.0,0.0,0.0,0.0,0.0,0.0,0.0,0.0,0.0,0.0,0.0,0.0,0.0,0.0,0.0,0.0,0.0,0.0,0.0,0.0,0.0,0.0,0.0,0.0,0.0,0.0,0.0,0.0,0.0,0.0,0.0,0.0,0.0,0.0,0.0,0.0,0.0,0.0,0.0,0.0,0.0,0.0,0.0,0.0,0.0,0.0,0.0,0.0,0.0,0.0,0.0,0.0,0.0,0.0,0.0,0.0,0.0,0.0,0.0,0.0,0.0,0.0,0.0,0.0,0.0,0.0,0.0,0.0,0.0,0.0,0.0,0.0,0.0,0.0,0.0,0.0,0.0,0.0,0.0,0.0,0.0,0.0,0.0,0.0,0.0,0.0,0.0,0.0,0.0,0.0,0.0,0.0,0.0,0.0,0.0,0.0,0.0,0.0,0.0,0.0,0.0,0.0,0.0,0.0,0.0,0.0,0.0,0.0,0.0,0.0,0.0,0.0,0.0,0.0,0.0,0.0,0.0,0.0,0.0,0.0,0.0,0.0,0.0,0.0,0.0,0.0,0.0,0.0,0.0,0.0,0.0,0.0,0.0,0.0,0.0,0.0,0.0,0.0,0.0,0.0,0.0,0.0,0.0,0.0,0.0,0.0,0.0,0.0,0.0,0.0,0.0,0.0,0.0,0.0,0.0,0.0,0.0,0.0,0.0,0.0,0.0,0.0,0.0,0.0,0.0,0.0,0.0,0.0,0.0,-0.0699,0.0,0.0,0.0,0.0,0.0,0.0,0.0,0.0,0.0,0.0,0.0,0.0,0.0,0.0,0.0,0.0,0.0,0.0,0.0,0.0,0.0,0.0,0.0,0.0,0.0,0.0,0.0,0.0,0.0,0.0,0.0,0.0,0.0,0.0,0.0,0.0,0.0,0.0,0.0,0.0,0.0,0.0,0.0,0.0,0.0,0.0,0.0,0.0,0.0,0.0,0.0,0.0,0.0,0.0,0.0,0.0,0.0,0.0,0.0,0.0,0.0,0.0,0.0,0.0,0.0,0.0,0.0,0.0,0.0,0.0,0.0,0.0,0.0,0.0,0.0,0.0,0.0,0.0,0.0,0.0,0.0,0.0,0.0,0.0,0.0,0.0,0.0,0.0,0.0,0.0,0.0,0.0,0.0,0.0,0.0,0.0,0.0,0.0,0.0,0.0,0.0,0.0,0.0,0.0,0.0,0.0,0.0,0.0,0.0,0.0,-0.0284,-0.0229,-0.0199,-0.0477,-0.1002,0.0,0.0,0.0,0.0,0.0,0.0,0.0,0.0,0.0,0.0,0.0,0.0,0.0,0.0,0.0,0.0,0.0,0.0,0.0,0.0,0.0,0.0,0.0,0.0,0.0,0.0,0.0,0.0,0.0,0.0,0.0,0.0,0.0,0.0,0.0,0.0,0.0,0.0,0.0,0.0,0.0,0.0,0.0,0.0,0.0,0.0,0.0,0.0,0.0,0.0,0.0,0.0,0.0,0.0,0.0,0.0,0.0,0.0,0.0,0.0,0.0,0.0,0.0,0.0,0.0,0.0,0.0,0.0,0.0,0.0,0.0,0.0,0.0,0.0,0.0,0.0,0.0,0.0,0.0,0.0,0.0,0.0,0.0,0.0,0.0,0.0,0.0,0.0,0.0,0.0,0.0,0.0,0.0,0.0,0.0,0.0,0.0,0.0,0.0,0.0,0.0,0.0,0.0,0.0,0.0,0.0,0.0,0.0,0.0,0.0,0.0,0.0,-0.0475,-0.0811,-0.1433,0.0,0.0,0.0,0.0,0.0,0.0,0.0,0.0,0.0,0.0,0.0,0.0,0.0,0.0,0.0,0.0,0.0,0.0,0.0,0.0,0.0,0.0,0.0,0.0,0.0,0.0,0.0,0.0,0.0,0.0,0.0,0.0,0.0,0.0,0.0,0.0,0.0,0.0,0.0,0.0,0.0,0.0,0.0,0.0,0.0,0.0,0.0,0.0,0.0,0.0,0.0,0.0,0.0,0.0,0.0,0.0,0.0,0.0,0.0,0.0,0.0,0.0,0.0,0.0,0.0,0.0,0.0,0.0,0.0,0.0,0.0,0.0,0.0,0.0,0.0,0.0,0.0,0.0,0.0,0.0,0.0,0.0,0.0,0.0,0.0,0.0,0.0,0.0,0.0,0.0,0.0,0.0,0.0,0.0,0.0,0.0,0.0,0.0,0.0,0.0,0.0,0.0,0.0,0.0,0.0,0.0,0.0,0.0,0.0,0.0,-0.0134,-0.0379,-0.0698,0.0,-0.1889,0.0,0.0,0.0,0.0,0.0,0.0,0.0,0.0,0.0,0.0,0.0,0.0,0.0,0.0,0.0,0.0,0.0,0.0,0.0,0.0,0.0,0.0,0.0,0.0,0.0,0.0,0.0,0.0,0.0,0.0,0.0,0.0,0.0,0.0,0.0,0.0,0.0,0.0,0.0,0.0,0.0,0.0,0.0,0.0,0.0,0.0,0.0,0.0,0.0,0.0,0.0,0.0,0.0,0.0,0.0,0.0,0.0,0.0,0.0,0.0,0.0,0.0,0.0,0.0,0.0,0.0,0.0,0.0,0.0,0.0,0.0,0.0,0.0,0.0,0.0,0.0,0.0,0.0,0.0,0.0,0.0,0.0,0.0,0.0,0.0,0.0,0.0,0.0,0.0,0.0,0.0,0.0,0.0,0.0,0.0,0.0,0.0,0.0,0.0,0.0,0.0,0.0,0.0,0.0,0.0,0.0,0.0,0.0,0.0,0.0,0.0,-0.0919,-0.1404,-0.1736,0.0,0.0,0.0,0.0,0.0,0.0,0.0,0.0,0.0,0.0,0.0,0.0,0.0,0.0,0.0,0.0,0.0,0.0,0.0,0.0,0.0,0.0,0.0,0.0,0.0,0.0,0.0,0.0,0.0,0.0,0.0,0.0,0.0,0.0,0.0,0.0,0.0,0.0,0.0,0.0,0.0,0.0,0.0,0.0,0.0,0.0,0.0,0.0,0.0,0.0,0.0,0.0,0.0,0.0,0.0,0.0,0.0,0.0,0.0,0.0,0.0,0.0,0.0,0.0,0.0,0.0,0.0,0.0,0.0,0.0,0.0,0.0,0.0,0.0,0.0,0.0,0.0,0.0,0.0,0.0,0.0,0.0,0.0,0.0,0.0,0.0,0.0,0.0,0.0,0.0,0.0,0.0,0.0,0.0,0.0,0.0,0.0,0.0,0.0,0.0,0.0,0.0,0.0,0.0,0.0,0.0,0.0,0.0,0.0,0.0,-0.0598,0.0,-0.154,-0.2062,-0.2209,-0.1916,0.0,0.0,0.0,0.0,0.0,0.0,0.0,0.0,0.0,0.0,0.0,0.0,0.0,0.0,0.0,0.0,0.0,0.0,0.0,0.0,0.0,0.0,0.0,0.0,0.0,0.0,0.0,0.0,0.0,0.0,0.0,0.0,0.0,0.0,0.0,0.0,0.0,0.0,0.0,0.0,0.0,0.0,0.0,0.0,0.0,0.0,0.0,0.0,0.0,0.0,0.0,0.0,0.0,0.0,0.0,0.0,0.0,0.0,0.0,0.0,0.0,0.0,0.0,0.0,0.0,0.0,0.0,0.0,0.0,0.0,0.0,0.0,0.0,0.0,0.0,0.0,0.0,0.0,0.0,0.0,0.0,0.0,0.0,0.0,0.0,0.0,0.0,0.0,0.0,0.0,0.0,0.0,0.0,0.0,0.0,0.0,0.0,0.0,0.0,0.0,0.0,0.0,0.0,0.0,0.0,0.0,0.0,0.0,0.0,-0.0596,-0.1309,-0.2128,-0.2491,-0.2514,0.0,0.0,0.0,0.0,0.0,0.0,0.0,0.0,0.0,0.0,0.0,0.0,0.0,0.0,0.0,0.0,0.0,0.0,0.0,0.0,0.0,0.0,0.0,0.0,0.0,0.0,0.0,0.0,0.0,0.0,0.0,0.0,0.0,0.0,0.0,0.0,0.0,0.0,0.0,0.0,0.0,0.0,0.0,0.0,0.0,0.0,0.0,0.0,0.0,0.0,0.0,0.0,0.0,0.0,0.0,0.0,0.0,0.0,0.0,0.0,0.0,0.0,0.0,0.0,0.0,0.0,0.0,0.0,0.0,0.0,0.0,0.0,0.0,0.0,0.0,0.0,0.0,0.0,0.0,0.0,0.0,0.0,0.0,0.0,0.0,0.0,0.0,0.0,0.0,0.0,0.0,0.0,0.0,0.0,0.0,0.0,0.0,0.0,0.0,0.0,0.0,0.0,0.0,0.0,0.0,0.0,0.0,0.0,0.0,-0.0288,-0.1052,-0.1805,-0.2489,-0.2437,-0.2435,0.0,0.0,0.0,0.0,0.0,0.0,0.0,0.0,0.0,0.0,0.0,0.0,0.0,0.0,0.0,0.0,0.0,0.0,0.0,0.0,0.0,0.0,0.0,0.0,0.0,0.0,0.0,0.0,0.0,0.0,0.0,0.0,0.0,0.0,0.0,0.0,0.0,0.0,0.0,0.0,0.0,0.0,0.0,0.0,0.0,0.0,0.0,0.0,0.0,0.0,0.0,0.0,0.0,0.0,0.0,0.0,0.0,0.0,0.0,0.0,0.0,0.0,0.0,0.0,0.0,0.0,0.0,0.0,0.0,0.0,0.0,0.0,0.0,0.0,0.0,0.0,0.0,0.0,0.0,0.0,0.0,0.0,0.0,0.0,0.0,0.0,0.0,0.0,0.0,0.0,0.0,0.0,0.0,0.0,0.0,0.0,0.0,0.0,0.0,0.0,0.0,0.0,0.0,0.0,0.0,0.0,0.0,0.0,0.0,-0.0698,0.0,-0.1672,0.0,-0.2181,-0.2189,0.0,0.0,0.0,0.0,0.0,0.0,0.0,0.0,0.0,0.0,0.0,0.0,0.0,0.0,0.0,0.0,0.0,0.0,0.0,0.0,0.0,0.0,0.0,0.0,0.0,0.0,0.0,0.0,0.0,0.0,0.0,0.0,0.0,0.0,0.0,0.0,0.0,0.0,0.0,0.0,0.0,0.0,0.0,0.0,0.0,0.0,0.0,0.0,0.0,0.0,0.0,0.0,0.0,0.0,0.0,0.0,0.0,0.0,0.0,0.0,0.0,0.0,0.0,0.0,0.0,0.0,0.0,0.0,0.0,0.0,0.0,0.0,0.0,0.0,0.0,0.0,0.0,0.0,0.0,0.0,0.0,0.0,0.0,0.0,0.0,0.0,0.0,0.0,0.0,0.0,0.0,0.0,0.0,0.0,0.0,0.0,0.0,0.0,0.0,0.0,0.0,0.0,0.0,0.0,0.0,0.0,0.0,0.0,-0.1012,-0.125,-0.0718,-0.0896,-0.1749,-0.1784,-0.1794,0.0,0.0,0.0,0.0,0.0,0.0,0.0,0.0,0.0,0.0,0.0,0.0,0.0,0.0,0.0,0.0,0.0,0.0,0.0,0.0,0.0,0.0,0.0,0.0,0.0,0.0,0.0,0.0,0.0,0.0,0.0,0.0,0.0,0.0,0.0,0.0,0.0,0.0,0.0,0.0,0.0,0.0,0.0,0.0,0.0,0.0,0.0,0.0,0.0,0.0,0.0,0.0,0.0,0.0,0.0,0.0,0.0,0.0,0.0,0.0,0.0,0.0,0.0,0.0,0.0,0.0,0.0,0.0,0.0,0.0,0.0,0.0,0.0,0.0,0.0,0.0,0.0,0.0,0.0,0.0,0.0,0.0,0.0,0.0,0.0,0.0,0.0,0.0,0.0,0.0,0.0,0.0,0.0,0.0,0.0,0.0,0.0,0.0,0.0,0.0,0.0,0.0,0.0,0.0,0.0,0.0,0.0,0.0,0.0,-0.1001,-0.0834,-0.0887,-0.1159,-0.1178,-0.1266,0.0,0.0,0.0,0.0,0.0,0.0,0.0,0.0,0.0,0.0,0.0,0.0,0.0,0.0,0.0,0.0,0.0,0.0,0.0,0.0,0.0,0.0,0.0,0.0,0.0,0.0,0.0,0.0,0.0,0.0,0.0,0.0,0.0,0.0,0.0,0.0,0.0,0.0,0.0,0.0,0.0,0.0,0.0,0.0,0.0,0.0,0.0,0.0,0.0,0.0,0.0,0.0,0.0,0.0,0.0,0.0,0.0,0.0,0.0,0.0,0.0,0.0,0.0,0.0,0.0,0.0,0.0,0.0,0.0,0.0,0.0,0.0,0.0,0.0,0.0,0.0,0.0,0.0,0.0,0.0,0.0,0.0,0.0,0.0,0.0,0.0,0.0,0.0,0.0,0.0,0.0,0.0,0.0,0.0,0.0,0.0,0.0,0.0,0.0,0.0,0.0,0.0,0.0,0.0,0.0,0.0,0.0,0.0,0.0,-0.0971,-0.0701,-0.062,-0.0708,-0.0715,-0.0838,-0.1132,0.0,0.0,0.0,0.0,0.0,0.0,0.0,0.0,0.0,0.0,0.0,0.0,0.0,0.0,0.0,0.0,0.0,0.0,0.0,0.0,0.0,0.0,0.0,0.0,0.0,0.0,0.0,0.0,0.0,0.0,0.0,0.0,0.0,0.0,0.0,0.0,0.0,0.0,0.0,0.0,0.0,0.0,0.0,0.0,0.0,0.0,0.0,0.0,0.0,0.0,0.0,0.0,0.0,0.0,0.0,0.0,0.0,0.0,0.0,0.0,0.0,0.0,0.0,0.0,0.0,0.0,0.0,0.0,0.0,0.0,0.0,0.0,0.0,0.0,0.0,0.0,0.0,0.0,0.0,0.0,0.0,0.0,0.0,0.0,0.0,0.0,0.0,0.0,0.0,0.0,0.0,0.0,0.0,0.0,0.0,0.0,0.0,0.0,0.0,0.0,0.0,0.0,0.0,0.0,0.0,0.0,0.0,0.0,-0.1096,-0.0433,-0.0162,-0.0369,-0.0381,-0.0529,0.0,0.0,0.0,0.0,0.0,0.0,0.0,0.0,0.0,0.0,0.0,0.0,0.0,0.0,0.0,0.0,0.0,0.0,0.0,0.0,0.0,0.0,0.0,0.0,0.0,0.0,0.0,0.0,0.0,0.0,0.0,0.0,0.0,0.0,0.0,0.0,0.0,0.0,0.0,0.0,0.0,0.0,0.0,0.0,0.0,0.0,0.0,0.0,0.0,0.0,0.0,0.0,0.0,0.0,0.0,0.0,0.0,0.0,0.0,0.0,0.0,0.0,0.0,0.0,0.0,0.0,0.0,0.0,0.0,0.0,0.0,0.0,0.0,0.0,0.0,0.0,0.0,0.0,0.0,0.0,0.0,0.0,0.0,0.0,0.0,0.0,0.0,0.0,0.0,0.0,0.0,0.0,0.0,0.0,0.0,0.0,0.0,0.0,0.0,0.0,0.0,0.0,0.0,0.0,0.0,0.0,0.0,0.0,0.0,-0.1242,-0.0878,-0.0472,-0.0122,-0.0108,-0.0151,0.0,0.0,0.0,0.0,0.0,0.0,0.0,0.0,0.0,0.0,0.0,0.0,0.0,0.0,0.0,0.0,0.0,0.0,0.0,0.0,0.0,0.0,0.0,0.0,0.0,0.0,0.0,0.0,0.0,0.0,0.0,0.0,0.0,0.0,0.0,0.0,0.0,0.0,0.0,0.0,0.0,0.0,0.0,0.0,0.0,0.0,0.0,0.0,0.0,0.0,0.0,0.0,0.0,0.0,0.0,0.0,0.0,0.0,0.0,0.0,0.0,0.0,0.0,0.0,0.0,0.0,0.0,0.0,0.0,0.0,0.0,0.0,0.0,0.0,0.0,0.0,0.0,0.0,0.0,0.0,0.0,0.0,0.0,0.0,0.0,0.0,0.0,0.0,0.0,0.0,0.0,0.0,0.0,0.0,0.0,0.0,0.0,0.0,0.0,0.0,0.0,0.0,0.0,0.0,0.0,0.0,0.0,0.0,-0.1733,-0.143,-0.108,-0.062,0.0,0.0,0.0,0.0,0.0,0.0,0.0,0.0,0.0,0.0,0.0,0.0,0.0,0.0,0.0,0.0,0.0,0.0,0.0,0.0,0.0,0.0,0.0,0.0,0.0,0.0,0.0,0.0,0.0,0.0,0.0,0.0,0.0,0.0,0.0,0.0,0.0,0.0,0.0,0.0,0.0,0.0,0.0,0.0,0.0,0.0,0.0,0.0,0.0,0.0,0.0,0.0,0.0,0.0,0.0,0.0,0.0,0.0,0.0,0.0,0.0,0.0,0.0,0.0,0.0,0.0,0.0,0.0,0.0,0.0,0.0,0.0,0.0,0.0,0.0,0.0,0.0,0.0,0.0,0.0,0.0,0.0,0.0,0.0,0.0,0.0,0.0,0.0,0.0,0.0,0.0,0.0,0.0,0.0,0.0,0.0,0.0,0.0,0.0,0.0,0.0,0.0,0.0,0.0,0.0,0.0,0.0,0.0,0.0,0.0,0.0,-0.1941,-0.1612,-0.1204,-0.0695,0.0,0.0,0.0,0.0,0.0,0.0,0.0,0.0,0.0,0.0,0.0,0.0,0.0,0.0,0.0,0.0,0.0,0.0,0.0,0.0,0.0,0.0,0.0,0.0,0.0,0.0,0.0,0.0,0.0,0.0,0.0,0.0,0.0,0.0,0.0,0.0,0.0,0.0,0.0,0.0,0.0,0.0,0.0,0.0,0.0,0.0,0.0,0.0,0.0,0.0,0.0,0.0,0.0,0.0,0.0,0.0,0.0,0.0,0.0,0.0,0.0,0.0,0.0,0.0,0.0,0.0,0.0,0.0,0.0,0.0,0.0,0.0,0.0,0.0,0.0,0.0,0.0,0.0,0.0,0.0,0.0,0.0,0.0,0.0,0.0,0.0,0.0,0.0,0.0,0.0,0.0,0.0,0.0,0.0,0.0,0.0,0.0,0.0,0.0,0.0,0.0,0.0,0.0,0.0,0.0,0.0,0.0,0.0,0.0,0.0,0.0,-0.2346,-0.1612,-0.1596,-0.1096,0.0,0.0,0.0,0.0,0.0,0.0,0.0,0.0,0.0,0.0,0.0,0.0,0.0,0.0,0.0,0.0,0.0,0.0,0.0,0.0,0.0,0.0,0.0,0.0,0.0,0.0,0.0,0.0,0.0,0.0,0.0,0.0,0.0,0.0,0.0,0.0,0.0,0.0,0.0,0.0,0.0,0.0,0.0,0.0,0.0,0.0,0.0,0.0,0.0,0.0,0.0,-0.1947,0.0,0.0,0.0,0.0,0.0,0.0,0.0,0.0,0.0,0.0,0.0,0.0,0.0,0.0,0.0,0.0,0.0,0.0,0.0,0.0,0.0,0.0,0.0,0.0,0.0,0.0,0.0,0.0,0.0,0.0,0.0,0.0,0.0,0.0,0.0,0.0,0.0,0.0,0.0,0.0,0.0,0.0,0.0,0.0,0.0,0.0,0.0,0.0,0.0,0.0,0.0,0.0,0.0,0.0,0.0,0.0,0.0,0.0,0.0,-0.264,-0.1726,-0.1765,-0.1228,0.0,0.0,0.0,0.0,0.0,0.0,0.0,0.0,0.0,0.0,0.0,0.0,0.0,0.0,0.0,0.0,0.0,0.0,0.0,0.0,0.0,0.0,0.0,0.0,0.0,0.0,0.0,0.0,0.0,0.0,0.0,0.0,0.0,0.0,0.0,0.0,0.0,0.0,0.0,0.0,0.0,0.0,0.0,0.0,0.0,0.0,0.0,0.0,0.0,0.0,0.0,0.0,0.0,0.0,0.0,0.0,0.0,0.0,0.0,0.0,0.0,0.0,0.0,0.0,0.0,0.0,0.0,0.0,0.0,0.0,0.0,0.0,0.0,0.0,0.0,0.0,0.0,0.0,0.0,0.0,0.0,0.0,0.0,0.0,0.0,0.0,0.0,0.0,0.0,0.0,0.0,0.0,0.0,0.0,0.0,0.0,0.0,0.0,0.0,0.0,0.0,0.0,0.0,0.0,0.0,0.0,0.0,0.0,0.0,0.0,-0.3101,-0.2781,-0.1847,-0.1806,-0.123,0.0,0.0,0.0,0.0,0.0,0.0,0.0,0.0,0.0,0.0,0.0,0.0,0.0,0.0,0.0,0.0,0.0,0.0,0.0,0.0,0.0,0.0,0.0,0.0,0.0,0.0,0.0,0.0,0.0,0.0,0.0,0.0,0.0,0.0,0.0,0.0,0.0,0.0,0.0,0.0,0.0,0.0,-0.0795,-0.1175,0.0,0.0,0.0,0.0,0.0,0.0,0.0,0.0,-0.1918,0.0,0.0,0.0,0.0,0.0,0.0,0.0,0.0,0.0,0.0,0.0,0.0,0.0,0.0,0.0,0.0,0.0,0.0,0.0,0.0,0.0,0.0,0.0,0.0,0.0,0.0,0.0,0.0,0.0,0.0,0.0,0.0,0.0,0.0,0.0,0.0,0.0,0.0,0.0,0.0,0.0,0.0,0.0,0.0,0.0,0.0,0.0,0.0,0.0,0.0,0.0,0.0,0.0,0.0,0.0,0.0,-0.302,-0.3101,-0.2716,-0.1823,-0.1806,-0.123,0.0,0.0,0.0,0.0,0.0,0.0,0.0,0.0,0.0,0.0,0.0,0.0,0.0,0.0,0.0,0.0,0.0,0.0,0.0,0.0,0.0,0.0,0.0,0.0,0.0,0.0,0.0,0.0,0.0,0.0,0.0,0.0,0.0,0.0,0.0,0.0,0.0,0.0,0.0,0.0,0.0,0.0,0.0,-0.0547,-0.0714,0.0,0.0,0.0,0.0,0.0,0.0,0.0,0.0,-0.1788,0.0,0.0,0.0,0.0,0.0,0.0,0.0,0.0,0.0,0.0,0.0,0.0,0.0,0.0,0.0,0.0,0.0,0.0,0.0,0.0,0.0,0.0,0.0,0.0,0.0,0.0,0.0,0.0,0.0,0.0,0.0,0.0,0.0,0.0,0.0,0.0,0.0,0.0,0.0,0.0,0.0,0.0,0.0,0.0,0.0,0.0,0.0,0.0,0.0,0.0,0.0,0.0,0.0,0.0,0.0,-0.2998,-0.3239,-0.2849,-0.1849,-0.1806,-0.123,0.0,0.0,0.0,0.0,0.0,0.0,0.0,0.0,0.0,0.0,0.0,0.0,0.0,0.0,0.0,0.0,0.0,0.0,0.0,0.0,0.0,0.0,0.0,0.0,0.0,0.0,0.0,0.0,0.0,0.0,0.0,0.0,0.0,0.0,0.0,0.0,0.0,0.0,0.0,0.0,0.0,0.0,0.0,-0.0767,-0.0821,-0.0978,0.0,0.0,0.0,0.0,0.0,0.0,-0.1227,-0.1395,0.0,0.0,0.0,0.0,0.0,0.0,0.0,0.0,0.0,0.0,0.0,0.0,0.0,0.0,0.0,0.0,0.0,0.0,0.0,0.0,0.0,0.0,0.0,0.0,0.0,0.0,0.0,0.0,0.0,0.0,0.0,0.0,0.0,0.0,0.0,0.0,0.0,0.0,0.0,0.0,0.0,0.0,0.0,0.0,0.0,0.0,0.0,0.0,0.0,0.0,0.0,0.0,0.0,0.0,0.0,-0.2917,-0.3344,-0.2989,-0.1871,-0.1806,-0.1228,0.0,0.0,0.0,0.0,0.0,0.0,0.0,0.0,0.0,0.0,0.0,0.0,0.0,0.0,0.0,0.0,0.0,0.0,0.0,0.0,0.0,0.0,0.0,0.0,0.0,0.0,0.0,0.0,0.0,0.0,0.0,0.0,0.0,0.0,0.0,0.0,0.0,0.0,0.0,0.0,0.0,0.0,0.0,0.0,-0.0988,-0.0977,-0.0967,0.0,0.0,0.0,0.0,-0.0891,-0.0895,0.0,0.0,0.0,0.0,0.0,0.0,0.0,0.0,0.0,0.0,0.0,0.0,0.0,0.0,0.0,0.0,0.0,0.0,0.0,0.0,0.0,0.0,0.0,0.0,0.0,0.0,0.0,0.0,0.0,0.0,0.0,0.0,0.0,0.0,0.0,0.0,0.0,0.0,0.0,0.0,0.0,0.0,0.0,0.0,0.0,0.0,0.0,0.0,0.0,0.0,0.0,0.0,0.0,0.0,0.0,0.0,-0.2907,-0.3258,-0.2879,-0.1869,-0.1806,-0.1228,0.0,0.0,0.0,0.0,0.0,0.0,0.0,0.0,0.0,0.0,0.0,0.0,0.0,0.0,0.0,0.0,0.0,0.0,0.0,0.0,0.0,0.0,0.0,0.0,0.0,0.0,0.0,0.0,0.0,0.0,0.0,0.0,0.0,0.0,0.0,0.0,0.0,0.0,0.0,0.0,0.0,0.0,0.0,0.0,-0.067,-0.0499,-0.048,-0.0387,0.0,0.0,0.0,-0.0213,-0.057,0.0,0.0,0.0,0.0,0.0,0.0,0.0,0.0,0.0,0.0,0.0,0.0,0.0,0.0,0.0,0.0,0.0,0.0,0.0,0.0,0.0,0.0,0.0,0.0,0.0,0.0,0.0,0.0,0.0,0.0,0.0,0.0,0.0,0.0,0.0,0.0,0.0,0.0,0.0,0.0,0.0,0.0,0.0,0.0,0.0,0.0,0.0,0.0,0.0,0.0,0.0,0.0,0.0,0.0,0.0,-0.2744,-0.3029,-0.3327,-0.3134,-0.2337,-0.1964,-0.1385,-0.0538,-0.0175,0.0,0.0,0.0,0.0,0.0,0.0,0.0,0.0,0.0,0.0,0.0,0.0,0.0,0.0,0.0,0.0,0.0,0.0,0.0,0.0,0.0,0.0,0.0,0.0,0.0,0.0,0.0,0.0,0.0,0.0,0.0,0.0,0.0,0.0,0.0,0.0,0.0,0.0,0.0,0.0,0.0,0.0,0.0,-0.0593,-0.0337,0.0,0.0,0.0,-0.0917,-0.1012,0.0,0.0,0.0,0.0,0.0,0.0,0.0,0.0,0.0,0.0,0.0,0.0,0.0,0.0,0.0,0.0,0.0,0.0,0.0,0.0,0.0,0.0,0.0,0.0,0.0,0.0,0.0,0.0,0.0,0.0,0.0,0.0,0.0,0.0,0.0,0.0,0.0,0.0,0.0,0.0,0.0,0.0,0.0,0.0,0.0,0.0,0.0,0.0,0.0,0.0,0.0,0.0,0.0,0.0,0.0,0.0,0.0,-0.3098,-0.3425,-0.3306,-0.2719,-0.2095,-0.1518,-0.0917,-0.0305,0.0,0.0,0.0,0.0,0.0,0.0,0.0,0.0,0.0,0.0,0.0,0.0,0.0,0.0,0.0,0.0,0.0,0.0,0.0,0.0,0.0,0.0,0.0,0.0,0.0,0.0,0.0,0.0,0.0,0.0,0.0,0.0,0.0,0.0,0.0,0.0,0.0,0.0,0.0,0.0,0.0,0.0,-0.1089,-0.0832,-0.0464,-0.0396,0.0,0.0,-0.1099,-0.1715,-0.1593,-0.1516,0.0,0.0,0.0,0.0,0.0,0.0,0.0,0.0,0.0,0.0,0.0,0.0,0.0,0.0,0.0,0.0,0.0,0.0,0.0,0.0,0.0,0.0,0.0,0.0,0.0,0.0,0.0,0.0,0.0,0.0,0.0,0.0,0.0,0.0,0.0,0.0,0.0,0.0,0.0,0.0,0.0,0.0,0.0,0.0,0.0,0.0,0.0,0.0,0.0,0.0,0.0,0.0,0.0,0.0,0.0,-0.3098,-0.3443,-0.3328,-0.2716,-0.2117,-0.1518,-0.0918,-0.0313,0.0,0.0,0.0,0.0,0.0,0.0,0.0,0.0,0.0,0.0,0.0,0.0,0.0,0.0,0.0,0.0,0.0,0.0,0.0,0.0,0.0,0.0,0.0,0.0,0.0,0.0,0.0,0.0,0.0,0.0,0.0,0.0,0.0,0.0,0.0,0.0,0.0,0.0,0.0,0.0,0.0,0.0,-0.1712,-0.1151,-0.0933,-0.0856,0.0,0.0,-0.1122,-0.172,-0.1326,-0.1148,-0.1688,0.0,0.0,0.0,0.0,0.0,0.0,0.0,0.0,0.0,0.0,0.0,0.0,0.0,0.0,0.0,0.0,0.0,0.0,0.0,0.0,0.0,0.0,0.0,0.0,0.0,0.0,0.0,0.0,0.0,0.0,0.0,0.0,0.0,0.0,0.0,0.0,0.0,0.0,0.0,0.0,0.0,0.0,0.0,0.0,0.0,0.0,0.0,0.0,0.0,0.0,0.0,0.0,0.0,-0.2829,-0.3078,-0.3447,-0.3486,-0.3214,-0.2299,-0.1697,-0.1453,-0.0493,0.0,0.0,0.0,0.0,0.0,0.0,0.0,0.0,0.0,0.0,0.0,0.0,0.0,0.0,0.0,0.0,0.0,0.0,0.0,0.0,0.0,0.0,0.0,0.0,0.0,0.0,0.0,0.0,0.0,0.0,0.0,0.0,0.0,0.0,0.0,0.0,0.0,0.0,0.0,0.0,0.0,0.0,-0.2004,-0.1958,-0.1358,0.0,0.0,-0.1159,-0.1093,-0.1717,-0.1524,-0.1365,-0.148,-0.1114,0.0,0.0,0.0,0.0,0.0,0.0,0.0,0.0,0.0,0.0,0.0,0.0,0.0,0.0,0.0,0.0,0.0,0.0,0.0,0.0,0.0,0.0,0.0,0.0,0.0,0.0,0.0,0.0,0.0,0.0,0.0,0.0,0.0,0.0,0.0,0.0,0.0,0.0,0.0,0.0,0.0,0.0,0.0,0.0,0.0,0.0,0.0,0.0,0.0,0.0,0.0,0.0,-0.2843,-0.3101,-0.3425,-0.36,-0.36,-0.241,-0.1806,-0.1762,-0.0627,0.0,0.0,0.0,0.0,0.0,0.0,0.0,0.0,0.0,0.0,0.0,0.0,0.0,0.0,0.0,0.0,0.0,0.0,0.0,0.0,0.0,0.0,0.0,0.0,0.0,0.0,0.0,0.0,0.0,0.0,0.0,0.0,0.0,0.0,0.0,0.0,0.0,0.0,0.0,0.0,0.0,0.0,-0.2256,-0.2234,-0.1609,-0.1252,-0.1513,-0.1023,-0.0859,-0.1484,-0.1331,-0.1114,-0.1127,0.0,0.0,0.0,0.0,0.0,0.0,0.0,0.0,0.0,0.0,0.0,0.0,0.0,0.0,0.0,0.0,0.0,0.0,0.0,0.0,0.0,0.0,0.0,0.0,0.0,0.0,0.0,0.0,0.0,0.0,-0.1955,0.0,0.0,0.0,0.0,0.0,0.0,0.0,0.0,0.0,0.0,0.0,0.0,0.0,0.0,0.0,0.0,0.0,0.0,0.0,0.0,0.0,0.0,0.0,-0.3101,-0.3425,-0.36,-0.3578,-0.2433,-0.1806,-0.1784,-0.0627,0.0,0.0,0.0,0.0,0.0,0.0,0.0,0.0,0.0,0.0,0.0,0.0,0.0,0.0,0.0,0.0,0.0,0.0,0.0,0.0,0.0,0.0,0.0,0.0,0.0,0.0,0.0,0.0,0.0,0.0,0.0,0.0,0.0,0.0,0.0,0.0,0.0,0.0,0.0,0.0,0.0,-0.2812,-0.2566,-0.1763,-0.1716,-0.1538,-0.0984,-0.0401,-0.0263,-0.0949,-0.0479,-0.0199,0.0,0.0,0.0,0.0,0.0,0.0,0.0,0.0,0.0,0.0,0.0,0.0,0.0,0.0,0.0,0.0,0.0,0.0,0.0,0.0,0.0,0.0,0.0,0.0,0.0,0.0,0.0,-0.2747,-0.2466,0.0,0.0,0.0,0.0,0.0,0.0,0.0,0.0,0.0,0.0,0.0,-0.3429,-0.3498,0.0,0.0,0.0,0.0,0.0,0.0,0.0,0.0,0.0,0.0,0.0,0.0,-0.2927,-0.3108,-0.3425,-0.36,-0.3578,-0.2433,-0.1806,-0.1786,-0.065,0.0,0.0,0.0,0.0,0.0,0.0,0.0,0.0,0.0,0.0,0.0,0.0,0.0,0.0,0.0,0.0,0.0,0.0,0.0,0.0,0.0,0.0,0.0,0.0,0.0,0.0,0.0,0.0,0.0,0.0,0.0,0.0,0.0,0.0,0.0,0.0,0.0,0.0,0.0,-0.2566,-0.2815,-0.2725,-0.2559,-0.2363,-0.168,-0.1004,0.0,0.0,0.0,0.0,0.0,0.0,0.0,0.0,0.0,0.0,0.0,0.0,0.0,0.0,-0.0036,0.0285,0.0236,0.0068,-0.0244,0.0,0.0,0.0,0.0,0.0,0.0,0.0,0.0,0.0,0.0,0.0,0.0,0.0,0.0,-0.3125,0.0,-0.2931,0.0,0.0,0.0,0.0,0.0,0.0,0.0,0.0,-0.352,-0.3671,-0.3812,-0.3812,-0.3761,0.0,-0.3539,-0.3263,0.0,0.0,0.0,0.0,0.0,0.0,0.0,0.0,-0.2986,-0.3162,-0.3449,-0.36,-0.3556,-0.241,-0.1806,-0.1784,-0.0641,0.0,0.0,0.0,0.0,0.0,0.0,0.0,0.0,0.0,0.0,0.0,0.0,0.0,0.0,0.0,0.0,0.0,0.0,0.0,0.0,0.0,0.0,0.0,0.0,0.0,0.0,0.0,0.0,0.0,0.0,0.0,0.0,0.0,0.0,0.0,0.0,0.0,-0.125,-0.2096,-0.2723,-0.2766,-0.2625,-0.234,-0.1835,0.0,0.0,0.0,0.0,0.0,0.0,0.0,0.2057,0.2112,0.1888,0.1627,0.1517,0.0983,0.0506,0.029,0.0,0.0,0.0475,0.0461,0.0371,0.0062,-0.0139,-0.0265,-0.0244,-0.1046,-0.1699,0.0,0.0,0.0,0.0,0.0,0.0,0.0,0.0,-0.3641,-0.3527,0.0,-0.3399,0.0,0.0,0.0,0.0,0.0,0.0,0.0,0.0,-0.4072,-0.4223,-0.4197,-0.4213,-0.419,-0.4223,-0.418,-0.3981,-0.36,-0.3161,0.0,0.0,0.0,0.0,0.0,0.0,-0.305,-0.3299,-0.35,-0.36,-0.3578,-0.2433,-0.1784,-0.1695,-0.0603,0.0,0.0,0.0,0.0,0.0,0.0,0.0,0.0,0.0,0.0,0.0,0.0,0.0,0.0,0.0,0.0,0.0,0.0,0.0,0.0,0.0,0.0,0.0,0.0,0.0,0.0,0.0013,0.0,0.0,0.0,0.0,0.0,0.0,0.0,0.0,0.0,0.0,-0.1483,-0.219,-0.2611,-0.2488,0.0,0.0,0.0,0.0,0.0521,0.1839,0.251,0.2882,0.2929,0.29,0.287,0.2745,0.0,0.0,0.1036,0.0445,0.0194,0.0605,0.1096,0.1241,0.021,0.0097,0.0091,0.0018,-0.0036,-0.0036,-0.011,-0.0982,-0.1693,-0.2673,0.0,0.0,0.0,0.0,-0.41,-0.4217,-0.4521,-0.4331,-0.4124,-0.3936,-0.3853,0.0,0.0,0.0,0.0,0.0,0.0,-0.391,-0.4092,-0.4157,-0.4277,-0.4395,-0.4271,-0.4223,-0.4223,-0.4223,-0.4099,-0.39,-0.3853,-0.3421,-0.2655,0.0,0.0,0.0,0.0,-0.3378,-0.3316,-0.35,-0.36,-0.36,-0.241,-0.1385,-0.0538,-0.0177,0.0,0.0,0.0,0.0,0.0,0.0,0.0,0.0,0.0,0.0,0.0,0.0,0.0,0.0,0.0,0.0,0.0,0.0,0.0,0.0,0.0,0.0,0.0,0.0,0.0,0.0254,0.0289,0.0293,0.0,0.0,0.0,0.0,0.0,0.0,0.0,0.0,0.0,-0.1061,-0.157,-0.1905,0.0,0.0,-0.039,0.007,0.0861,0.1707,0.251,0.0,0.0,0.0,0.3281,0.3224,0.3336,0.2835,0.2231,0.1642,0.1056,0.0531,0.0256,0.0693,0.0858,0.0219,0.0635,0.0829,0.0173,-0.0326,-0.064,-0.0702,-0.157,-0.2343,-0.2575,-0.2838,-0.3908,-0.4477,-0.4633,-0.4523,-0.4638,-0.4877,-0.4724,-0.4592,-0.4479,-0.4392,-0.4246,-0.4044,-0.4019,0.0,0.0,0.0,-0.4311,-0.449,-0.4486,-0.4558,-0.4662,-0.4527,-0.4453,-0.4395,-0.4395,-0.4287,-0.4089,-0.4237,-0.39,-0.318,0.0,0.0,-0.3163,-0.3505,-0.3646,-0.36,-0.3681,-0.3609,-0.3319,-0.2093,-0.0984,0.0,0.0,0.0,0.0,0.0,0.0,0.0,0.0,0.0,0.0,0.0,0.0,0.0,0.0,0.0,0.0,0.0,0.0,0.0,0.0,0.0,0.0,0.0,0.0,0.0,0.0314,0.0547,0.0842,0.088,0.0,0.0,0.0,0.0,0.0,0.0,0.0,0.0,-0.0255,-0.045,-0.0542,-0.0797,-0.1056,-0.1293,-0.0494,0.0277,0.0763,0.0,0.2236,0.3119,0.2994,0.301,0.3648,0.36,0.345,0.3274,0.2721,0.214,0.1561,0.0939,0.0448,0.0157,0.0493,0.0694,0.0112,0.073,0.1076,0.0166,-0.0476,-0.0877,-0.0879,-0.185,-0.2665,-0.247,-0.2657,-0.4193,-0.4876,-0.4904,-0.4904,-0.4911,-0.4921,-0.4942,-0.4908,-0.4904,-0.4925,-0.484,-0.4707,-0.4707,0.0,0.0,-0.4857,-0.4911,-0.4918,-0.4918,-0.4918,-0.4918,-0.4914,-0.4847,-0.4737,-0.4711,-0.4562,-0.4274,-0.4419,-0.429,-0.3877,-0.387,-0.3853,-0.3819,-0.3812,-0.389,-0.3994,-0.3991,-0.3624,-0.2821,-0.1557,-0.063,0.0,0.0,0.0,0.0,0.0,0.0,0.0,0.0,0.0,0.0,0.0,0.0,0.0,0.0,0.0,0.0,0.0,0.0,0.0,0.0,0.0,0.0,0.0,0.0,0.0,0.0901,0.0,0.1603,0.1634,0.0,0.0,0.0,0.0714,0.0142,0.0,0.0,0.0,0.0,0.0,0.0,0.0,-0.0202,-0.0761,-0.0246,0.0559,0.1658,0.1867,0.2341,0.3491,0.3187,0.3055,0.3652,0.3751,0.3537,0.2868,0.2208,0.163,0.1051,0.0449,0.0045,0.0,0.0493,0.0694,0.0112,0.0492,0.0694,0.0112,-0.0469,-0.0915,-0.1048,-0.1912,-0.2708,-0.2085,-0.2894,-0.3925,-0.4621,-0.5049,-0.5049,-0.5145,-0.5279,-0.5131,-0.5046,-0.5042,-0.4935,-0.487,-0.4833,-0.4863,-0.4833,-0.4837,-0.4874,-0.4918,-0.4918,-0.4918,-0.4918,-0.4918,-0.4918,-0.487,-0.4863,-0.4863,-0.4769,-0.4592,-0.4619,-0.4549,-0.4341,-0.4327,-0.4156,-0.3816,-0.3998,-0.4075,-0.3994,-0.3994,-0.3404,-0.2233,-0.1366,-0.0601,0.0,0.0,0.0,0.0,0.0,0.0,0.0,0.0,0.0,0.0,0.0,0.0,0.0,0.0,0.0,0.0,0.0,0.0,0.0,0.0,0.0547,0.0532,0.0,0.0977,0.0,0.1508,0.1717,0.1879,0.1988,0.0,0.0,0.1485,0.1082,0.0722,0.0294,0.0,0.0,0.0,0.0,0.0,0.0,-0.0045,-0.018,0.0781,0.1614,0.1943,0.2362,0.2742,0.2994,0.2541,0.2296,0.2938,0.3378,0.3417,0.279,0.2184,0.1607,0.0985,0.0404,0.0,0.0,0.0493,0.0627,0.0112,0.0471,0.0627,0.0112,-0.0493,-0.1052,-0.1496,-0.2186,-0.2829,-0.1925,-0.2976,-0.3849,-0.4669,-0.543,-0.543,-0.5477,-0.5583,-0.5467,-0.5393,-0.5325,-0.5179,-0.5155,-0.5213,-0.5148,-0.5114,-0.5146,-0.5146,-0.5114,-0.5118,-0.5114,-0.5118,-0.5118,-0.5114,-0.5081,-0.4985,-0.5016,-0.4721,-0.4225,-0.4192,-0.3946,-0.3478,-0.3475,-0.3493,-0.3595,-0.4072,-0.43,-0.4216,-0.3888,-0.3206,-0.2119,-0.138,-0.0666,0.0,0.0,0.0,0.0,0.0,0.0,0.0,0.0,0.0,0.0,0.0,0.0,0.0,0.0,0.0,0.0,0.0,0.0,0.0,0.0,0.0,0.0,0.0,0.1514,0.0,0.2185,0.0,0.2549,0.2634,0.2611,0.2435,0.1875,0.1343,0.0927,0.0379,0.0,0.0,0.0,-0.009,-0.0359,-0.0157,-0.0112,-0.0337,0.0707,0.162,0.1895,0.2194,0.2516,0.2718,0.2242,0.2119,0.2946,0.2923,0.2699,0.2342,0.1806,0.1207,0.0627,0.0225,0.0,0.0,0.0269,0.0404,0.009,0.0247,0.0359,0.0067,-0.0493,-0.1073,-0.1673,-0.2275,-0.2898,-0.1835,-0.297,-0.3737,-0.4762,-0.5861,-0.5861,-0.5837,-0.58,-0.58,-0.5732,-0.5641,-0.5508,-0.5525,-0.5606,-0.5477,-0.5443,-0.5426,-0.5423,-0.5416,-0.5395,-0.5395,-0.5395,-0.5395,-0.5395,-0.5291,-0.5162,-0.5127,-0.4608,-0.3645,-0.3645,-0.3162,-0.2243,-0.2211,-0.2523,-0.3147,-0.3872,-0.4255,-0.4349,-0.3624,-0.2925,-0.2197,-0.1497,-0.0734,0.0,0.0,0.0,0.0,0.0,0.0,0.0,0.0,0.0,0.0,0.0,0.0,0.0,-0.0225,0.0,0.0,0.0,0.0,0.0,0.0,0.0,0.0,0.1782,0.2031,0.2513,0.2814,0.3074,0.3289,0.3323,0.319,0.2836,0.2184,0.1583,0.1064,0.0417,0.0,0.0,0.0,-0.0225,-0.0761,-0.0426,-0.0337,-0.0672,0.009,0.1032,0.1652,0.1834,0.2059,0.2605,0.2253,0.2297,0.2948,0.2521,0.194,0.1719,0.1295,0.0694,0.0135,0.0,0.0,0.0,-0.0157,-0.0157,-0.0202,-0.0247,-0.0247,-0.0337,-0.0739,-0.1207,-0.1697,-0.2273,-0.2874,-0.1352,-0.3043,-0.3235,-0.443,-0.6173,-0.6211,-0.6067,-0.58,-0.58,-0.5783,-0.5759,-0.5732,-0.5735,-0.5759,-0.5732,-0.5692,-0.5583,-0.5583,-0.5515,-0.5395,-0.5395,-0.5395,-0.5395,-0.5395,-0.5382,-0.5318,-0.5347,-0.4809,-0.3751,-0.3751,-0.3226,-0.2225,-0.2193,-0.2279,-0.2412,0.0,0.0,0.0,-0.2826,-0.2371,-0.22,-0.1467,-0.0746,0.0,0.0,0.0,0.0,0.0,0.0,0.0,0.0,0.0,0.0,0.0,0.0,0.0,0.0,0.0,0.0,0.0,0.0,0.0,0.1955,0.2202,0.2324,0.2774,0.2998,0.2849,0.3216,0.3425,0.3316,0.3441,0.3516,0.3406,0.2443,0.1755,0.1589,0.0669,0.0,0.0,0.0,0.0,-0.0806,-0.0784,-0.0761,-0.0873,-0.029,0.0579,0.1631,0.1786,0.2051,0.2561,0.2539,0.2386,0.2164,0.2342,0.2029,0.1362,0.1007,0.065,0.0,0.0,0.0,-0.0583,-0.0739,-0.0873,-0.134,-0.1453,-0.1385,-0.1451,-0.1539,-0.1652,-0.1784,-0.2273,-0.2874,-0.0941,0.0,-0.2347,-0.3281,0.0,-0.4724,-0.4619,-0.4515,-0.5041,-0.5231,-0.5296,-0.5646,-0.5844,-0.5872,-0.5837,-0.5766,-0.5694,-0.5694,-0.5613,-0.5511,-0.5474,-0.5467,-0.5395,-0.5395,-0.5395,-0.5395,-0.5395,-0.465,-0.3309,-0.3272,-0.252,-0.1133,-0.1102,-0.1302,-0.1652,-0.2008,-0.2565,-0.3345,-0.2982,-0.2599,-0.2175,-0.1498,-0.0763,0.0,0.0,0.0,0.0,0.0,0.0,0.0,0.0,0.0,0.0,0.0,0.0,0.0,0.0,0.0,0.0,0.0581,0.1154,0.1755,0.2565,0.3003,0.2914,0.3185,0.332,0.3256,0.3474,0.357,0.3455,0.3534,0.3486,0.317,0.2342,0.1697,0.1341,0.056,0.0,0.0,0.0,-0.0337,-0.1228,-0.0784,-0.0761,-0.1186,-0.0569,0.0322,0.1172,0.1605,0.2006,0.2583,0.2406,0.2273,0.2228,0.1873,0.1673,0.1006,0.065,0.0359,0.0045,0.0,-0.018,-0.0762,-0.0895,-0.1073,-0.165,-0.1806,-0.1806,-0.1828,-0.2053,-0.2228,-0.2251,-0.2495,-0.2876,-0.0628,-0.1567,-0.1606,-0.2192,-0.3124,-0.3124,-0.3007,-0.2929,0.0,0.0,0.0,-0.5538,-0.5952,-0.6057,-0.5935,-0.5867,-0.5844,-0.5844,-0.5762,-0.563,-0.5627,-0.5549,-0.544,-0.5433,-0.5423,-0.5395,-0.5395,-0.445,-0.2744,-0.2678,-0.1789,0.0,0.0,-0.0288,-0.0901,-0.1654,-0.2303,-0.2895,-0.3084,-0.2871,-0.22,-0.1467,-0.075,0.0,0.0,0.0291,0.0867,0.1026,0.1366,0.1942,0.1979,0.1724,0.112,0.0963,0.0622,0.0,0.0,0.0,0.0,0.0698,0.1413,0.213,0.3087,0.3592,0.3396,0.3386,0.3468,0.3668,0.3659,0.3682,0.3659,0.3543,0.3288,0.2778,0.2098,0.144,0.0939,0.0367,0.0,0.0,0.0,-0.0388,-0.1383,-0.08,-0.0502,-0.1252,-0.0775,0.012,0.0813,0.1556,0.2231,0.2749,0.2497,0.2162,0.2251,0.165,0.0918,0.0717,0.0314,0.0,0.0,0.0,0.0,-0.1007,-0.1051,-0.1385,-0.1964,-0.2208,-0.2119,-0.2119,-0.2499,-0.2851,-0.2851,-0.2851,-0.3034,-0.0628,-0.1606,-0.1606,-0.2152,-0.3124,-0.3124,-0.2618,-0.1997,-0.3869,-0.4688,-0.4763,-0.5784,-0.6245,-0.6227,-0.6245,-0.6125,-0.5963,-0.5959,-0.5878,0.0,-0.5772,-0.5698,-0.5559,-0.5559,-0.5521,-0.5402,-0.5395,-0.4483,-0.288,-0.2678,-0.1773,0.0,0.0,-0.0066,-0.0224,-0.087,-0.1311,-0.1425,-0.2039,-0.2313,-0.2204,-0.1473,-0.075,0.0,0.0,0.0027,0.0159,0.0791,0.1078,0.1088,0.1178,0.1162,0.0936,0.0465,0.0114,0.0,0.0,0.0,0.0,0.1163,0.2372,0.355,0.3847,0.3894,0.3744,0.3731,0.3792,0.3938,0.3944,0.3958,0.3909,0.3352,0.2977,0.2761,0.1754,0.0992,0.0865,0.0,0.0,0.0,0.0,-0.0244,-0.0904,-0.0848,-0.0731,-0.0957,-0.0781,-0.035,0.0771,0.1858,0.274,0.3248,0.2965,0.243,0.1964,0.1385,0.0761,0.0202,0.0,0.0,0.0,0.0,0.0,-0.1451,-0.1606,-0.2053,-0.3015,-0.3331,-0.3243,-0.3195,-0.3331,-0.342,-0.3398,-0.342,-0.3464,-0.0286,-0.0693,-0.0734,-0.1018,-0.1422,-0.1405,-0.1159,-0.0878,-0.2361,-0.332,-0.3982,-0.555,-0.63,-0.63,-0.63,-0.5947,-0.5302,-0.5302,-0.5231,-0.5111,-0.5105,-0.5294,-0.5669,-0.5661,-0.5552,-0.5518,-0.5433,-0.4483,-0.2845,-0.2678,-0.1777,0.0,0.0,-0.0234,-0.0691,-0.096,-0.1355,-0.1825,-0.1689,-0.1606,-0.1577,-0.0875,-0.0333,0.0,0.0,0.0193,0.0585,0.1317,0.1843,0.2188,0.2291,0.2116,0.1614,0.0974,0.0433,0.0051,0.0382,0.058,0.0617,0.184,0.3009,0.3913,0.3994,0.4001,0.4018,0.3937,0.3944,0.3987,0.3994,0.3842,0.3465,0.3088,0.2611,0.1887,0.1234,0.0782,0.0454,0.0202,0.0,0.0,0.0,0.0,-0.0837,-0.0623,-0.0577,-0.079,-0.066,-0.0078,0.0753,0.133,0.1927,0.2458,0.2374,0.1986,0.1437,0.1096,0.065,0.009,0.0,0.0,0.0,0.0,0.0,-0.1518,-0.1806,-0.2275,-0.3376,-0.36,-0.36,-0.36,-0.36,-0.36,-0.36,-0.36,-0.36,0.0,0.0,0.0,0.0,0.0,0.0,0.0,0.0,-0.1164,-0.2186,-0.3329,-0.5146,-0.6064,-0.63,-0.63,-0.5709,-0.4805,-0.4688,-0.4637,-0.4558,-0.4553,-0.5021,-0.5781,-0.5739,-0.553,-0.531,-0.5175,-0.419,-0.2567,-0.2383,-0.1575,0.0,0.0,-0.0336,-0.1006,-0.0921,-0.1203,-0.1846,-0.1234,-0.0924,-0.1087,-0.0373,0.0,0.0,0.0,0.0332,0.1078,0.1652,0.2279,0.2952,0.292,0.2583,0.1937,0.1393,0.0848,0.0383,0.0929,0.1437,0.1645,0.2558,0.3419,0.4041,0.4121,0.4168,0.424,0.4007,0.3859,0.3834,0.3846,0.3533,0.2866,0.2554,0.2061,0.1058,0.0801,0.0519,0.0,0.0,0.0,0.0,0.0,-0.0181,-0.0487,-0.0308,-0.0207,-0.0495,-0.0291,0.0188,0.0593,0.0701,0.0916,0.1268,0.149,0.1432,0.0957,0.0742,0.0494,0.0,0.0,0.0,0.0,0.0,-0.0583,-0.1561,-0.1941,-0.2455,-0.3353,-0.36,-0.36,-0.36,-0.36,-0.36,-0.36,-0.36,-0.36,0.0,0.0,0.0,0.0,0.0,0.0,0.0,0.0,-0.1127,-0.2289,-0.3433,-0.4421,-0.5401,-0.6219,-0.6303,-0.5715,-0.4688,-0.4688,-0.4639,-0.4629,-0.4673,-0.5149,-0.5939,-0.5952,-0.5402,-0.448,-0.4332,-0.3336,-0.1598,-0.146,-0.0941,0.0,0.0,0.0,0.0,0.0,0.0,0.0,-0.0163,-0.0436,-0.1002,-0.0381,0.0,0.0,0.0,0.0336,0.1029,0.1171,0.1487,0.2008,0.1656,0.1263,0.1078,0.1073,0.1072,0.1023,0.1685,0.2387,0.3006,0.3219,0.3629,0.4348,0.4433,0.444,0.4405,0.3783,0.3366,0.3356,0.3416,0.3078,0.2349,0.1708,0.1292,0.1016,0.0468,0.0056,0.0,0.0,0.0,0.0,0.0,0.0,0.0,0.0,0.0,0.0,0.0,0.0,0.0,0.0,0.0,0.0,0.06,0.0909,0.0801,0.0413,0.0,0.0,0.0,0.0,0.0,-0.0448,-0.105,-0.1607,-0.2251,-0.2788,-0.3309,-0.36,-0.36,-0.3578,-0.3578,-0.3578,-0.36,-0.3556,-0.3556,0.0612,0.0,0.0,0.0394,0.1003,0.1077,0.107,0.0941,-0.0169,-0.1678,-0.3303,-0.3736,-0.4809,-0.6386,-0.6422,-0.5463,-0.3828,-0.3748,-0.3748,-0.3748,-0.3748,-0.4583,-0.601,-0.5419,-0.4829,-0.4296,-0.3651,-0.2643,-0.1424,-0.0802,-0.0345,0.0,0.0,0.0,0.0,0.0,0.0,0.0,0.0,-0.0162,-0.0374,-0.0153,0.0,0.0,0.0,0.0118,0.0491,0.1266,0.1671,0.1511,0.1641,0.1523,0.1047,0.1073,0.11,0.1154,0.225,0.323,0.3953,0.4013,0.4147,0.4487,0.4491,0.4491,0.446,0.3763,0.3146,0.273,0.2676,0.2371,0.1647,0.1256,0.0922,0.0504,0.0,0.0,0.0,0.0,0.0,0.0,0.0,0.0,0.0,0.0,0.0,0.0,0.0,0.0,0.0,0.0,0.0,0.0,0.0237,0.0326,0.0,0.0189,0.0,0.0,0.0,0.0,0.0,0.0,-0.1096,-0.1697,-0.2317,-0.2921,-0.3464,-0.3578,-0.36,-0.3534,-0.3236,-0.3148,-0.3512,-0.3328,-0.3236,0.179,0.1031,0.0986,0.1478,0.2277,0.2288,0.2098,0.1746,0.0862,-0.0812,-0.2859,-0.2901,-0.4084,-0.5899,-0.6062,-0.4956,-0.3279,-0.284,-0.287,-0.3088,-0.3124,-0.4219,-0.6051,-0.5108,-0.4372,-0.3978,-0.2932,-0.1902,-0.0981,-0.0358,0.0,0.0,0.0,0.0,0.0,0.0,0.0,0.0,0.0,0.0,0.0,0.0,0.0,0.0,0.0,0.0183,0.0686,0.1516,0.1823,0.1522,0.1778,0.1606,0.0862,0.0976,0.1292,0.1835,0.3037,0.3993,0.4528,0.4593,0.4597,0.4563,0.4586,0.4617,0.4415,0.367,0.3009,0.2728,0.2037,0.1318,0.0924,0.0783,0.056,0.0,0.0,0.0,0.0,0.0,0.0,0.0,0.0,0.0,0.0,0.0,0.0,0.0,0.0,0.0,0.0,0.0,0.0,0.0,0.0,0.0,0.0,0.0,0.0,0.0,0.0,0.0,0.0,0.0,-0.1163,-0.183,-0.2453,-0.2965,-0.3442,-0.3578,-0.3464,-0.3306,-0.3012,-0.2696,-0.2882,-0.2677,-0.2677,0.3481,0.3392,0.3438,0.3436,0.3523,0.352,0.2853,0.1917,0.1693,0.0356,-0.1779,-0.1913,-0.308,-0.5074,-0.4942,-0.4339,-0.3239,-0.2268,-0.2323,-0.3064,-0.3173,-0.4261,-0.6141,-0.519,-0.4169,-0.326,-0.2095,-0.112,-0.0146,0.0,0.0,0.0,0.0,0.0,0.0,0.0,0.0,0.0,0.0,0.0,0.0,0.0,0.0,0.0,0.0,0.068,0.1965,0.1688,0.1655,0.2355,0.177,0.1009,0.0245,0.0765,0.1829,0.3262,0.4303,0.4763,0.4721,0.4802,0.4823,0.4724,0.4796,0.4887,0.4763,0.3545,0.3002,0.3572,0.158,0.0329,0.0,0.0,0.0,0.0,0.0,0.0,0.0,0.0,0.0,0.0,0.0,0.0,0.0,0.0,0.0,0.0,0.0,0.0,0.0,0.0,0.0,0.0,0.0,0.0,0.0,0.0,0.0,0.0,0.0,0.0,0.0,-0.085,-0.1414,-0.2016,-0.2837,-0.3334,-0.3522,-0.3464,-0.3236,-0.3012,-0.2674,-0.2475,-0.2322,-0.1988,-0.2008,0.4285,0.3703,0.4419,0.4732,0.4732,0.473,0.4061,0.2904,0.2102,0.0447,-0.1521,-0.179,-0.267,-0.4098,-0.3288,-0.3042,-0.3233,-0.2857,-0.2926,-0.3352,-0.404,-0.5103,-0.6119,-0.4713,-0.3642,-0.2929,-0.1396,-0.0386,0.0,0.0,0.0,0.0,0.0,0.0,0.0,0.0,0.0,0.0,0.0,0.0,0.0,0.0,0.0,0.0,0.0,0.0259,0.0856,0.1615,0.1727,0.0956,0.16,0.1446,0.0308,0.1293,0.2458,0.3531,0.4424,0.4867,0.4853,0.4884,0.4897,0.4853,0.4854,0.4928,0.4735,0.3933,0.3256,0.2799,0.1786,0.0699,0.0,0.0,0.0,0.0,0.0,0.0,0.0,0.0,0.0,0.0,0.0,0.0,0.0,0.0,0.0,0.0,0.0,0.0,-0.0503,-0.0336,-0.0224,-0.0504,0.0,0.0,0.0,0.0,0.0,0.0,0.0,0.0,0.0,-0.1126,-0.1824,-0.1984,-0.2856,-0.3488,-0.3558,-0.3192,-0.2965,-0.263,-0.2295,-0.1895,-0.1786,-0.1431,-0.1451,0.5489,0.4905,0.5622,0.5938,0.5935,0.5935,0.5041,0.3614,0.2726,0.1028,-0.0896,-0.121,-0.1879,-0.268,-0.1746,-0.2073,-0.321,-0.3016,-0.3204,-0.3978,-0.4726,-0.5603,-0.61,-0.4385,-0.3332,-0.2887,-0.1022,0.0,0.0,0.0,0.0,0.0,0.0,0.0,0.0,0.0,0.0,0.0,0.0,0.0,0.0,0.0,0.0,0.0,0.0,0.0134,0.0425,0.15,0.1649,0.0763,0.152,0.1456,0.0318,0.1362,0.2465,0.3288,0.411,0.4718,0.4941,0.5036,0.504,0.4965,0.5036,0.5064,0.4998,0.4079,0.3351,0.2782,0.1583,0.0665,0.05,0.0,0.0,0.0,0.0,0.0,0.0,0.0,0.0,0.0,0.0,0.0,-0.0252,0.0,0.0,0.0,-0.0168,-0.0588,-0.0894,-0.0978,-0.0699,-0.1006,-0.0699,0.0,0.0,0.0,0.0533,0.0286,0.0283,0.0334,-0.0025,-0.1167,-0.193,-0.2099,-0.2569,-0.323,-0.3327,-0.2937,-0.2586,-0.223,-0.1741,-0.1252,-0.1074,-0.0829,-0.0985,0.7051,0.6918,0.7095,0.6962,0.6959,0.6962,0.5708,0.3792,0.3525,0.2057,0.0,0.0,-0.0807,-0.1388,-0.0673,-0.1342,-0.2924,-0.2401,-0.3001,-0.4678,-0.492,-0.546,-0.6188,-0.4153,-0.3045,-0.2944,-0.1031,0.0,0.0,0.0,0.0,0.0,0.0,0.0,0.0,0.0,0.0,0.0,0.0,0.0,0.0,0.0,0.0,0.0,0.0,0.0337,0.1138,0.1304,0.1302,0.1167,0.13,0.0905,0.0267,0.09,0.1768,0.2626,0.3533,0.4347,0.4974,0.5221,0.525,0.5176,0.5293,0.5311,0.4934,0.3815,0.3086,0.3049,0.1662,0.0365,0.0874,0.045,0.0,0.0,0.0,0.0,0.0,0.0,-0.0252,-0.0699,-0.0364,-0.0336,-0.0672,-0.042,0.0,0.0,-0.0559,-0.1033,-0.1285,-0.1591,-0.173,-0.1452,-0.1201,-0.0978,-0.0224,0.0474,0.0274,0.0107,0.0213,0.0265,-0.0131,-0.1013,-0.1703,-0.2019,-0.2711,-0.3316,-0.2746,-0.2361,-0.1934,-0.1551,-0.1055,0.0,0.0,0.0,0.0,0.7095,0.7095,0.7095,0.7095,0.7095,0.7095,0.5753,0.3705,0.3614,0.2235,0.0,0.0,-0.0225,0.0,-0.0135,-0.0852,-0.228,-0.1998,-0.2644,-0.3849,-0.4108,-0.4204,-0.4114,-0.2936,-0.1838,-0.11,-0.0404,0.0,0.0,0.0,0.0,0.0,0.0,0.0,0.0,0.0,0.0,0.0,0.0,0.0,0.0,0.0,0.0,0.0,0.0,0.0138,0.0404,0.0973,0.1006,0.0505,0.0973,0.0906,0.0336,0.0839,0.1408,0.1842,0.3178,0.4071,0.4375,0.4992,0.5375,0.5337,0.5368,0.505,0.455,0.3915,0.3111,0.2442,0.1307,0.0868,0.0433,0.02,0.0,0.0,0.0,0.0,0.0,0.0,0.0,-0.0252,-0.014,-0.014,-0.0252,-0.0084,0.0,0.0,-0.0644,-0.1259,-0.1758,-0.212,-0.2426,-0.248,-0.2174,-0.1729,-0.1144,-0.0781,-0.0885,-0.0602,-0.0245,-0.0054,-0.0376,-0.0747,-0.1404,-0.2025,-0.2743,-0.2784,-0.2245,-0.1811,-0.1386,-0.1001,-0.0635,0.0,0.0,0.0,0.0,0.7095,0.7095,0.7095,0.7095,0.7095,0.7095,0.5755,0.3792,0.3614,0.2236,0.0,0.0,0.0,0.0,0.0,0.0,-0.1657,-0.1344,-0.179,-0.2903,-0.3481,-0.3498,-0.3282,-0.2302,-0.1194,0.0,0.0,0.0,0.0,0.0,0.0,0.0,0.0,0.0,0.0,0.0,0.0,0.0,0.0,0.0,0.0,0.0,0.0,0.0,0.0,0.0,0.0556,0.1142,0.1131,0.0675,0.1006,0.1006,0.0572,0.0739,0.0939,0.1507,0.2611,0.3647,0.4015,0.4885,0.5395,0.5395,0.5395,0.519,0.4519,0.4084,0.2878,0.2076,0.1141,0.0605,0.0,0.0,0.0,0.0,0.0,0.0,0.0,0.0,0.0,-0.0314,-0.0198,-0.017,-0.0313,0.0,0.0,0.0,-0.0876,-0.1607,-0.2216,-0.2704,-0.3123,-0.3292,-0.2871,-0.2482,-0.2204,-0.2093,-0.2093,-0.1502,-0.0833,-0.0637,-0.0662,-0.0879,-0.134,-0.1808,-0.2453,-0.215,-0.167,-0.134,-0.0968,-0.0592,-0.0303,0.0,0.0,0.0,-0.0765,0.7095,0.7095,0.7095,0.7095,0.7095,0.7095,0.5753,0.3837,0.3614,0.2236,0.0,0.0,0.0,0.0,0.0,-0.0583,-0.1343,-0.0673,-0.0673,-0.1746,-0.2592,-0.3031,-0.2799,-0.1931,-0.0948,0.0,0.0,0.0,0.0,0.0,0.0,0.0,0.0,0.0,0.0,0.0,0.0,0.0,0.0,0.0,0.0,0.0,0.0,0.0,0.0,0.0473,0.13,0.18,0.1802,0.1423,0.1382,0.128,0.1108,0.0471,0.0437,0.114,0.2143,0.3045,0.3915,0.4855,0.5395,0.5395,0.5395,0.5362,0.4957,0.3713,0.2711,0.2277,0.1007,0.0,0.0,0.0,0.0,0.0,0.0,0.0,0.0,0.0,0.0,-0.0616,-0.0461,-0.0228,-0.0734,-0.0324,0.0,0.0,-0.1186,-0.1983,-0.2487,-0.3069,-0.3844,-0.3816,-0.3528,-0.336,-0.3112,-0.3037,-0.3037,-0.2758,-0.1978,-0.148,-0.1118,-0.1228,-0.1004,-0.1466,-0.1809,-0.1487,0.0,0.0,0.0,-0.0271,-0.0247,-0.0427,-0.0597,-0.0726,-0.1194,0.7095,0.7095,0.7095,0.7095,0.7095,0.7095,0.5758,0.3748,0.3618,0.2285,0.0,0.0,0.0,0.0,0.0,-0.0225,0.0,0.0,-0.009,-0.0449,-0.0762,-0.0942,-0.0941,0.0,0.0,0.0,0.0,0.0,0.0,0.0,0.0,0.0,0.0,0.0,0.0,0.0,0.0,0.0,0.0,0.0,0.0,0.0,0.0,0.0,0.0,0.0,0.1641,0.3011,0.3289,0.2496,0.1832,0.1471,0.1382,0.0573,0.027,0.0708,0.1878,0.2778,0.3278,0.4553,0.5326,0.5395,0.5359,0.5093,0.4384,0.3378,0.2444,0.1709,0.0,0.0,0.0,0.0,0.0,0.0,0.0,0.0,0.0,0.0,-0.0091,-0.0243,0.0,0.0,0.0,0.0,0.0,0.0,-0.113,-0.2186,-0.2446,-0.3442,-0.4222,-0.4426,-0.4311,-0.4185,-0.4082,-0.4027,-0.3956,-0.3901,-0.3289,-0.2486,-0.2066,-0.1757,-0.1199,-0.0829,-0.1151,-0.1025,0.0,0.0,0.0,0.0,0.0,0.0,0.0,-0.1045,-0.1688,0.7169,0.7326,0.7265,0.7275,0.7284,0.7336,0.6201,0.4581,0.3835,0.2632,0.0947,0.0181,0.0,0.0,0.0,0.0,0.0,0.0,0.0,0.0,0.0,0.0,0.0,0.0,0.0,0.0,0.0,0.0,0.0,0.0,0.0,0.0,0.05,0.0495,0.0,0.0524,0.0438,0.0,0.0,0.0,0.0,0.0,0.0,0.0,0.0,0.0647,0.2215,0.4157,0.4865,0.4115,0.3329,0.2744,0.2531,0.1338,0.0855,0.1196,0.2193,0.2678,0.3011,0.4384,0.5126,0.499,0.509,0.5123,0.4519,0.348,0.2377,0.1976,0.074,0.0,0.0,0.0,0.0,0.0,0.0,0.0,0.0,0.0,0.0,0.0,0.0,0.0,0.0,0.0,0.0,0.0,0.0,-0.1532,-0.1955,-0.3315,-0.4272,-0.4335,-0.4601,-0.4523,-0.4491,-0.4465,-0.4413,-0.4422,-0.4194,-0.3442,-0.2422,-0.1939,-0.1173,-0.0559,-0.0643,0.0,0.0,0.0,0.0,0.0,0.0,0.0,0.0,-0.1392,-0.2034,0.7304,0.7584,0.7451,0.7475,0.7577,0.7594,0.6799,0.5529,0.4272,0.3023,0.1688,0.0507,0.0,0.0,0.0,0.0,0.0,0.0,0.0,0.0,0.0,0.0,0.0,0.0,0.0,0.0,0.0,0.0,0.0,0.0,0.0,0.0391,0.115,0.1054,0.0546,0.1071,0.0937,0.0,0.0,0.0,0.0,0.0,0.0,0.0,0.0,0.1364,0.3068,0.493,0.6001,0.5828,0.4996,0.4388,0.4152,0.2617,0.2177,0.2553,0.2687,0.2722,0.2879,0.4084,0.4815,0.4352,0.4861,0.5373,0.5033,0.3985,0.2965,0.2594,0.1116,0.0,0.0,0.0,0.0,0.0,0.0,0.0,0.0098,0.0,0.0,0.0,0.0,0.0,0.0,0.0,0.0,0.0,-0.0762,-0.1263,-0.173,-0.268,-0.3463,-0.3855,-0.4253,-0.4742,-0.4783,-0.4857,-0.4803,-0.478,-0.4693,-0.3961,-0.2359,-0.1626,-0.0957,0.0,0.0,0.0,0.0,0.0,0.0,0.0,0.0,0.0,-0.1661,-0.1753,-0.2186,0.7539,0.7597,0.7567,0.757,0.7597,0.7597,0.6913,0.5706,0.4407,0.3219,0.1882,0.0614,0.0,0.0,0.0,0.0,0.0,0.0,0.0,0.0,0.0,0.0,0.0,0.0,0.0,0.0,0.0,0.0,0.0,0.0,0.049,0.1241,0.0829,0.0733,0.1288,0.0802,0.0331,0.0,0.0,0.0,0.0,0.0,0.0,0.0,0.1487,0.25,0.3318,0.5157,0.6224,0.5959,0.5323,0.4746,0.4421,0.3473,0.299,0.309,0.2972,0.285,0.2924,0.3232,0.3599,0.4081,0.4361,0.4817,0.5599,0.4653,0.3664,0.2949,0.186,0.0793,0.0,0.0,0.0,0.0779,0.0507,0.0337,0.0734,0.0,0.0,0.0,0.0,0.0,0.0,0.0,0.0,0.0,0.0,0.0,-0.1551,-0.212,-0.2621,-0.3113,-0.3653,-0.409,-0.4375,-0.4494,-0.4684,-0.4786,-0.4806,-0.4529,-0.2892,-0.1886,-0.1462,0.0,0.0,0.0,0.0,0.0,0.0,0.0,0.0,0.0,-0.1447,-0.1789,-0.2028,0.7682,0.7797,0.7726,0.774,0.7801,0.7752,0.7372,0.6559,0.5393,0.4103,0.277,0.1487,0.062,0.0094,0.0609,0.0,0.0,0.0,0.0,0.0,0.0,0.0,0.0,0.0,0.0,0.0,0.0,0.0,0.0,0.0,0.0583,0.17,0.1107,0.1234,0.1711,0.1121,0.0595,0.0,0.0,0.0,0.0,0.0,0.0,0.0,0.1916,0.3124,0.3279,0.5157,0.6103,0.6163,0.5752,0.5412,0.5184,0.4459,0.41,0.4316,0.332,0.298,0.2868,0.2795,0.2971,0.3561,0.3957,0.4754,0.5114,0.4604,0.3589,0.2751,0.1757,0.0708,0.0735,0.0,0.1186,0.1708,0.129,0.1012,0.1146,0.0,0.0,0.0,0.0,0.0,0.0,0.0,0.0,0.0,0.0,0.0,0.0,-0.1284,-0.1807,-0.2357,-0.2912,-0.3389,-0.3714,-0.403,-0.4335,-0.4565,-0.4772,-0.444,-0.3547,-0.2835,-0.2281,0.0,0.0,0.0,0.0,0.0,0.0,0.0,0.0,0.0,-0.1116,-0.1415,-0.1579,0.7814,0.7978,0.7899,0.7919,0.7978,0.7978,0.7907,0.7631,0.6534,0.5027,0.3861,0.2683,0.1653,0.0864,0.1768,0.1576,0.0,0.0,0.0,0.0,0.0,0.0,0.0,0.0,0.0,0.0,0.0,0.0,0.0,0.0,0.0,0.179,0.1522,0.1695,0.1912,0.1542,0.0869,0.0,0.0,0.0,0.0,0.0,0.0,0.0,0.2427,0.3476,0.3865,0.5196,0.63,0.63,0.63,0.63,0.6069,0.5609,0.5188,0.587,0.4064,0.3078,0.2782,0.2513,0.229,0.2792,0.3569,0.4489,0.4899,0.4543,0.3589,0.2433,0.147,0.0948,0.1673,0.1805,0.2204,0.2569,0.2139,0.1672,0.1371,0.0,0.0,0.0,0.0,0.0,0.0,0.0,0.0,0.0,0.0,0.0,0.0,-0.0538,-0.1101,-0.1597,-0.2156,-0.2781,-0.3154,-0.3766,-0.4047,-0.43,-0.4593,-0.4476,-0.4092,-0.3583,-0.2805,-0.1495,0.0,0.0,0.0,0.0,0.0,0.0,-0.0168,-0.0503,-0.0783,-0.1062,-0.1202,0.7948,0.7985,0.7965,0.7968,0.7985,0.7988,0.7971,0.776,0.662,0.5257,0.4081,0.374,0.2916,0.2296,0.3067,0.3427,0.3006,0.2273,0.2169,0.2475,0.1387,0.0688,0.1189,0.0858,0.0718,0.0986,0.0762,0.0,0.0,0.0,0.0,0.2458,0.1522,0.1389,0.2234,0.1559,0.0662,0.035,0.0,0.0,0.0,0.0874,0.1768,0.2452,0.3677,0.4192,0.4572,0.5512,0.63,0.63,0.63,0.63,0.6254,0.6066,0.6053,0.5726,0.4349,0.325,0.3101,0.158,0.17,0.2549,0.3189,0.3768,0.4617,0.5116,0.3982,0.2561,0.1815,0.1751,0.2729,0.2853,0.2842,0.2802,0.2447,0.1754,0.1385,0.0,0.0,0.0,0.0,0.0,0.0,0.0,0.0,0.0,0.0,0.0,0.0,0.0,-0.0537,-0.1005,-0.1439,-0.2072,-0.2634,-0.3328,-0.3862,-0.4056,-0.4339,-0.4671,-0.4361,-0.4076,-0.3286,-0.2509,-0.171,0.0,0.0,-0.0673,-0.0435,-0.0374,-0.0313,-0.0253,-0.0508,-0.0793,-0.0898,0.7988,0.7988,0.7988,0.7988,0.7988,0.7988,0.7988,0.7942,0.7282,0.6276,0.5372,0.4968,0.4299,0.3674,0.4461,0.5003,0.4693,0.3665,0.3502,0.3509,0.2655,0.1799,0.2259,0.181,0.1749,0.1924,0.1745,0.1791,0.0,0.0,0.2503,0.2992,0.2325,0.2547,0.3169,0.259,0.1469,0.1148,0.0882,0.0612,0.0214,0.1227,0.232,0.3371,0.4287,0.471,0.489,0.5709,0.6257,0.63,0.63,0.63,0.63,0.63,0.63,0.6022,0.4805,0.3906,0.3593,0.2113,0.168,0.2731,0.2696,0.2852,0.3632,0.4092,0.3908,0.2963,0.241,0.2792,0.3823,0.3918,0.415,0.4418,0.3732,0.29,0.2144,0.1307,0.0701,0.0,0.0,0.0,0.0,0.0,0.0,0.0,0.0,0.0,0.0,0.0,0.0,0.0,0.0,0.0,0.0,-0.2444,-0.3145,-0.3478,-0.3949,-0.4284,-0.4553,-0.4243,-0.4386,-0.4234,-0.3439,-0.2116,-0.1528,-0.0993,-0.0833,-0.0591,-0.0325,-0.0176,-0.0347,-0.0516,0.0,0.7988,0.7988,0.7988,0.7988,0.7988,0.7988,0.7988,0.7988,0.7988,0.7182,0.6129,0.6179,0.5672,0.5018,0.5663,0.6372,0.6287,0.5012,0.4681,0.4814,0.4018,0.3272,0.3297,0.3158,0.3306,0.3162,0.3471,0.3853,0.3304,0.3304,0.3616,0.3838,0.3838,0.3792,0.3838,0.3527,0.2904,0.2191,0.1789,0.1286,0.1135,0.1624,0.2804,0.3981,0.4862,0.5253,0.5391,0.5937,0.6322,0.6347,0.6323,0.63,0.63,0.63,0.63,0.6141,0.5279,0.4807,0.4181,0.2738,0.2035,0.3437,0.227,0.2347,0.2735,0.3163,0.3008,0.3281,0.347,0.3895,0.4809,0.5029,0.5065,0.4982,0.4707,0.4092,0.2517,0.15,0.0916,0.0,0.0,0.0,0.0,0.0,0.0,0.0,0.0,0.0,0.0,0.0,0.0,0.0,0.0,0.0,0.0,0.0,-0.1942,-0.241,-0.3111,-0.368,-0.4115,-0.4381,-0.4455,-0.4202,-0.3612,-0.2346,-0.1829,-0.1363,-0.1074,-0.0734,-0.0277,0.0,0.0,0.0,0.0,0.7988,0.7988,0.7988,0.7988,0.7988,0.7988,0.7988,0.7988,0.7988,0.7235,0.6282,0.7135,0.6933,0.6329,0.7083,0.7677,0.7307,0.649,0.6226,0.6617,0.5255,0.4724,0.5067,0.4282,0.4602,0.4647,0.5096,0.4628,0.4265,0.3979,0.4239,0.4732,0.4372,0.4061,0.4821,0.4417,0.2992,0.2102,0.1878,0.2276,0.2969,0.318,0.4392,0.5757,0.6363,0.6318,0.6216,0.6421,0.6451,0.6474,0.6371,0.6313,0.63,0.63,0.63,0.5983,0.5395,0.4688,0.4414,0.3088,0.2464,0.3476,0.262,0.2347,0.2501,0.254,0.2776,0.4414,0.453,0.4882,0.5667,0.5983,0.5273,0.4805,0.4727,0.3244,0.168,0.2103,0.1471,0.0,0.0,0.0,0.0,0.0,0.0,0.0,0.0,0.0,0.0,0.0,0.0,0.0,0.0,0.0,0.0,0.0,-0.1106,-0.1574,-0.2209,-0.2978,-0.3445,-0.3713,-0.3347,-0.3031,-0.2685,-0.2668,-0.2292,-0.1813,-0.1357,-0.0788,-0.0253,0.0,0.0,0.0,0.0,0.7911,0.7988,0.7988,0.7988,0.7988,0.7988,0.7988,0.7988,0.7988,0.7686,0.7285,0.7686,0.7637,0.7285,0.7839,0.7988,0.7839,0.7335,0.7385,0.7862,0.6712,0.6058,0.5973,0.5992,0.6222,0.5829,0.6313,0.6486,0.5833,0.5521,0.5711,0.5356,0.5489,0.5442,0.5672,0.5578,0.4907,0.4061,0.3349,0.3484,0.4275,0.4645,0.5257,0.6804,0.6819,0.6797,0.6712,0.6651,0.6603,0.659,0.6529,0.6504,0.6443,0.6412,0.6395,0.6257,0.5906,0.5354,0.4686,0.375,0.3711,0.3242,0.2542,0.188,0.219,0.2503,0.2971,0.4533,0.5276,0.5828,0.6141,0.6261,0.5828,0.5356,0.5082,0.3634,0.2347,0.2306,0.0,0.0,0.0,0.0,0.0,0.0,0.0,0.0,0.0,0.0,0.0,0.0,0.0,0.0,0.0,0.0,0.0,-0.0303,-0.0773,-0.1174,-0.1407,-0.2108,-0.2644,-0.2778,-0.2412,-0.2511,-0.2636,-0.2583,-0.2527,-0.1996,-0.1204,-0.0715,-0.0227,0.0,0.0,0.0,0.0,0.7845,0.7934,0.7971,0.7988,0.7988,0.7988,0.7988,0.7988,0.7988,0.7988,0.7988,0.7988,0.7988,0.7988,0.7988,0.7988,0.7988,0.7988,0.7988,0.7944,0.7792,0.7247,0.7024,0.7228,0.712,0.6303,0.7073,0.7282,0.7296,0.7099,0.6571,0.5899,0.6473,0.6514,0.6293,0.6384,0.6248,0.509,0.4018,0.4196,0.5087,0.5314,0.5928,0.6623,0.6923,0.6929,0.6827,0.6766,0.6756,0.6753,0.6695,0.6614,0.6546,0.6566,0.6501,0.6412,0.6214,0.5707,0.5057,0.4414,0.4219,0.3437,0.2229,0.1528,0.1333,0.2268,0.3279,0.4139,0.555,0.6022,0.63,0.63,0.5906,0.5825,0.5867,0.4572,0.34,0.293,0.0,0.0,0.0,0.0,0.0,0.0,0.0,0.0,0.0,0.0806,0.0,0.0,0.0,0.0,0.0,0.0,0.0,0.0,0.0,0.0,0.0,0.0,0.0,0.0,-0.1577,-0.1811,0.0,-0.1772,-0.1263,-0.1169,0.0,0.0,0.0,0.0,0.0,0.0,0.0,0.7699,0.7841,0.7928,0.7985,0.7988,0.7988,0.7988,0.7988,0.7988,0.7988,0.7988,0.7988,0.7988,0.7988,0.7988,0.7988,0.7988,0.7988,0.7988,0.7985,0.7975,0.7849,0.7727,0.775,0.7811,0.7569,0.7746,0.7668,0.7611,0.7556,0.7289,0.7098,0.709,0.7037,0.6941,0.6974,0.6669,0.5677,0.4639,0.4552,0.5312,0.5672,0.606,0.681,0.7075,0.7071,0.7055,0.6933,0.6866,0.6866,0.6824,0.6739,0.6698,0.6685,0.661,0.6498,0.6467,0.5948,0.5272,0.4984,0.4686,0.4064,0.2817,0.1216,0.0589,0.2112,0.3046,0.3591,0.5196,0.6141,0.63,0.6219,0.5944,0.5825,0.5709,0.4652,0.3595,0.2969,0.0,0.0,0.0,0.0,0.1324,0.1494,0.1901,0.245,0.188,0.0,0.0,0.0,0.0,0.0,0.0,0.0,0.0,0.0,0.0,0.0,0.0,0.0,0.0,0.0,0.0,0.0,0.0,0.0,-0.0236,-0.0538,0.0,0.0,0.0,0.0,0.0,0.0,0.0,0.7546,0.7692,0.7838,0.7904,0.7988,0.7988,0.7988,0.7988,0.7988,0.7988,0.7988,0.7988,0.7988,0.7988,0.7988,0.7988,0.7988,0.7988,0.7988,0.7988,0.7988,0.7988,0.7988,0.7982,0.7951,0.7904,0.7891,0.7823,0.7743,0.7733,0.7621,0.7478,0.7424,0.7428,0.7411,0.7312,0.6879,0.6539,0.5985,0.6071,0.6245,0.647,0.665,0.7007,0.7095,0.7095,0.7082,0.7045,0.7021,0.6997,0.6943,0.6919,0.6851,0.6798,0.6759,0.6627,0.6552,0.6257,0.5947,0.5613,0.516,0.3593,0.2386,0.114,0.0237,0.1919,0.2891,0.3748,0.5046,0.6239,0.6303,0.63,0.618,0.5902,0.5401,0.4623,0.3711,0.3007,0.0,0.0,0.0,0.0,0.1994,0.2731,0.3181,0.359,0.2852,0.0,0.0,0.0,0.0,0.0,0.0,0.0,0.0,0.0,0.0,0.0,0.0,0.0,0.0,0.0,0.0,0.0,0.0,0.0,0.0,0.0,0.0,0.0,0.0,0.0,0.0,0.0,0.0,0.7421,0.7604,0.7706,0.7862,0.7978,0.7988,0.7988,0.7988,0.7988,0.7988,0.7988,0.7988,0.7988,0.7988,0.7988,0.7988,0.7988,0.7988,0.7988,0.7988,0.7988,0.7988,0.7889,0.7637,0.7478,0.7736,0.7528,0.7362,0.7837,0.7833,0.7773,0.776,0.7723,0.7695,0.756,0.7499,0.738,0.7302,0.7227,0.7214,0.7169,0.7074,0.7051,0.7095,0.7095,0.7095,0.7095,0.7078,0.7082,0.7082,0.7065,0.7034,0.6984,0.693,0.6866,0.679,0.6692,0.6651,0.6576,0.6047,0.5108,0.3531,0.2327,0.1205,0.084,0.1866,0.3011,0.3283,0.498,0.6364,0.6371,0.6422,0.6419,0.6232,0.6202,0.5474,0.3843,0.2851,0.1956,0.0,0.1333,0.1724,0.2932,0.3634,0.3394,0.3461,0.2527,0.0,0.0,0.0,0.0,0.0,0.0,0.0,0.0,0.0,0.0,0.0,0.0,0.0,0.0,0.0,0.0,0.0,0.0,0.0,0.0,0.0,0.0,0.0,0.0,0.0,0.0,0.0,0.0,0.7322,0.7587,0.7607,0.7773,0.7965,0.7988,0.7988,0.7988,0.7988,0.7988,0.7988,0.7988,0.7988,0.7988,0.7988,0.7988,0.7988,0.7988,0.7988,0.7988,0.7686,0.7839,0.7385,0.688,0.6578,0.7385,0.708,0.6971,0.7965,0.7944,0.7938,0.7938,0.7884,0.7803,0.7628,0.7604,0.759,0.756,0.7424,0.7377,0.7312,0.7227,0.7183,0.7095,0.7095,0.7095,0.7095,0.7095,0.7095,0.7095,0.7095,0.7078,0.7065,0.7061,0.7001,0.6889,0.6859,0.6788,0.6677,0.5726,0.4836,0.3686,0.2594,0.1448,0.0872,0.185,0.3315,0.3678,0.5296,0.6348,0.6555,0.6607,0.6579,0.6552,0.6518,0.5716,0.406,0.2803,0.1943,0.1422,0.1729,0.227,0.3673,0.4489,0.3828,0.324,0.2229,0.0,0.0,0.0,0.0,0.0,0.0,0.0,0.0,0.0,0.0,0.0,0.0,0.0,0.0,0.0,0.0,0.0,0.0,0.0,0.0,0.0,0.0,0.0,0.0,0.0,0.0,0.0,0.0,0.7258,0.7458,0.7556,0.7709,0.7892,0.7948,0.7988,0.7988,0.7988,0.7988,0.7988,0.7988,0.7988,0.7988,0.7988,0.7988,0.7988,0.7988,0.7988,0.7889,0.7285,0.6734,0.6331,0.5924,0.5525,0.6229,0.6182,0.6681,0.7982,0.7988,0.7988,0.7988,0.7975,0.7933,0.7794,0.7729,0.7706,0.7611,0.7533,0.7525,0.7429,0.7319,0.7248,0.7115,0.7109,0.7105,0.7098,0.7095,0.7095,0.7095,0.7095,0.7095,0.7095,0.7095,0.7071,0.6997,0.6964,0.6869,0.6846,0.6422,0.5846,0.4495,0.3068,0.2232,0.2386,0.2751,0.3562,0.4426,0.5668,0.6494,0.6644,0.6661,0.6644,0.6624,0.6352,0.5306,0.4001,0.3002,0.2184,0.2002,0.2066,0.3497,0.4927,0.4334,0.3632,0.3008,0.2073,0.1136,0.0,0.0,0.0,0.0,0.0,0.0,0.0,0.0,0.0,0.0,0.0,0.0,0.0,0.0,0.0,0.0,0.0,0.0,0.0,0.0,0.0,0.0,0.0,0.0,0.0,0.0,0.0,0.7231,0.7383,0.7533,0.7682,0.7824,0.7924,0.7988,0.7988,0.7988,0.7988,0.7988,0.7988,0.7988,0.7988,0.7988,0.7988,0.7988,0.7988,0.7988,0.7889,0.7182,0.6983,0.6429,0.5372,0.5525,0.5879,0.6079,0.6531,0.7235,0.7786,0.7988,0.7988,0.7988,0.7938,0.7909,0.7879,0.781,0.7777,0.7723,0.7638,0.7553,0.7472,0.7373,0.7275,0.7224,0.7207,0.7115,0.7095,0.7095,0.7095,0.7095,0.7095,0.7095,0.7095,0.7095,0.7058,0.7028,0.696,0.6987,0.6967,0.6437,0.582,0.3982,0.3341,0.3674,0.379,0.4282,0.512,0.6179,0.6563,0.6776,0.6783,0.681,0.6793,0.6116,0.505,0.3914,0.2895,0.25,0.2313,0.2807,0.4397,0.5518,0.4258,0.324,0.2579,0.1917,0.0,0.0,0.0,0.0,0.0,0.0,0.0,0.0,0.0,0.0,0.0,0.0,0.0,0.0,0.0,0.0,0.0,0.0,0.0,0.0,0.0,0.0,0.0,0.0,0.0,0.0,0.0,0.0,0.7183,0.738,0.7529,0.7668,0.7814,0.7917,0.7988,0.7988,0.7988,0.7988,0.7988,0.7988,0.7988,0.7988,0.7988,0.7988,0.7988,0.7988,0.7988,0.7889,0.7437,0.7487,0.7033,0.6176,0.5675,0.5827,0.6079,0.6232,0.6331,0.7434,0.7988,0.7988,0.7988,0.7968,0.7958,0.7948,0.7938,0.788,0.7868,0.779,0.7716,0.7651,0.7526,0.7417,0.735,0.7278,0.7214,0.7115,0.7102,0.7095,0.7095,0.7095,0.7095,0.7095,0.7095,0.7092,0.7085,0.7078,0.7075,0.7092,0.7085,0.6614,0.5893,0.4896,0.4467,0.4708,0.5031,0.5583,0.6408,0.6668,0.6889,0.6943,0.6991,0.6591,0.6015,0.4931,0.3685,0.2978,0.2702,0.2796,0.3369,0.4484,0.5458,0.4686,0.3054,0.2501,0.0,0.0,0.0,0.0,0.0,0.0,0.0,0.0,0.0,0.0,0.0,0.0,0.0,0.0,0.0,0.0,0.0,0.0,0.0,0.0,0.0,0.0,0.0,0.0,0.0,0.0,0.0,0.0,0.0,0.7119,0.7224,0.7373,0.7522,0.7689,0.7884,0.7988,0.7988,0.7988,0.7988,0.7988,0.7988,0.7988,0.7988,0.7988,0.7988,0.7988,0.7988,0.7988,0.7789,0.7335,0.6833,0.6229,0.5675,0.5425,0.5779,0.6132,0.6481,0.7235,0.7939,0.7988,0.7988,0.7988,0.7988,0.7988,0.7988,0.7988,0.7978,0.7974,0.7913,0.7851,0.7777,0.7658,0.7563,0.7448,0.7373,0.7316,0.7156,0.7125,0.7105,0.7098,0.7095,0.7095,0.7095,0.7095,0.7095,0.7095,0.7095,0.7095,0.7095,0.7095,0.7095,0.6694,0.665,0.6098,0.5722,0.578,0.6256,0.6605,0.6907,0.6997,0.7038,0.7068,0.6768,0.6153,0.516,0.398,0.3308,0.3065,0.3528,0.4107,0.5017,0.5874,0.4513,0.3028,0.2507,0.0,0.0,0.0,0.0,0.0,0.0,0.0,0.0,0.0,0.0,0.0,0.0,0.0,0.0,0.0,0.0,0.0,0.0,0.0,0.0,0.0,0.0,0.0,0.0,0.0,0.0,0.0,0.0,0.0,0.7095,0.7119,0.7305,0.7489,0.7695,0.7826,0.7928,0.7978,0.7988,0.7988,0.7988,0.7988,0.7988,0.7988,0.7988,0.7988,0.7988,0.7988,0.7988,0.7786,0.7132,0.7135,0.6429,0.5974,0.5924,0.6179,0.6481,0.6933,0.7487,0.7889,0.7988,0.7988,0.7988,0.7988,0.7988,0.7988,0.7988,0.7988,0.7971,0.7928,0.7933,0.7889,0.7811,0.7695,0.757,0.7522,0.7444,0.7312,0.7244,0.7166,0.7197,0.7095,0.7095,0.7095,0.7095,0.7095,0.7095,0.7095,0.7095,0.7095,0.7095,0.7095,0.7095,0.7051,0.6871,0.6502,0.6631,0.6899,0.6997,0.7088,0.7092,0.7095,0.7095,0.7092,0.6284,0.5526,0.461,0.3747,0.3879,0.4304,0.506,0.6006,0.5694,0.4148,0.3049,0.2616,0.0,0.0,0.0,0.0,0.0,0.0,0.0,0.0,0.0,0.0,0.0,0.0,0.0,0.0,0.0,0.0,0.0,0.0,0.0,0.0,0.0,0.0,0.0,0.0,0.0,0.0,0.0,0.0,0.0,0.7095,0.7109,0.7305,0.7522,0.7773,0.7807,0.7902,0.7982,0.7988,0.7988,0.7988,0.7988,0.7988,0.7988,0.7988,0.7988,0.7988,0.7988,0.7988,0.7988,0.7786,0.7686,0.7736,0.7836,0.703,0.688,0.7033,0.7385,0.688,0.7335,0.7988,0.7988,0.7988,0.7988,0.7988,0.7988,0.7988,0.7988,0.7988,0.7968,0.7975,0.7958,0.7928,0.7803,0.7784,0.7736,0.7607,0.7492,0.7436,0.7343,0.7268,0.7183,0.7098,0.7095,0.7095,0.7095,0.7095,0.7095,0.7095,0.7095,0.7095,0.7095,0.7095,0.7095,0.7007,0.6918,0.7007,0.7007,0.7095,0.7095,0.7095,0.7095,0.7095,0.7007,0.6514,0.5667,0.4807,0.4295,0.4439,0.4904,0.5684,0.6475,0.6185,0.4725,0.3264,0.2819,0.0,0.0,0.0,0.0,0.0,0.0,0.0,0.0,0.0,0.0,0.0,0.0,0.0,0.0,0.0,0.0,0.0,0.0,0.0,0.0,0.0,0.0,0.0,0.0,0.0,0.0,0.0,0.0,0.0,0.7095,0.7112,0.7309,0.7482,0.7655,0.7767,0.7896,0.7985,0.7988,0.7988,0.7988,0.7988,0.7988,0.7988,0.7988,0.7988,0.7988,0.7988,0.7988,0.7988,0.7988,0.7988,0.7988,0.7988,0.7736,0.7736,0.7789,0.7839,0.7537,0.7786,0.7988,0.7988,0.7988,0.7988,0.7988,0.7988,0.7988,0.7988,0.7988,0.7988,0.7988,0.7988,0.7955,0.7894,0.7899,0.7776,0.7716,0.7628,0.7567,0.7522,0.739,0.7272,0.7105,0.7102,0.7098,0.7095,0.7095,0.7095,0.7095,0.7095,0.7095,0.7095,0.7095,0.7095,0.7095,0.7095,0.7095,0.7095,0.7095,0.7095,0.7095,0.7095,0.7095,0.6962,0.6782,0.5888,0.5043,0.4975,0.4993,0.5594,0.63,0.6359,0.6193,0.5286,0.3827,0.245,0.1056,0.0,0.0,0.0,0.0,0.0,0.0,0.0,-0.1059,-0.098,-0.0863,-0.0706,0.0,0.0,0.0,0.0,0.0,0.0,0.0,0.0,0.0,0.0,0.0,0.0,0.0,0.0,0.0,0.0,0.0,0.7095,0.7109,0.7231,0.7397,0.7594,0.7689,0.7838,0.7965,0.7988,0.7988,0.7988,0.7988,0.7988,0.7988,0.7988,0.7988,0.7988,0.7988,0.7988,0.7988,0.7988,0.7988,0.7988,0.7988,0.7939,0.7988,0.7988,0.7988,0.7988,0.7988,0.7988,0.7988,0.7988,0.7988,0.7988,0.7988,0.7988,0.7988,0.7988,0.7988,0.7988,0.7988,0.7988,0.7948,0.7917,0.7857,0.7813,0.778,0.7716,0.7658,0.7546,0.74,0.7295,0.7258,0.7162,0.7119,0.7095,0.7095,0.7095,0.7095,0.7095,0.7095,0.7095,0.7095,0.7095,0.7095,0.7095,0.7095,0.7095,0.7095,0.7095,0.7095,0.7095,0.7007,0.6962,0.6514,0.5891,0.5612,0.5863,0.637,0.6803,0.679,0.649,0.5772,0.44,0.3197,0.1627,0.0286,0.0,0.0,0.0,0.0,0.0,0.0,-0.1372,-0.1372,-0.1372,-0.1215,-0.0941,0.0,0.0,0.0,0.0,0.0,0.0,0.0,0.0,0.0,0.0,0.0,0.0,0.0,0.0,0.0,0.0,0.7095,0.7095,0.7098,0.7257,0.7553,0.7597,0.7753,0.7931,0.7982,0.7988,0.7988,0.7988,0.7988,0.7988,0.7988,0.7988,0.7988,0.7988,0.7988,0.7988,0.7988,0.7988,0.7988,0.7988,0.7988,0.7988,0.7988,0.7988,0.7988,0.7988,0.7988,0.7988,0.7988,0.7988,0.7988,0.7988,0.7988,0.7988,0.7988,0.7988,0.7988,0.7988,0.7988,0.7988,0.7988,0.7988,0.7944,0.7887,0.78,0.7787,0.7702,0.7556,0.7428,0.736,0.7285,0.7227,0.7109,0.7102,0.7095,0.7095,0.7095,0.7095,0.7095,0.7095,0.7095,0.7095,0.7095,0.7095,0.7095,0.7095,0.7095,0.7095,0.7095,0.7095,0.7095,0.7095,0.6605,0.6204,0.6599,0.6997,0.7037,0.7078,0.6674,0.5985,0.4949,0.3757,0.2603,0.138,0.0,0.0,0.0,0.0,0.0,0.0,0.0,-0.1606,-0.1606,-0.1333,-0.102,-0.0667,0.0,0.0,0.0,0.0,0.0,0.0,0.0,0.0,0.0,0.0,0.0,0.0,0.0,0.0,0.0,0.7095,0.7095,0.7095,0.7206,0.7421,0.7543,0.7699,0.781,0.7938,0.7988,0.7988,0.7988,0.7988,0.7988,0.7988,0.7988,0.7988,0.7988,0.7988,0.7988,0.7988,0.7988,0.7988,0.7988,0.7988,0.7988,0.7988,0.7988,0.7988,0.7988,0.7988,0.7988,0.7988,0.7988,0.7988,0.7988,0.7988,0.7988,0.7988,0.7988,0.7988,0.7988,0.7988,0.7988,0.7988,0.7988,0.7975,0.7965,0.7951,0.7953,0.7855,0.7706,0.7584,0.7472,0.7387,0.7295,0.7221,0.7119,0.7112,0.7098,0.7095,0.7095,0.7095,0.7095,0.7095,0.7095,0.7095,0.7095,0.7095,0.7095,0.7095,0.7095,0.7095,0.7095,0.7095,0.7095,0.6874,0.6782,0.6959,0.7092,0.7092,0.7088,0.699,0.6136,0.5097,0.3932,0.2779,0.0,0.0,0.0,0.0,0.0,0.0,0.0,-0.1411,-0.1567,-0.1528,-0.1333,0.0,0.0,0.0,0.0,0.0,0.0,0.0,0.0,0.0,0.0,0.0,0.0,0.0,0.0,0.0,0.0,0.0]}]]